[[{"header":{"parameterUnit":"m.s-1","parameterCategory":1,"la1":30.6,"la2":28.766,"lo1":-90.7593,"lo2":-88.6598,"dy":0.0162,"dx":0.0183,"nx":116,"ny":114,"refTime":"2023-04-03T06:00:00:Z","depth":0,"parameterNumber":2,"parameterNumberName":"U-component_of_WINDS"},"data":[0.0,0.0,0.0,0.0,0.0,0.0,0.0,0.0,0.0,0.0,0.0,0.0,0.0,0.0,0.0,0.0,0.0,0.0,0.0,0.0,0.0,0.0,0.0,0.0,0.0,0.0,0.0,0.0,0.0,0.0,0.0,0.0,0.0,0.0,0.0,0.0,0.0,0.0,0.0,0.0,0.0,0.0,0.0,0.0,0.0,0.0,0.0,0.0,0.0,0.0,0.0,0.0,0.0,0.0,0.0,0.0,0.0,0.0,0.0,0.0,0.0,0.0,0.0,0.0,0.0,0.0,0.0,0.0,0.0,0.0,0.0,0.0,0.0,0.0,0.0,0.0,0.0,0.0,0.0,0.0,0.0,0.0,0.0,0.0,0.0,0.0,0.0,0.0,0.0,0.0,0.0,0.0,0.0,0.0,0.0,0.0,0.0,0.0,0.0,0.0,0.0,0.0,0.0,0.0,0.0,0.0,0.0,0.0,0.0,0.0,0.0,0.0,0.0,0.0,0.0,0.0,0.0,0.0,0.0,0.0,0.0,0.0,0.0,0.0,0.0,0.0,0.0,0.0,0.0,0.0,0.0,0.0,0.0,0.0,0.0,0.0,0.0,0.0,0.0,0.0,0.0,0.0,0.0,0.0,0.0,0.0,0.0,0.0,0.0,0.0,0.0,0.0,0.0,0.0,0.0,0.0,0.0,0.0,0.0,0.0,0.0,0.0,0.0,0.0,0.0,0.0,0.0,0.0,0.0,0.0,0.0,0.0,0.0,0.0,0.0,0.0,0.0,0.0,0.0,0.0,0.0,0.0,0.0,0.0,0.0,0.0,0.0,0.0,0.0,0.0,0.0,0.0,0.0,0.0,0.0,0.0,0.0,0.0,0.0,0.0,0.0,0.0,0.0,0.0,0.0,0.0,0.0,0.0,0.0,0.0,0.0,0.0,0.0,0.0,0.0,0.0,0.0,0.0,0.0,0.0,0.0,0.0,0.0,0.0,0.0,0.0,0.0,0.0,0.0,0.0,0.0,0.0,0.0,0.0,0.0,0.0,0.0,0.0,0.0,0.0,0.0,0.0,0.0,0.0,0.0,0.0,0.0,0.0,0.0,0.0,0.0,0.0,0.0,0.0,0.0,0.0,0.0,0.0,0.0,0.0,0.0,0.0,0.0,0.0,0.0,0.0,0.0,0.0,0.0,0.0,0.0,0.0,0.0,0.0,0.0,0.0,0.0,0.0,0.0,0.0,0.0,0.0,0.0,0.0,0.0,0.0,0.0,0.0,0.0,0.0,0.0,0.0,0.0,0.0,0.0,0.0,0.0,0.0,0.0,0.0,0.0,0.0,0.0,0.0,0.0,0.0,0.0,0.0,0.0,0.0,0.0,0.0,0.0,0.0,0.0,0.0,0.0,0.0,0.0,0.0,0.0,0.0,0.0,0.0,0.0,0.0,0.0,0.0,0.0,0.0,0.0,0.0,0.0,0.0,0.0,0.0,0.0,0.0,0.0,0.0,0.0,0.0,0.0,0.0,0.0,0.0,0.0,0.0,0.0,0.0,0.0,0.0,0.0,0.0,0.0,0.0,0.0,0.0,0.0,0.0,0.0,0.0,0.0,0.0,0.0,0.0,0.0,0.0,0.0,0.0,0.0,0.0,0.0,0.0,0.0,0.0,0.0,0.0,0.0,0.0,0.0,0.0,0.0,0.0,0.0,0.0,0.0,0.0,0.0,0.0,0.0,0.0,0.0,0.0,0.0,0.0,0.0,0.0,0.0,0.0,0.0,0.0,0.0,0.0,0.0,0.0,0.0,0.0,0.0,0.0,0.0,0.0,0.0,0.0,0.0,0.0,0.0,0.0,0.0,0.0,0.0,0.0,0.0,0.0,0.0,0.0,0.0,0.0,0.0,0.0,0.0,0.0,0.0,0.0,0.0,0.0,0.0,0.0,0.0,0.0,0.0,0.0,0.0,0.0,0.0,0.0,0.0,0.0,0.0,0.0,0.0,0.0,0.0,0.0,0.0,0.0,0.0,0.0,0.0,0.0,0.0,0.0,0.0,0.0,0.0,0.0,0.0,0.0,0.0,0.0,0.0,0.0,0.0,0.0,0.0,0.0,0.0,0.0,0.0,0.0,0.0,0.0,0.0,0.0,0.0,0.0,0.0,0.0,0.0,0.0,0.0,0.0,0.0,0.0,0.0,0.0,0.0,0.0,0.0,0.0,0.0,0.0,0.0,0.0,0.0,0.0,0.0,0.0,0.0,0.0,0.0,0.0,0.0,0.0,0.0,0.0,0.0,0.0,0.0,0.0,0.0,0.0,0.0,0.0,0.0,0.0,0.0,0.0,0.0,0.0,0.0,0.0,0.0,0.0,0.0,0.0,0.0,0.0,0.0,0.0,0.0,0.0,0.0,0.0,0.0,0.0,0.0,0.0,0.0,0.0,0.0,0.0,0.0,0.0,0.0,0.0,0.0,0.0,0.0,0.0,0.0,0.0,0.0,0.0,0.0,0.0,0.0,0.0,0.0,0.0,0.0,0.0,0.0,0.0,0.0,0.0,0.0,0.0,0.0,0.0,0.0,0.0,0.0,0.0,0.0,0.0,0.0,0.0,0.0,0.0,0.0,0.0,0.0,0.0,0.0,0.0,0.0,0.0,0.0,0.0,0.0,0.0,0.0,0.0,0.0,0.0,0.0,0.0,0.0,0.0,0.0,0.0,0.0,0.0,0.0,0.0,0.0,0.0,0.0,0.0,0.0,0.0,0.0,0.0,0.0,0.0,0.0,0.0,0.0,0.0,0.0,0.0,0.0,0.0,0.0,0.0,0.0,0.0,0.0,0.0,0.0,0.0,0.0,0.0,0.0,0.0,0.0,0.0,0.0,0.0,0.0,0.0,0.0,0.0,0.0,0.0,0.0,0.0,0.0,0.0,0.0,0.0,0.0,0.0,0.0,0.0,0.0,0.0,0.0,0.0,0.0,0.0,0.0,0.0,0.0,0.0,0.0,0.0,0.0,0.0,0.0,0.0,0.0,0.0,0.0,0.0,0.0,0.0,0.0,0.0,0.0,0.0,0.0,0.0,0.0,0.0,0.0,0.0,0.0,0.0,0.0,0.0,0.0,0.0,0.0,0.0,0.0,0.0,0.0,0.0,0.0,0.0,0.0,0.0,0.0,0.0,0.0,0.0,0.0,0.0,0.0,0.0,0.0,0.0,0.0,0.0,0.0,0.0,0.0,0.0,0.0,0.0,0.0,0.0,0.0,0.0,0.0,0.0,0.0,0.0,0.0,0.0,0.0,0.0,0.0,0.0,0.0,0.0,0.0,0.0,0.0,0.0,0.0,0.0,0.0,0.0,0.0,0.0,0.0,0.0,0.0,0.0,0.0,0.0,0.0,0.0,0.0,0.0,0.0,0.0,0.0,0.0,0.0,0.0,0.0,0.0,0.0,0.0,0.0,0.0,0.0,0.0,0.0,0.0,0.0,0.0,0.0,0.0,0.0,0.0,0.0,0.0,0.0,0.0,0.0,0.0,0.0,0.0,0.0,0.0,0.0,0.0,0.0,0.0,0.0,0.0,0.0,0.0,0.0,0.0,0.0,0.0,0.0,0.0,0.0,0.0,0.0,0.0,0.0,0.0,0.0,0.0,0.0,0.0,0.0,0.0,0.0,0.0,0.0,0.0,0.0,0.0,0.0,0.0,0.0,0.0,0.0,0.0,0.0,0.0,0.0,0.0,0.0,0.0,0.0,0.0,0.0,0.0,0.0,0.0,0.0,0.0,0.0,0.0,0.0,0.0,0.0,0.0,0.0,0.0,0.0,0.0,0.0,0.0,0.0,0.0,0.0,0.0,0.0,0.0,0.0,0.0,0.0,0.0,0.0,0.0,0.0,0.0,0.0,0.0,0.0,0.0,0.0,0.0,0.0,0.0,0.0,0.0,0.0,0.0,0.0,0.0,0.0,0.0,0.0,0.0,0.0,0.0,0.0,0.0,0.0,0.0,0.0,0.0,0.0,0.0,0.0,0.0,0.0,0.0,0.0,0.0,0.0,0.0,0.0,0.0,0.0,0.0,0.0,0.0,0.0,0.0,0.0,0.0,0.0,0.0,0.0,0.0,0.0,0.0,0.0,0.0,0.0,0.0,0.0,0.0,0.0,0.0,0.0,0.0,0.0,0.0,0.0,0.0,0.0,0.0,0.0,0.0,0.0,0.0,0.0,0.0,0.0,0.0,0.0,0.0,0.0,0.0,0.0,0.0,0.0,0.0,0.0,0.0,0.0,0.0,0.0,0.0,0.0,0.0,0.0,0.0,0.0,0.0,0.0,0.0,0.0,0.0,0.0,0.0,0.0,0.0,0.0,0.0,0.0,0.0,0.0,0.0,0.0,0.0,0.0,0.0,0.0,0.0,0.0,0.0,0.0,0.0,0.0,0.0,0.0,0.0,0.0,0.0,0.0,0.0,0.0,0.0,0.0,0.0,0.0,0.0,0.0,0.0,0.0,0.0,0.0,0.0,0.0,0.0,0.0,0.0,0.0,0.0,0.0,0.0,0.0,0.0,0.0,0.0,0.0,0.0,0.0,0.0,0.0,0.0,0.0,0.0,0.0,0.0,0.0,0.0,0.0,0.0,0.0,0.0,0.0,0.0,0.0,0.0,0.0,0.0,0.0,0.0,0.0,0.0,0.0,0.0,0.0,0.0,0.0,0.0,0.0,0.0,0.0,0.0,0.0,0.0,0.0,0.0,0.0,0.0,0.0,0.0,0.0,0.0,0.0,0.0,0.0,0.0,0.0,0.0,0.0,0.0,0.0,0.0,0.0,0.0,0.0,0.0,0.0,0.0,0.0,0.0,0.0,0.0,0.0,0.0,0.0,0.0,0.0,0.0,0.0,0.0,0.0,0.0,0.0,0.0,0.0,0.0,0.0,0.0,0.0,0.0,0.0,0.0,0.0,0.0,0.0,0.0,0.0,0.0,0.0,0.0,0.0,0.0,0.0,0.0,0.0,0.0,0.0,0.0,0.0,0.0,0.0,0.0,0.0,0.0,0.0,0.0,0.0,0.0,0.0,0.0,0.0,0.0,0.0,0.0,0.0,0.0,0.0,0.0,0.0,0.0,0.0,0.0,0.0,0.0,0.0,0.0,0.0,0.0,0.0,0.0,0.0,0.0,0.0,0.0,0.0,0.0,0.0,0.0,0.0,0.0,0.0,0.0,0.0,0.0,0.0,0.0,0.0,0.0,0.0,0.0,0.0,0.0,0.0,0.0,0.0,0.0,0.0,0.0,0.0,0.0,0.0,0.0,0.0,0.0,0.0,0.0,0.0,0.0,0.0,0.0,0.0,0.0,0.0,0.0,0.0,0.0,0.0,0.0,0.0,0.0,0.0,0.0,0.0,0.0,0.0,0.0,0.0,0.0,0.0,0.0,0.0,0.0,0.0,0.0,0.0,0.0,0.0,0.0,0.0,0.0,0.0,0.0,0.0,0.0,0.0,0.0,0.0,0.0,0.0,0.0,0.0,0.0,0.0,0.0,0.0,0.0,0.0,0.0,0.0,0.0,0.0,0.0,0.0,0.0,0.0,0.0,0.0,0.0,0.0,0.0,0.0,0.0,0.0,0.0,0.0,0.0,0.0,0.0,0.0,0.0,0.0,0.0,0.0,0.0,0.0,0.0,0.0,0.0,0.0,0.0,0.0,0.0,0.0,0.0,0.0,0.0,0.0,0.0,0.0,0.0,0.0,0.0,0.0,0.0,0.0,0.0,0.0,0.0,0.0,0.0,0.0,0.0,0.0,0.0,0.0,0.0,0.0,0.0,0.0,0.0,0.0,0.0,0.0,0.0,0.0,0.0,0.0,0.0,0.0,0.0,0.0,0.0,0.0,0.0,0.0,0.0,0.0,0.0,0.0,0.0,0.0,0.0,0.0,0.0,0.0,0.0,0.0,0.0,0.0,0.0,0.0,0.0,0.0,0.0,0.0,0.0,0.0,0.0,0.0,0.0,0.0,0.0,0.0,0.0,0.0,0.0,0.0,0.0,0.0,0.0,0.0,0.0,0.0,0.0,0.0,0.0,0.0,0.0,0.0,0.0,0.0,0.0,0.0,0.0,0.0,0.0,-6.0738,-5.9434,0.0,0.0,0.0,0.0,0.0,0.0,0.0,0.0,0.0,0.0,0.0,0.0,0.0,0.0,0.0,0.0,0.0,0.0,0.0,0.0,0.0,0.0,0.0,0.0,0.0,0.0,0.0,0.0,0.0,0.0,0.0,0.0,0.0,0.0,0.0,0.0,0.0,0.0,-6.5192,-6.4577,-6.3816,-6.378,-6.3563,-6.3265,0.0,0.0,0.0,0.0,0.0,0.0,0.0,0.0,0.0,0.0,0.0,0.0,0.0,0.0,0.0,0.0,0.0,0.0,0.0,0.0,0.0,0.0,0.0,0.0,0.0,0.0,0.0,0.0,0.0,0.0,0.0,0.0,0.0,0.0,0.0,0.0,0.0,0.0,0.0,0.0,0.0,0.0,0.0,0.0,0.0,0.0,0.0,0.0,0.0,0.0,0.0,0.0,0.0,0.0,0.0,0.0,0.0,0.0,0.0,0.0,0.0,0.0,0.0,0.0,0.0,0.0,0.0,0.0,0.0,0.0,-6.3816,-6.2114,0.0,0.0,0.0,0.0,0.0,0.0,0.0,0.0,0.0,0.0,0.0,0.0,0.0,0.0,0.0,0.0,0.0,0.0,0.0,0.0,0.0,0.0,0.0,0.0,-7.0154,-7.1603,-7.1857,0.0,0.0,0.0,0.0,0.0,0.0,0.0,0.0,-6.7438,-6.6533,-6.5591,-6.5881,-6.5337,-6.407,-6.512,-6.5192,-6.4432,-6.4396,0.0,0.0,0.0,0.0,0.0,0.0,0.0,0.0,0.0,0.0,0.0,0.0,0.0,0.0,0.0,0.0,0.0,0.0,0.0,0.0,0.0,0.0,0.0,0.0,0.0,0.0,0.0,0.0,0.0,0.0,0.0,0.0,0.0,0.0,0.0,0.0,0.0,0.0,0.0,0.0,0.0,0.0,0.0,0.0,0.0,0.0,0.0,0.0,0.0,0.0,0.0,0.0,0.0,0.0,0.0,0.0,0.0,0.0,0.0,0.0,0.0,0.0,0.0,-7.0335,-7.1494,-7.2726,-7.1965,-7.2183,-7.2943,-6.885,-6.6858,-6.6388,-6.5989,0.0,0.0,0.0,0.0,0.0,0.0,0.0,0.0,0.0,0.0,0.0,0.0,0.0,0.0,0.0,0.0,0.0,0.0,0.0,0.0,0.0,-7.0372,-7.1567,-7.2472,-7.3197,-7.3305,0.0,0.0,0.0,0.0,0.0,0.0,-6.9062,-6.8235,-6.7112,-6.5591,-6.7003,-6.7583,-6.7402,-6.9575,-7.0154,-6.9285,-6.5917,-6.5226,-6.6428,0.0,0.0,0.0,0.0,0.0,0.0,0.0,0.0,0.0,0.0,0.0,0.0,0.0,0.0,0.0,0.0,0.0,0.0,0.0,0.0,0.0,0.0,0.0,0.0,0.0,0.0,0.0,0.0,0.0,0.0,0.0,0.0,0.0,0.0,0.0,0.0,0.0,0.0,0.0,0.0,0.0,-6.2621,-6.2838,0.0,0.0,0.0,0.0,0.0,0.0,0.0,0.0,0.0,0.0,0.0,0.0,0.0,-6.8953,-6.9756,-7.2472,-7.3925,-7.4178,-7.642,-7.7543,-7.7724,-7.6927,-7.776,-7.9788,-7.8448,0.0,-6.9575,-6.751,0.0,0.0,0.0,0.0,0.0,0.0,0.0,0.0,0.0,0.0,0.0,0.0,0.0,0.0,0.0,0.0,0.0,0.0,0.0,0.0,0.0,-7.0589,-7.182,-7.2653,-7.3849,-7.4066,-7.2798,0.0,0.0,0.0,0.0,-6.9569,-6.9207,-6.751,-6.6533,-6.6279,-6.7438,-6.8452,-6.9358,-7.0408,-7.0915,-7.0951,-6.9176,-6.8083,-6.7446,-6.6433,0.0,0.0,0.0,0.0,0.0,0.0,0.0,0.0,0.0,0.0,0.0,0.0,0.0,0.0,0.0,0.0,0.0,0.0,0.0,0.0,0.0,0.0,0.0,0.0,0.0,0.0,0.0,0.0,0.0,0.0,0.0,0.0,0.0,0.0,0.0,0.0,0.0,0.0,0.0,-6.2223,-6.4215,-6.3309,-6.4722,-6.5084,0.0,0.0,0.0,0.0,0.0,0.0,0.0,0.0,0.0,-7.1422,-7.2146,-7.3342,-7.5044,-7.642,-7.7796,-7.9173,-8.0658,-8.1853,-8.2722,-8.1889,-8.236,-8.3772,-8.2939,-8.0766,-7.747,-7.3667,-7.0301,-6.7334,0.0,0.0,0.0,0.0,-6.3311,-6.3758,0.0,0.0,0.0,0.0,0.0,0.0,0.0,0.0,0.0,0.0,0.0,0.0,-6.9684,-7.135,-7.2762,-7.3559,-7.4718,-7.4826,-7.3414,-7.3486,0.0,0.0,0.0,-6.9026,-6.8561,-6.6822,-6.6496,-6.7728,-6.8923,-7.0335,-7.1893,-7.2327,-7.2798,-7.3342,-7.3342,-7.1797,-6.9151,-6.8325,-6.5914,-6.2562,0.0,0.0,0.0,0.0,0.0,0.0,0.0,0.0,0.0,0.0,0.0,0.0,0.0,0.0,0.0,0.0,0.0,0.0,0.0,0.0,0.0,0.0,0.0,0.0,0.0,0.0,0.0,0.0,0.0,0.0,0.0,0.0,0.0,0.0,0.0,0.0,0.0,-6.3418,-6.5555,-6.3708,-6.6351,-6.7112,0.0,0.0,0.0,0.0,0.0,0.0,-6.9792,-7.2074,-7.4356,-7.6567,-7.7036,-7.8231,-8.0223,-8.0621,-8.1817,-8.3809,-8.4605,-8.5728,-8.7068,-8.6489,-8.6525,-8.7068,-8.6452,-8.5506,-8.3943,-7.8746,-7.4111,-7.0126,-6.7901,-6.6427,-6.5575,-6.5739,-6.5845,-6.6068,0.0,0.0,0.0,0.0,0.0,0.0,0.0,0.0,0.0,0.0,0.0,-6.9684,-7.1205,-7.3523,-7.5261,-7.6058,-7.6167,-7.5877,-7.5011,-7.3595,-7.2074,-7.0517,-6.9678,-6.8452,-6.6967,-6.6786,-6.7873,-7.0191,-7.2509,-7.4428,-7.6022,-7.7579,-7.8303,-7.834,-7.834,-7.6152,-7.2262,-6.9264,-6.7458,-6.6321,-6.2633,0.0,0.0,0.0,0.0,0.0,0.0,0.0,0.0,0.0,0.0,0.0,0.0,0.0,0.0,0.0,0.0,0.0,0.0,0.0,0.0,0.0,0.0,0.0,0.0,0.0,0.0,0.0,0.0,0.0,0.0,0.0,0.0,0.0,0.0,0.0,0.0,0.0,0.0,-6.4613,-6.9104,0.0,0.0,0.0,0.0,-6.7836,-7.135,-7.3921,-7.4685,-7.7036,-7.91,-8.0766,-8.2287,-8.3483,-8.4388,-8.5873,-8.7032,-8.7899,-8.8734,-8.9531,-9.0364,-9.0328,-9.0328,-9.0364,-9.0328,-8.887,-8.6079,-7.9902,-7.5904,-7.3261,-6.9296,-6.6867,-6.5688,-6.6439,-6.6761,-6.6753,0.0,0.0,0.0,0.0,0.0,0.0,0.0,0.0,0.0,-6.7184,-6.8814,-7.0734,-7.2834,-7.5189,-7.7181,-7.8484,-7.8629,-7.805,-7.6746,-7.4208,-7.2065,-7.0485,-6.8658,-6.7662,-6.7553,-6.809,-7.0009,-7.3414,-7.479,-7.6782,-7.939,-7.9462,-7.9752,-8.0259,-8.0259,-7.8565,-7.5469,-7.2921,-6.935,-6.5267,-6.291,-6.0737,0.0,0.0,0.0,0.0,0.0,0.0,0.0,0.0,0.0,0.0,0.0,0.0,0.0,0.0,0.0,0.0,0.0,0.0,0.0,0.0,0.0,0.0,0.0,0.0,0.0,0.0,0.0,0.0,0.0,0.0,0.0,0.0,0.0,0.0,0.0,0.0,0.0,-7.1277,-7.4863,0.0,-7.2798,-7.2798,-7.2871,-7.2617,-7.5804,-7.8122,-7.8919,-8.1237,-8.3265,-8.4859,-8.5475,-8.6634,-8.8481,-8.8517,-8.8951,-8.9748,-9.0038,-9.0328,-9.0581,-8.994,-8.9612,-8.9569,-8.894,-8.7852,-8.6213,-8.2435,-7.9234,-7.6433,-7.413,-7.1864,-7.0011,-7.0284,-7.0703,-7.1041,0.0,0.0,0.0,0.0,0.0,0.0,0.0,0.0,-6.6677,-6.751,-6.9213,-7.1494,-7.4392,-7.6637,-7.8666,-8.0549,-7.9969,-7.8919,-7.7579,-7.4244,-7.1637,-7.0058,-6.8263,-6.777,-6.8814,-7.0118,-7.2581,-7.6311,-7.7398,-7.9136,-8.1491,-8.1237,-8.1418,-8.1889,-8.1635,-8.0252,-7.7978,-7.623,-7.2014,-6.6277,-6.3725,-6.2231,-6.1204,0.0,0.0,0.0,0.0,0.0,0.0,0.0,0.0,0.0,0.0,0.0,0.0,0.0,0.0,0.0,0.0,0.0,0.0,0.0,0.0,0.0,0.0,0.0,0.0,0.0,0.0,0.0,0.0,0.0,0.0,0.0,0.0,0.0,0.0,-7.0625,-7.4826,-7.6167,-7.9643,-8.0875,-7.8195,-7.7941,-7.7833,-7.7543,-8.0259,-8.2287,-8.3048,-8.5112,-8.6887,-8.8191,-8.8227,-8.8988,-9.0581,-9.0074,-9.0074,-9.0618,-9.0263,-9.01,-9.0058,-8.9063,-8.8588,-8.8544,-8.7875,-8.713,-8.6158,-8.4377,-8.1918,-7.9068,-7.7446,-7.5293,-7.3206,-7.3747,-7.3883,-7.3781,0.0,0.0,0.0,0.0,0.0,0.0,0.0,-6.5641,-6.646,-6.8845,-6.9932,-7.1965,-7.5949,-7.7869,-7.9788,-8.2143,-8.0151,-7.8376,-7.7543,-7.3671,-7.0739,-6.9249,-6.8386,-6.8784,-7.0517,-7.2798,-7.5587,-7.8883,-8.044,-8.1599,-8.2432,-8.3193,-8.3555,-8.3519,-8.2722,-8.145,-7.9757,-7.9007,-7.5481,-6.9961,-6.5366,-6.4734,-6.6101,0.0,0.0,0.0,0.0,0.0,0.0,0.0,0.0,0.0,0.0,0.0,0.0,0.0,0.0,0.0,0.0,0.0,0.0,0.0,0.0,0.0,0.0,0.0,0.0,0.0,0.0,0.0,0.0,0.0,0.0,0.0,0.0,0.0,-6.8162,-7.3667,-7.7977,-7.8883,-8.3157,-8.4823,-8.1672,-8.2794,-8.3374,-8.2577,-8.4714,-8.638,-8.7141,-8.8589,-8.9785,-9.0581,-9.0581,-9.0581,-9.0581,-9.0581,-9.0581,-9.0541,-8.9569,-8.9063,-8.8984,-8.8012,-8.7515,-8.7515,-8.7504,-8.69,-8.5915,-8.5403,-8.3616,-8.0987,-7.8905,-7.6705,-7.4864,-7.6352,-7.5912,-7.4627,0.0,0.0,0.0,0.0,0.0,0.0,0.0,-6.4859,-6.6062,-6.7293,-7.0154,-7.3595,-7.7615,-8.0513,-8.2686,-8.3917,-8.1309,-7.8992,-7.7579,-7.2194,-6.8844,-6.8414,-6.7625,-6.9537,-7.4573,-7.5297,-7.805,-8.3048,-8.2903,-8.3809,-8.5692,-8.5402,-8.5221,-8.5221,-8.4388,-8.3396,-8.2223,-8.0905,-7.8659,-7.5533,-6.9876,-6.6617,-6.4914,0.0,0.0,0.0,0.0,0.0,0.0,0.0,0.0,0.0,0.0,0.0,0.0,0.0,0.0,0.0,0.0,0.0,0.0,0.0,0.0,0.0,0.0,0.0,0.0,0.0,0.0,0.0,0.0,0.0,0.0,0.0,-6.9417,-7.3776,-7.3993,-7.8014,-8.2106,-8.5221,-8.7793,-8.8734,-8.7249,-8.8046,-8.83,-8.7503,-8.8589,-8.964,-9.0436,-9.0364,-9.0364,-9.0581,-9.0581,-9.0581,-9.0581,-9.0581,-9.0222,-8.9527,-8.9236,-8.8437,-8.7201,-8.6738,-8.622,-8.5686,-8.5513,-8.466,-8.3347,-8.2663,-8.1338,-7.9684,-7.9789,-7.8381,-7.6318,-7.6758,-7.5912,-7.4695,0.0,0.0,0.0,0.0,0.0,0.0,0.0,-6.4504,-6.5736,-6.7547,-7.0661,-7.4102,-7.7796,-8.0476,-8.2324,-8.312,-8.0549,-7.8086,-7.613,-7.1647,-6.8614,-6.7609,-6.9689,-7.2873,-7.7217,-7.8629,-8.1418,-8.5692,-8.5221,-8.5656,-8.7032,-8.6923,-8.6851,-8.6813,-8.5598,-8.4394,-8.3116,-8.1458,-7.9757,-7.7831,-7.3998,-7.1119,-6.8929,-6.5833,-6.4748,-6.4658,-6.3411,-6.3694,-6.4323,-6.2215,0.0,0.0,0.0,0.0,0.0,0.0,0.0,0.0,0.0,0.0,0.0,0.0,0.0,0.0,0.0,0.0,0.0,0.0,0.0,0.0,0.0,0.0,0.0,0.0,-7.3365,-7.8387,-8.055,-8.3084,-8.6018,-8.9314,-9.0439,-9.0934,-9.0903,-9.0655,-9.0573,-9.0867,-9.1016,-9.1306,-9.1776,-9.1378,-9.0943,-9.0618,-9.0943,-9.0746,-8.9981,-9.0341,-8.9807,-8.8454,-8.8012,-8.734,-8.6307,-8.5715,-8.5036,-8.4352,-8.4193,-8.349,-8.234,-8.1257,-8.0513,-7.9954,0.0,0.0,0.0,0.0,-7.5168,-7.4187,0.0,0.0,0.0,0.0,0.0,0.0,0.0,-6.4315,-6.5475,-6.841,-7.106,-7.3812,-7.6637,-7.8629,-8.0042,-8.0658,-7.834,-7.5804,-7.3414,-7.1277,-6.943,-6.7945,-7.345,-7.7434,-7.9354,-8.2324,-8.504,-8.7358,-8.7322,-8.7322,-8.743,-8.8155,-8.8481,-8.8405,-8.6675,-8.4989,-8.3385,-8.1607,-7.9896,-7.8341,-7.7595,-7.655,-7.4958,-7.0309,-6.9567,-7.0731,-6.8251,-6.6664,-6.5632,-6.4599,0.0,0.0,0.0,0.0,0.0,0.0,0.0,0.0,0.0,0.0,0.0,0.0,0.0,0.0,0.0,0.0,0.0,0.0,0.0,0.0,0.0,0.0,0.0,0.0,-7.7103,-8.183,-8.6391,-8.7884,-8.934,-9.1451,-9.1619,-9.1836,-9.2621,-9.1419,-9.1262,-9.2838,-9.212,-9.1691,-9.1921,-9.1659,0.0,0.0,0.0,-9.0809,-8.9106,-8.9804,-8.9234,-8.741,-8.6532,-8.6037,-8.5783,-8.4961,-8.42,-8.349,-8.349,-8.3016,-8.2171,-8.0682,-8.031,-8.0479,-7.8686,-7.7468,-7.6589,-7.5134,-7.4119,-7.3477,0.0,0.0,0.0,0.0,0.0,0.0,0.0,-6.3812,-6.5037,-6.6308,-7.0107,-7.2943,-7.3559,-7.6818,-7.8738,-7.8231,-7.479,-7.1675,-6.9321,-6.8742,-7.0263,-7.4283,-7.6891,-7.9897,-8.3446,-8.5366,-8.7177,-8.8951,-8.8951,-8.9277,-8.9893,-9.0074,-9.0147,-9.0074,-8.8429,-8.7115,-8.5963,-8.4294,-8.2549,-8.0837,-8.0115,-7.7451,-7.3806,-7.2819,-7.1213,-6.9467,-6.9555,-7.1018,-7.2582,-6.9947,-7.0887,-7.2473,-6.844,0.0,0.0,0.0,0.0,0.0,0.0,0.0,0.0,0.0,0.0,0.0,0.0,0.0,0.0,0.0,0.0,0.0,0.0,0.0,0.0,-7.4752,-8.0281,-8.4696,-8.6382,-8.9031,-9.0802,-9.0827,-9.1361,-9.1505,-9.0839,-9.1811,-9.2508,-9.2701,-9.1368,-9.1246,-9.2677,-9.0792,-8.9917,-9.0578,-9.057,-9.0057,-8.9106,-8.9088,-8.8168,-8.6385,-8.6187,0.0,-8.4008,-8.4442,-8.42,-8.349,-8.349,-8.2746,-8.1393,-7.9938,-7.8314,-7.686,-7.7671,-7.713,-7.5811,-7.4931,-7.4119,-7.3477,0.0,0.0,0.0,0.0,0.0,0.0,0.0,-6.3575,-6.4556,-6.6191,-6.905,-7.1241,-7.2038,-7.4247,-7.5225,-7.403,-7.0987,-6.8995,-6.8597,-7.0082,-7.2545,-7.613,-7.9752,-8.2867,-8.537,-8.7251,-8.8846,-9.016,-9.0041,-9.0219,-9.0581,-9.0581,-9.0581,-9.0545,-8.923,-8.7956,-8.6709,-8.5331,-8.3496,-8.1556,-8.1063,-7.9075,-7.6313,-7.6439,-7.5829,-7.4891,-7.499,-7.5508,-7.5905,-7.3982,-7.4138,-7.4609,-7.182,-6.9353,-6.689,0.0,0.0,0.0,0.0,0.0,0.0,0.0,0.0,0.0,0.0,0.0,0.0,0.0,0.0,-6.3981,-6.5852,0.0,-7.5708,-7.8354,-8.2952,-8.6412,-8.6989,-8.837,-8.9436,-8.9689,-9.086,-9.1269,-9.0284,-9.0641,-9.1033,-9.1426,-9.0748,-9.0859,-9.2194,-9.101,-9.0458,-9.0965,-9.0375,-8.97,-8.8957,-8.833,-8.7394,-8.6087,-8.56,-8.4896,-8.4065,-8.4437,-8.3998,-8.2949,-8.2543,-8.1765,-8.0648,-7.9566,-7.7773,-7.5777,-7.6555,-7.6386,-7.5608,-7.4864,-7.4119,-7.3443,0.0,0.0,0.0,0.0,0.0,0.0,0.0,0.0,-6.4412,-6.6377,-6.816,-6.96,-7.0511,-7.1313,-7.1024,-6.914,-6.78,-6.7728,-6.9352,-7.24,-7.5225,-7.7579,-8.2505,-8.5805,-8.7081,-8.8962,-9.0414,-9.1448,-9.1212,-9.106,-9.0915,-9.0835,-9.0762,-9.0541,-8.9594,-8.8385,-8.6952,-8.5636,-8.3901,-8.1991,-8.151,-8.0733,-7.9794,-7.9806,-8.0116,-8.0419,-7.9575,-7.8381,-7.7083,-7.6514,-7.5559,-7.45,-7.3849,-7.2653,-7.0753,-6.6717,-6.4888,0.0,0.0,0.0,0.0,0.0,0.0,0.0,0.0,-6.1396,-6.2004,-6.4137,-6.5997,-6.8116,-7.0984,-7.5663,-7.9796,-8.1996,-8.5164,-8.7398,-8.7558,-8.7518,-8.7669,-8.814,-8.9728,-9.0508,-8.9917,-8.9233,-8.9187,-9.0095,-9.0062,-9.0339,-9.1167,-9.0834,-9.0682,-9.0899,-8.9894,-8.9017,-8.8283,-8.7442,-8.6576,-8.577,-8.4995,-8.464,-8.464,-8.464,-8.3896,-8.2577,-8.1663,-8.0716,-7.9735,-7.9126,-7.7536,-7.5473,-7.5473,-7.5405,-7.5168,-7.4458,-7.3713,-7.2969,0.0,0.0,0.0,0.0,0.0,0.0,0.0,0.0,0.0,-6.5184,-6.7672,-6.8916,-6.7644,-6.8143,-6.7329,-6.4251,-6.6388,-6.8561,-7.0185,-7.3233,-7.7289,-8.2468,-8.5366,-8.7944,-9.0316,-9.1294,-9.2321,-9.3394,-9.3121,-9.2602,-9.1948,-9.1748,-9.1269,-9.0581,-8.9741,-8.8788,-8.775,-8.6018,-8.4635,-8.3521,-8.1918,-8.1728,-8.2253,-8.1591,-8.0628,-7.9383,-7.795,-7.6912,-7.6329,-7.6299,-7.666,-7.7072,-7.7,-7.6348,-7.4738,-7.0204,-6.593,-6.1934,-5.8768,-5.7906,-5.8743,-6.193,-6.2312,-6.3447,0.0,-7.0589,-7.0664,-7.1976,-7.4627,-7.6633,-7.6239,-7.9327,-8.2547,-8.4353,-8.6505,-8.7809,-8.7398,-8.7897,-8.7727,-8.6307,-8.7255,-8.8181,-8.8562,-8.8907,-8.9219,-8.9669,-8.9214,-8.9284,-9.0022,-8.8607,-8.8196,-8.9061,-8.8132,-8.7204,-8.6409,-8.6093,-8.5565,-8.4766,-8.466,-8.464,-8.464,-8.464,-8.4167,-8.3287,-8.19,-8.0107,-7.8213,-7.8145,-7.6792,-7.4728,-7.4728,-7.4322,-7.3646,-7.2902,-7.2191,-7.1548,0.0,0.0,0.0,0.0,0.0,0.0,0.0,0.0,0.0,0.0,-6.6352,-6.7237,-6.7019,-6.633,-6.5156,-6.3345,-6.5301,-6.8114,-7.1682,-7.4783,-7.9026,-8.4754,-8.6896,-8.8678,-9.0363,-9.1048,-9.1963,-9.3186,-9.2645,-9.2558,-9.2787,-9.2115,-9.1632,-9.1269,-9.0473,-8.9585,-8.8752,-8.7864,-8.6789,-8.5496,-8.4668,-8.3992,-8.3461,-8.2196,-8.0518,-7.8622,-7.6629,-7.5278,0.0,0.0,-7.4222,-7.5251,-7.6933,-7.5747,-7.3105,-7.0198,-6.6381,-6.2802,-6.145,-6.1418,-6.219,-6.419,-6.6469,-6.912,-7.2546,-7.3737,-7.4712,-7.6598,-7.8592,-8.0043,-8.0106,-8.2813,-8.5139,-8.5443,-8.7267,-8.8121,-8.6636,-8.7064,-8.6632,-8.4118,-8.5036,-8.654,-8.8243,-8.8196,-8.8098,-8.8242,-8.7627,-8.7735,-8.8966,-8.8906,-8.915,-8.989,-8.8653,-8.7777,-8.7416,-8.5849,-8.523,-8.5447,-8.489,-8.464,-8.464,-8.464,-8.3524,-8.1562,-8.1359,-7.9532,-7.6724,-7.7604,-7.6657,-7.4559,-7.4119,-7.351,-7.2868,-7.3003,-7.2563,-7.1954,0.0,0.0,0.0,0.0,0.0,0.0,0.0,0.0,0.0,0.0,0.0,-6.6183,-6.6271,-6.5141,-6.3997,-6.2947,-6.4352,-6.7302,-7.2029,-7.5241,-7.9634,-8.5592,-8.7374,-8.9161,-9.1065,-9.1314,-9.212,-9.3523,-9.2727,-9.2566,-9.3012,-9.2187,-9.1668,-9.1451,-9.0871,-9.0292,-8.9709,-8.9276,-8.8464,-8.7379,-8.6742,-8.5606,-8.3946,-8.1901,-7.9258,-7.6343,-7.4229,-7.2289,0.0,0.0,-6.9522,-7.0686,-7.3496,-7.2753,-7.0552,-6.889,-6.5512,-6.2399,-6.2691,-6.3721,-6.5189,-6.733,-7.1119,-7.4752,-7.6443,-7.7665,-7.9196,-8.1607,-8.2369,-8.2938,-8.3959,-8.5505,-8.6576,-8.6525,-8.7803,-8.8158,-8.6366,-8.6399,-8.5486,-8.2475,-8.2881,-8.4279,-8.6526,-8.7108,-8.7296,-8.7212,-8.7091,-8.7383,-8.8259,-8.8808,-8.9343,-8.9941,-8.8259,-8.7418,-8.7692,-8.5623,-8.4943,-8.5702,-8.4943,-8.464,-8.4553,-8.4403,-8.2915,-8.0513,-8.0851,-7.8957,-7.5777,-7.6893,-7.6014,-7.395,-7.3409,-7.2732,-7.2157,-7.2699,-7.2563,-7.209,0.0,0.0,0.0,0.0,0.0,0.0,0.0,0.0,0.0,0.0,0.0,0.0,0.0,-6.4432,-6.3744,-6.2159,-6.3638,-6.6336,-7.0399,-7.3796,-7.8519,-8.497,-8.6757,-8.9603,-9.3777,-9.3155,-9.3597,-9.5399,-9.4173,-9.3175,-9.2407,-9.2014,-9.1378,-9.0654,-9.0618,-9.0581,-9.0505,-8.9527,-8.907,-8.8877,-8.7166,-8.5526,-8.3761,-8.0665,-7.6333,-7.1701,-7.001,0.0,0.0,0.0,-6.2261,-6.3314,-6.5783,-6.7515,0.0,-6.6582,-6.2784,0.0,-6.0897,-6.3009,-6.6235,-7.2181,-7.6085,-7.9438,-8.3218,-8.4648,-8.5782,-8.81,-8.7207,-8.6523,-8.8273,-8.7108,-8.637,-8.8037,-8.8155,-8.7753,-8.6974,-8.6264,-8.4708,-8.1663,-8.075,-8.0919,-8.2459,-8.5446,-8.7212,-8.6914,-8.846,-8.8977,-8.8066,-8.7334,-8.73,-8.8045,-8.5912,-8.51,-8.5844,-8.5012,-8.464,-8.466,-8.4606,-8.464,-8.4606,-8.3862,-8.2678,-8.1224,-8.0513,-7.8517,-7.5709,-7.5743,-7.4458,-7.2462,-7.2428,-7.1988,-7.1345,-7.1379,-7.1379,-7.1345,0.0,0.0,0.0,0.0,0.0,0.0,0.0,0.0,0.0,0.0,0.0,0.0,0.0,0.0,0.0,0.0,-6.3565,-6.5884,-6.9012,-7.2723,-7.6797,-8.1237,-8.4489,-8.7375,-8.9898,-9.074,-9.2022,-9.3932,-9.315,-9.2957,-9.3175,-9.2391,-9.1752,-9.1378,-9.0835,-9.0581,-9.0581,-9.0222,-8.9775,-8.9163,-8.7541,-8.5912,-8.4083,-8.0352,-7.5298,-6.9669,0.0,0.0,0.0,0.0,0.0,0.0,-6.0614,0.0,0.0,-5.8662,0.0,0.0,-6.3592,-6.7565,-7.2117,-7.6722,-8.0695,-8.4191,-8.7076,-8.8606,-8.9298,-8.9094,-8.7106,-8.5131,-8.4188,-8.3392,-8.3342,-8.4896,-8.6365,-8.7347,-8.7617,-8.7414,-8.5587,-8.1088,-8.1629,-8.1629,-7.9667,-8.1817,-8.4316,-8.6704,-8.6486,-8.654,-8.7211,-8.7219,-8.7204,-8.7245,-8.6707,-8.6214,-8.579,-8.5012,-8.464,-8.4553,-8.4099,-8.4133,-8.4573,-8.2813,-8.1494,-8.0513,-7.9803,-7.7773,-7.5067,-7.6082,-7.4864,-7.2462,-7.2935,-7.2394,-7.1312,-7.1312,-7.1312,-7.1312,0.0,0.0,0.0,0.0,0.0,0.0,0.0,0.0,0.0,0.0,0.0,0.0,0.0,0.0,0.0,0.0,0.0,-6.4821,-6.7494,-7.0369,-7.3599,-7.7265,-8.0158,-8.2611,-8.4515,-8.5284,-8.6673,-8.8793,-8.8399,-8.8727,-8.9747,-8.9302,-8.9001,-8.8843,-8.8879,-8.8915,-8.8951,-8.9205,-8.8517,-8.7104,-8.5257,-8.3048,-8.0369,-7.6144,-7.0991,0.0,0.0,0.0,0.0,0.0,0.0,0.0,0.0,0.0,0.0,0.0,0.0,0.0,-6.7598,-7.2472,-7.7343,-8.178,-8.5475,-8.8481,-9.0292,-9.0642,-9.0264,-8.9025,-8.5541,-8.2336,-8.1215,-7.9015,-7.8356,-8.1611,-8.2292,-8.3527,-8.6477,-8.6107,-8.4437,-8.1359,-8.1765,-8.1494,-7.9363,-8.0445,-8.2746,-8.623,-8.5587,-8.5689,-8.7211,-8.6928,-8.6965,-8.7245,-8.6707,-8.6264,-8.6163,-8.5148,-8.464,-8.4553,-8.4133,-8.3998,-8.4167,-8.2475,-8.0987,-7.9769,-7.9025,-7.6995,-7.4289,-7.527,-7.4221,-7.2056,-7.2529,-7.2124,-7.1312,-7.1312,-7.1312,-7.1312,0.0,0.0,0.0,0.0,0.0,0.0,0.0,0.0,0.0,0.0,0.0,0.0,0.0,0.0,0.0,0.0,0.0,0.0,-6.5752,-6.6866,-6.92,-7.3156,-7.4258,-7.5909,-7.8295,-7.7635,-7.8405,-8.0755,-8.0561,-8.1127,-8.2381,-8.2973,-8.3193,-8.312,-8.4678,-8.5366,-8.5438,-8.6163,-8.5075,-8.2758,-8.0405,-7.711,-7.3103,-6.8554,0.0,0.0,0.0,0.0,0.0,0.0,0.0,0.0,0.0,0.0,0.0,0.0,0.0,-6.5607,-7.2653,-7.7522,-8.1798,-8.7022,-9.011,-9.203,-9.2682,-9.0864,-8.8834,-8.7956,-8.2552,-7.8311,-7.917,-7.4302,-7.2181,-7.8342,-7.6861,-7.7298,-8.3968,-8.3007,-8.1832,-8.234,-8.1257,-8.0682,-8.1224,-8.1359,-8.2611,-8.5554,-8.579,-8.6433,-8.7854,-8.6569,-8.6433,-8.7854,-8.5757,-8.5351,-8.6839,-8.5384,-8.464,-8.464,-8.4539,-8.4167,-8.3456,-8.2577,-8.1054,-7.9058,-7.8247,-7.6217,-7.3477,-7.3544,-7.2665,-7.1312,-7.1345,-7.1345,-7.1312,-7.1312,-7.1312,-7.1312,0.0,0.0,0.0,0.0,0.0,0.0,0.0,0.0,0.0,0.0,0.0,0.0,0.0,0.0,0.0,0.0,0.0,0.0,-6.3282,-6.5404,-6.7112,-6.8274,-7.1394,-7.3707,-7.4918,-7.5909,-7.6717,-7.7341,-7.7279,-7.7014,-7.6546,-7.67,-7.6941,-7.7289,-7.7688,-7.8195,-7.8738,-7.8955,-7.7735,-7.5512,-7.3716,-7.1634,-6.9275,0.0,0.0,0.0,0.0,0.0,0.0,0.0,0.0,0.0,0.0,-5.7044,-5.9777,0.0,-6.741,-7.1936,-7.7773,-8.3079,-8.7528,-8.9491,-9.1342,-9.2284,-9.069,-8.9332,-8.7256,-8.3022,-7.7937,-7.3501,-7.0864,-6.9873,-7.0812,-7.5151,-7.7944,-8.119,-8.5739,-8.6325,-8.5317,-8.2712,-8.3558,-8.3558,-8.1494,-8.2272,-8.3727,-8.5655,-8.579,-8.6196,-8.7144,-8.6298,-8.596,-8.6332,-8.5215,-8.508,-8.6061,-8.5114,-8.464,-8.4606,-8.349,-8.3152,-8.3389,-8.0445,-7.9126,-7.8991,-7.7096,-7.5236,-7.3544,-7.4086,-7.3138,-7.1379,-7.1921,-7.1785,-7.1312,-7.1312,-7.1312,-7.1312,0.0,0.0,0.0,0.0,0.0,0.0,0.0,0.0,0.0,0.0,0.0,0.0,0.0,0.0,0.0,0.0,0.0,0.0,0.0,-6.43,-6.5018,-6.4872,-6.7063,-6.8458,-6.8898,-6.9816,-7.0991,-7.2422,-7.1631,-7.1787,-7.2826,-7.2036,-7.1962,-7.2545,-7.3233,-7.3595,-7.3704,-7.4066,-7.2709,0.0,0.0,-6.6124,-6.4633,0.0,0.0,0.0,0.0,0.0,0.0,0.0,0.0,-5.8597,-6.06,-6.2639,-6.5251,-7.0123,0.0,-7.7809,-8.3264,-8.7793,-9.1088,-9.1559,-9.232,-9.203,-8.8191,-8.6225,-8.332,-7.6768,-7.1938,-6.7922,-6.4691,-6.4405,-6.6328,-7.1411,-7.4602,-7.853,-8.4641,-8.5245,-8.5012,-8.4877,-8.5689,-8.5621,-8.393,-8.4505,-8.5215,-8.5757,-8.5452,-8.5621,-8.6366,-8.5689,-8.5452,-8.5757,-8.5046,-8.4843,-8.5283,-8.4843,-8.464,-8.4606,-8.3456,-8.2949,-8.2915,-8.0209,-7.8822,-7.8517,-7.6927,-7.5202,-7.351,-7.395,-7.3003,-7.1345,-7.1751,-7.1684,-7.1312,-7.1312,-7.1312,-7.1312,0.0,0.0,0.0,0.0,0.0,0.0,0.0,0.0,0.0,0.0,-6.403,0.0,0.0,0.0,0.0,0.0,0.0,0.0,0.0,0.0,0.0,-6.2792,-6.289,-6.2964,-6.2902,-6.3074,-6.4395,-6.7,-6.55,-6.6327,-6.9296,-6.7687,-6.7288,-6.8011,-6.9321,-6.9611,-6.9176,-6.9937,-6.8536,-6.5662,-6.2946,-6.1315,-6.0241,0.0,0.0,0.0,0.0,0.0,0.0,0.0,-6.2394,-6.2474,-6.6753,-6.9457,-7.2245,-7.7984,-8.0875,-8.3338,-8.8481,-9.1559,-9.3261,-9.3044,-9.2863,-9.1197,-8.5511,-8.2205,-7.8128,-7.0259,-6.5652,-6.2298,-5.9875,-5.9204,-6.1227,-6.8091,-7.0115,-7.3855,-8.2737,-8.2751,-8.3321,-8.7245,-8.7414,-8.7144,-8.6941,-8.7177,-8.6941,-8.5993,-8.5317,-8.5182,-8.5757,-8.5148,-8.5046,-8.5621,-8.508,-8.4742,-8.464,-8.464,-8.464,-8.4606,-8.3761,-8.3016,-8.2374,-8.0784,-7.9295,-7.7942,-7.7198,-7.5642,-7.3612,-7.3544,-7.2699,-7.1447,-7.1345,-7.1312,-7.1312,-7.1312,-7.1312,-7.1312,0.0,0.0,0.0,0.0,0.0,0.0,0.0,0.0,0.0,0.0,-6.463,-6.4275,0.0,0.0,0.0,0.0,0.0,0.0,0.0,0.0,0.0,0.0,-6.3452,-6.3819,-6.3617,-6.4416,-6.4406,-6.3496,-6.3178,-6.2584,-6.1703,-6.0695,-6.0617,-6.1281,-6.1534,-6.1969,-6.2512,-6.3281,-6.263,-6.1019,-5.9866,-5.9277,0.0,0.0,0.0,0.0,0.0,0.0,0.0,0.0,-6.7625,-7.0085,-7.2821,-7.6646,-8.0659,-8.3735,-8.6235,-8.8589,-9.1559,-9.366,-9.4638,-9.3334,-9.1994,-8.9386,-8.3157,-7.8459,0.0,-6.6097,-6.1597,-5.8288,-5.5996,-5.7448,-6.1201,-6.8006,-7.1774,-7.6536,-8.431,-8.5187,-8.5283,-8.6061,-8.7651,-8.8226,-8.7042,-8.8564,-8.8835,-8.6873,-8.6602,-8.6298,-8.5824,-8.5655,-8.5351,-8.4843,-8.5317,-8.5283,-8.464,-8.464,-8.464,-8.4606,-8.3253,-8.2543,-8.234,-8.0242,-7.8822,-7.7942,-7.7198,-7.5946,-7.4356,-7.3747,-7.2969,-7.2157,-7.1548,-7.1312,-7.1312,-7.1312,-7.1312,-7.1312,0.0,0.0,0.0,0.0,0.0,0.0,0.0,-6.4601,-6.5149,-6.649,-6.7036,-6.6728,-6.5194,-6.3782,-6.3238,0.0,0.0,0.0,0.0,0.0,0.0,0.0,0.0,0.0,0.0,-6.4898,-6.5091,-6.5128,0.0,-6.2973,-6.2876,-6.1161,-6.0537,-6.0883,-6.1281,-6.1462,-6.1435,-6.1833,-6.137,-6.0264,-5.917,-5.9173,0.0,0.0,0.0,0.0,0.0,0.0,0.0,0.0,-6.8488,-7.2871,-7.6963,-8.0947,-8.4714,-8.7503,-8.9748,-9.1704,-9.3696,-9.5109,-9.5543,-9.3515,-9.0871,-8.6851,-7.9643,0.0,0.0,-6.1386,-5.7964,-5.5791,-5.4296,-5.6427,-6.0013,-6.4816,-6.8064,-7.2732,-8.0615,-8.1393,-8.2611,-8.6467,-8.755,-8.782,-8.7516,-8.8429,-8.8294,-8.6467,-8.6332,-8.5993,-8.5215,-8.5182,-8.5012,-8.464,-8.4979,-8.5012,-8.464,-8.464,-8.464,-8.4606,-8.3118,-8.2408,-8.234,-8.0513,-7.9261,-7.8517,-7.7773,-7.6589,-7.5134,-7.439,-7.3409,-7.236,-7.2022,-7.165,-7.1312,-7.1312,-7.1312,-7.1312,0.0,0.0,0.0,0.0,0.0,0.0,0.0,-6.5908,-6.6765,-6.8845,-6.9529,-6.9107,-6.7195,-6.5432,-6.4548,0.0,0.0,0.0,0.0,0.0,0.0,0.0,0.0,0.0,0.0,0.0,0.0,-6.7131,-6.4977,0.0,0.0,0.0,0.0,0.0,-6.2911,-6.2838,-6.2295,-6.244,-6.215,0.0,0.0,-6.0352,0.0,0.0,0.0,0.0,0.0,0.0,0.0,0.0,-6.78,-7.2545,-7.7507,-8.2432,-8.6851,-8.9169,-9.1704,-9.4058,-9.529,-9.6231,-9.6268,-9.3877,-8.9857,-8.4497,-7.6821,-7.0615,0.0,-5.7886,-5.5361,-5.4194,-5.3619,-5.5513,-5.8321,-6.1806,-6.4106,-6.8402,-7.6792,-7.7638,-7.9904,-8.6704,-8.7177,-8.7211,-8.7922,-8.8125,-8.7617,-8.6129,-8.5723,-8.5283,-8.464,-8.4776,-8.4809,-8.464,-8.464,-8.464,-8.464,-8.464,-8.464,-8.4606,-8.3287,-8.2543,-8.2374,-8.1054,-7.9938,-7.9058,-7.8314,-7.7198,-7.5879,-7.4999,-7.3815,-7.2631,-7.2462,-7.1954,-7.1312,-7.1312,-7.1312,-7.1312,0.0,0.0,0.0,0.0,0.0,0.0,0.0,-6.6236,-6.7853,-7.109,-7.0908,-7.0205,-6.9398,-6.783,-6.659,0.0,0.0,0.0,0.0,0.0,0.0,0.0,0.0,0.0,0.0,0.0,0.0,-6.5985,-6.5842,0.0,0.0,0.0,0.0,0.0,0.0,-6.3164,-6.3128,-6.3852,0.0,0.0,0.0,0.0,0.0,0.0,0.0,0.0,0.0,0.0,0.0,0.0,0.0,-6.8887,-7.1567,-7.9571,-8.7937,-8.7539,0.0,0.0,-9.6449,-9.7064,-9.7101,-9.471,-8.9459,-8.3193,-7.6601,0.0,-6.2619,-5.7535,-5.4948,-5.3585,-5.3518,-5.4262,-5.6528,-6.1569,-6.37,-6.7793,-7.6724,-7.8517,-8.0682,-8.5418,-8.6535,-8.7211,-8.7922,-8.8598,-8.8395,-8.6907,-8.552,-8.4708,-8.464,-8.5283,-8.5351,-8.464,-8.464,-8.464,-8.464,-8.464,-8.464,-8.4606,-8.3795,-8.305,-8.2374,-8.1562,-8.0412,-7.9058,-7.8314,-7.7536,-7.669,-7.5202,-7.4119,-7.3308,-7.2665,-7.1954,-7.1312,-7.1312,-7.1312,-7.1312,0.0,0.0,0.0,0.0,0.0,0.0,-6.5881,-6.617,-6.7613,-7.1806,-7.206,-7.1734,-7.15,-7.0138,-6.8247,-6.5678,0.0,0.0,0.0,0.0,0.0,0.0,0.0,0.0,0.0,0.0,-6.6902,-6.651,-6.6482,0.0,0.0,0.0,0.0,0.0,0.0,-6.4649,-6.4649,-6.4975,0.0,0.0,0.0,0.0,0.0,0.0,0.0,0.0,0.0,0.0,-6.0388,-6.1579,0.0,0.0,-6.5229,-7.1096,0.0,0.0,-8.7684,-9.2175,-9.5072,-9.6811,-9.7209,-9.4819,-8.8698,-8.1599,-7.5289,0.0,-6.0909,-5.6206,-5.4314,-5.3518,-5.3518,-5.3754,-5.4905,-5.7881,-5.849,0.0,-6.8842,-7.0567,-7.3883,-8.1528,-8.3084,-8.4708,-8.7719,-8.7854,-8.7516,-8.6941,-8.6738,-8.6264,-8.5384,-8.5182,-8.4945,-8.464,-8.464,-8.464,-8.464,-8.464,-8.4403,-8.393,-8.3186,-8.2441,-8.1697,-8.0953,-8.031,-7.9735,-7.8991,-7.8247,-7.7468,-7.642,-7.4999,-7.3443,-7.3172,-7.2326,-7.1312,-7.1312,-7.1312,-7.1312,0.0,0.0,0.0,0.0,0.0,-6.2992,-6.5989,-6.6388,-6.7764,-7.182,-7.2545,-7.2617,-7.2364,-7.0827,-6.8793,-6.6236,-6.6053,0.0,0.0,0.0,0.0,0.0,0.0,0.0,0.0,0.0,-6.6983,-6.7295,-6.7237,-6.7026,0.0,0.0,-6.6025,-6.5482,0.0,0.0,0.0,0.0,0.0,0.0,0.0,0.0,0.0,0.0,0.0,0.0,0.0,0.0,0.0,0.0,0.0,0.0,0.0,0.0,0.0,0.0,-8.312,-8.8155,-9.2718,-9.5326,-9.6268,-9.4348,-8.7492,-7.9756,0.0,0.0,-5.9467,-5.5242,-5.3913,-5.3518,-5.3518,-5.3518,-5.3923,0.0,0.0,-5.7442,-6.3734,-6.5595,-6.9383,-7.757,-7.9194,-8.1393,-8.5926,-8.6873,-8.7042,-8.6602,-8.7042,-8.6771,-8.552,-8.4911,-8.464,-8.464,-8.464,-8.464,-8.464,-8.4403,-8.4031,-8.349,-8.2746,-8.2002,-8.1257,-8.075,-8.0412,-8.0175,-7.9431,-7.8686,-7.7942,-7.7198,-7.554,-7.3477,-7.3477,-7.2597,-7.1312,-7.1312,-7.1312,-7.1312,0.0,0.0,0.0,0.0,0.0,0.0,-6.5229,-6.6967,-6.885,-7.1205,-7.2219,-7.24,-7.1603,-6.943,-6.8077,-6.8153,-6.7011,0.0,0.0,0.0,0.0,0.0,0.0,0.0,0.0,0.0,-6.7332,-6.7981,-6.813,-6.8529,-6.9171,-6.8343,-6.7981,-6.7945,0.0,0.0,0.0,0.0,0.0,0.0,0.0,0.0,0.0,0.0,0.0,0.0,0.0,0.0,0.0,0.0,0.0,0.0,0.0,0.0,0.0,0.0,-7.8484,-8.5583,-8.9567,-9.2428,-9.4058,-9.3225,-8.588,-7.7589,0.0,-6.5158,-5.8148,-5.5044,-5.3913,-5.3518,-5.3518,-5.3518,-5.3754,-5.4465,-5.5818,0.0,-6.3869,-6.6474,-6.9553,-7.4119,-7.5303,-7.7536,-8.2035,-8.5824,-8.738,-8.5892,-8.579,-8.5452,-8.4674,-8.464,-8.464,-8.464,-8.464,-8.464,-8.464,-8.3896,-8.349,-8.349,-8.2746,-8.2002,-8.1291,-8.1291,-8.0885,-8.0175,-7.9431,-7.8686,-7.7942,-7.7198,-7.554,-7.3477,-7.3477,-7.2597,-7.1312,-7.1312,-7.1312,-7.1312,0.0,0.0,0.0,0.0,0.0,0.0,0.0,-6.4396,-6.5591,-6.7981,-6.8525,-6.8995,-6.9828,-6.8271,-6.7461,-6.8153,-6.6927,0.0,0.0,0.0,0.0,0.0,0.0,0.0,0.0,-6.6815,-6.7214,-6.8017,-6.8011,-6.8476,-6.9207,-6.8923,-6.8525,-6.8017,-6.7728,-6.7329,0.0,0.0,0.0,0.0,0.0,0.0,0.0,0.0,0.0,0.0,0.0,0.0,0.0,0.0,0.0,0.0,0.0,0.0,0.0,-6.3133,0.0,0.0,-8.0294,-8.3492,-8.5434,-8.2486,-7.7403,-7.2008,-6.7446,-6.2544,-5.8014,-5.4529,-5.3651,-5.3518,-5.3518,-5.3518,-5.4397,-5.7171,-5.8017,0.0,-6.3328,-6.7083,-7.0939,-7.4897,-8.0987,-8.5215,-8.6129,-8.7753,-8.8125,-8.667,-8.6569,-8.623,-8.5452,-8.4911,-8.464,-8.464,-8.464,-8.437,-8.3862,-8.3625,-8.2983,-8.1968,-8.1765,-8.1257,-8.0547,-8.0547,-8.0141,-7.9431,-7.9228,-7.8416,-7.7232,-7.6995,-7.554,-7.3477,-7.3477,-7.2597,-7.1312,-7.1312,-7.1312,-7.1312,0.0,0.0,0.0,0.0,0.0,0.0,0.0,-6.3237,-6.4178,-6.57,-6.617,-6.6967,-6.8561,-6.7583,-6.7142,-6.8028,-6.7331,0.0,0.0,0.0,0.0,0.0,0.0,0.0,-6.6786,-6.7112,-6.78,-6.8923,-6.9502,-7.0046,-7.0517,-7.0517,-6.9756,-6.8452,-6.8162,-6.7547,0.0,0.0,0.0,0.0,0.0,0.0,-6.4794,0.0,0.0,0.0,0.0,0.0,0.0,0.0,0.0,0.0,0.0,0.0,0.0,0.0,-6.4114,-6.9815,0.0,-7.6577,-7.8752,-7.629,-7.2252,0.0,-6.4282,-6.0496,-5.6919,-5.4093,-5.3518,-5.3518,-5.3518,-5.3518,-5.4262,-5.6562,-5.7408,-5.8829,-6.1806,-6.6068,-7.0703,-7.5574,-8.2306,-8.6399,-8.5926,-8.782,-8.8361,-8.6636,-8.6738,-8.6467,-8.5418,-8.4877,-8.464,-8.464,-8.464,-8.4268,-8.349,-8.3219,-8.2475,-8.1291,-8.1021,-8.0648,-8.0175,-7.9904,-7.9532,-7.9092,-7.8822,-7.801,0.0,-7.6555,-7.527,-7.3443,-7.3172,-7.236,-7.1312,-7.1312,-7.1312,-7.1312,0.0,0.0,0.0,0.0,0.0,0.0,0.0,-6.3273,-6.4215,-6.4215,-6.4867,-6.5917,-6.7402,-6.6967,-6.6858,-6.7692,0.0,0.0,0.0,0.0,0.0,0.0,0.0,0.0,-6.6786,-6.7547,-6.8742,-7.0372,-7.182,-7.2617,-7.2798,-7.2798,-7.1567,-6.9352,-6.8525,-6.7625,-6.6799,-6.7523,-6.7415,-6.6727,-6.6727,-6.6286,0.0,0.0,0.0,0.0,0.0,0.0,0.0,0.0,0.0,0.0,0.0,0.0,0.0,0.0,0.0,0.0,0.0,-7.0937,-7.3235,-7.3023,-6.915,-6.4826,-6.2609,-5.8767,0.0,-5.3822,-5.3518,-5.3551,-5.3653,-5.3585,-5.3619,-5.3923,-5.5141,-5.7036,-6.0013,-6.458,-7.006,-7.6657,-8.0648,-8.2847,-8.2746,-8.6535,-8.8125,-8.6027,-8.6467,-8.6196,-8.4708,-8.464,-8.464,-8.464,-8.4573,-8.42,-8.3422,-8.2678,-8.1968,-8.119,-8.0513,-8.0209,-8.0175,-7.9431,-7.9092,-7.8991,-7.8179,-7.7401,-7.6657,-7.5879,-7.4695,-7.3341,-7.2665,-7.1954,-7.1312,-7.1312,-7.1312,-7.1312,0.0,0.0,0.0,0.0,0.0,0.0,0.0,0.0,0.0,0.0,-6.273,-6.2992,-6.3354,-6.378,-6.4359,0.0,0.0,0.0,0.0,0.0,0.0,0.0,0.0,0.0,-6.6786,-6.7003,-6.8162,-7.0372,-7.0734,-7.1857,-7.3631,-7.3631,-7.269,-7.0915,-7.0154,-6.8389,-6.5985,-6.6164,-6.6128,-6.5949,-6.5949,-6.5796,0.0,0.0,0.0,0.0,-6.2033,-6.1175,0.0,0.0,0.0,0.0,0.0,0.0,0.0,0.0,-5.7973,-5.8833,-5.9588,0.0,-6.2997,-6.0529,-5.9459,-5.8551,0.0,-5.6095,-5.531,-5.3822,-5.3518,-5.3856,-5.4972,-5.4262,-5.46,-5.8017,-5.8829,-6.0114,-6.3125,-7.0364,-7.7198,-8.2205,-8.5587,-8.7076,-8.596,-8.7313,-8.782,-8.6738,-8.6264,-8.5621,-8.4674,-8.464,-8.464,-8.464,-8.4065,-8.3389,-8.2678,-8.1934,-8.119,-8.0445,-8.0276,-8.0209,-8.0175,-7.9431,-7.8788,-7.8179,-7.6826,-7.5811,-7.51,-7.4322,-7.3477,-7.2631,-7.2462,-7.1954,-7.1312,-7.1312,-7.1312,-7.1312,0.0,0.0,0.0,0.0,0.0,0.0,0.0,0.0,0.0,0.0,0.0,-6.2549,-6.2549,-6.4251,0.0,0.0,0.0,0.0,0.0,0.0,0.0,0.0,0.0,-6.6786,-6.6786,-6.751,-6.8887,-7.0879,-7.2001,-7.3233,-7.4431,-7.4431,-7.3414,-7.1422,-6.9589,-6.7653,-6.5728,-6.6086,-6.6209,-6.6207,-6.6249,0.0,0.0,0.0,0.0,0.0,-6.1597,-6.0733,0.0,-5.9736,-5.9356,-5.8901,0.0,0.0,0.0,0.0,-5.734,-5.7306,-5.69,-5.7936,-5.8768,-5.7021,-5.6437,-5.6089,-5.5277,-5.4905,-5.4465,-5.3653,-5.3518,-5.3754,-5.4566,-5.4059,-5.4499,-5.7577,-5.866,-6.1095,-6.688,-7.3037,-7.8855,-8.3998,-8.6366,-8.7651,-8.7888,-8.7955,-8.7685,-8.6974,-8.623,-8.5452,-8.4674,-8.464,-8.4471,-8.4133,-8.3389,-8.2813,-8.2408,-8.1663,-8.0919,-8.0209,-8.0209,-8.0006,-7.9667,-7.8923,-7.7976,-7.686,-7.5709,-7.4796,-7.4052,-7.3308,-7.2766,-7.236,-7.2022,-7.165,-7.1312,-7.1312,-7.1312,-7.1312,0.0,0.0,0.0,0.0,0.0,0.0,0.0,0.0,0.0,0.0,0.0,0.0,0.0,0.0,0.0,0.0,0.0,0.0,0.0,0.0,0.0,0.0,-6.6727,-6.6727,-6.6638,-6.8096,-6.9617,-7.1155,-7.3566,-7.4869,-7.5097,-7.5205,-7.3799,-7.1031,-6.8389,-6.6527,-6.5406,-6.6212,-6.6431,-6.6305,-6.6346,0.0,0.0,0.0,0.0,0.0,0.0,0.0,0.0,-5.8509,-5.8462,-5.8875,-5.8121,0.0,0.0,0.0,0.0,0.0,-5.7408,-5.7848,-5.8084,-5.7543,-5.6461,-5.5513,-5.5377,-5.4397,-5.3518,-5.3518,-5.3518,-5.3585,-5.3788,-5.3923,-5.4532,-5.6122,-5.8084,-6.2415,-7.0973,-7.4593,-7.845,-8.3964,-8.5418,-8.6636,-8.8395,-8.8023,-8.7414,-8.6771,-8.6027,-8.5317,-8.4674,-8.4505,-8.4167,-8.3524,-8.2577,-8.2069,-8.2069,-8.1426,-8.075,-8.004,-8.004,-7.9701,-7.9092,-7.8077,-7.6927,-7.5642,-7.4695,-7.3916,-7.3274,-7.2529,-7.2225,-7.2157,-7.1548,-7.1312,-7.1312,-7.1312,-7.1312,-7.1312,0.0,0.0,0.0,0.0,0.0,0.0,0.0,0.0,0.0,0.0,0.0,0.0,0.0,0.0,0.0,0.0,0.0,0.0,0.0,0.0,0.0,-6.5887,-6.6452,-6.6512,-6.5887,-6.6734,-6.7961,-6.9609,-7.1961,-7.3735,-7.5012,-7.58,-7.376,-6.9529,-6.8993,-6.6916,-6.3897,-6.4637,-6.4568,-6.4004,-6.4036,0.0,0.0,0.0,0.0,0.0,0.0,0.0,0.0,-5.912,-5.8859,-5.8805,-5.8099,0.0,0.0,0.0,0.0,0.0,-6.008,-6.0182,-5.8998,-5.5886,-5.4938,-5.46,-5.3991,-5.3653,-5.3518,-5.3518,-5.3518,-5.389,-5.5141,-5.5886,-5.7002,-5.9099,-6.3328,-6.8639,-7.5134,-7.8044,-8.0784,-8.42,-8.5892,-8.6636,-8.6332,-8.6196,-8.6061,-8.596,-8.5249,-8.4742,-8.464,-8.4031,-8.3625,-8.349,-8.1562,-8.0547,-8.0547,-8.0412,-8.0006,-7.9295,-7.9295,-7.9228,-7.9058,-7.6995,-7.5912,-7.5574,-7.3612,-7.2665,-7.2496,-7.1785,-7.1481,-7.1481,-7.1345,-7.1312,-7.1312,-7.1312,-7.1312,-7.1312,0.0,0.0,0.0,0.0,0.0,0.0,0.0,0.0,0.0,0.0,0.0,0.0,0.0,0.0,0.0,0.0,0.0,0.0,0.0,0.0,-6.6437,-6.6942,-6.689,-6.6452,-6.5728,-6.7714,-6.9489,-7.1052,-7.3795,-7.5688,-7.6768,-7.5925,-7.3032,-6.8566,-6.896,-6.7477,-6.4703,-6.504,-6.4979,-6.4633,0.0,0.0,0.0,0.0,0.0,0.0,0.0,0.0,0.0,0.0,-5.8982,-5.8827,-5.8126,0.0,0.0,0.0,0.0,0.0,-5.8693,-5.8592,-5.7915,-5.6224,-5.6393,-5.6596,-5.504,-5.4397,-5.4093,-5.4093,-5.4093,-5.4532,-5.6021,-5.7239,-5.9539,-6.4208,-6.8673,-7.2935,-7.6927,-7.872,-8.0716,-8.3659,-8.464,-8.5418,-8.6298,-8.6027,-8.579,-8.579,-8.5046,-8.4437,-8.4031,-8.3693,-8.2949,-8.1765,-8.0716,-7.9634,-7.8416,-7.8822,-7.8822,-7.8517,-7.8517,-7.8314,-7.7874,-7.6386,-7.527,-7.4424,-7.3003,-7.2191,-7.1785,-7.1447,-7.1312,-7.1312,-7.1312,-7.1312,-7.1312,-7.1312,-7.1312,-7.1312,0.0,0.0,0.0,0.0,0.0,0.0,0.0,0.0,0.0,0.0,0.0,0.0,0.0,0.0,0.0,0.0,0.0,0.0,0.0,-6.5488,-6.636,-6.7247,-6.6967,-6.671,-6.6503,-6.9013,-7.1034,-7.2498,-7.58,-7.7747,-7.8221,-7.5735,-7.2285,-6.8286,-6.8872,-6.7753,-6.5465,-6.5795,-6.5689,-6.5084,0.0,0.0,0.0,0.0,0.0,0.0,0.0,0.0,0.0,0.0,0.0,0.0,0.0,0.0,0.0,-5.8051,-5.7881,-5.7848,-5.7645,-5.7442,-5.7306,-5.7306,-5.778,-5.7983,-5.6968,-5.6156,-5.5784,-5.6325,-5.6427,-5.6697,-5.7679,-5.9641,-6.3091,-6.9147,-7.324,-7.6454,-7.872,-7.9667,-8.1122,-8.3727,-8.3862,-8.4505,-8.6467,-8.596,-8.552,-8.552,-8.4809,-8.4099,-8.3524,-8.3016,-8.1934,-8.0242,-7.9701,-7.8619,-7.6927,-7.7266,-7.7536,-7.7739,-7.7536,-7.7164,-7.6589,-7.5439,-7.4289,-7.3206,-7.2462,-7.1819,-7.1312,-7.1312,-7.1312,-7.1312,-7.1312,-7.1312,-7.1312,-7.1312,-7.1312,-7.1312,0.0,0.0,0.0,0.0,0.0,0.0,0.0,0.0,0.0,0.0,0.0,0.0,0.0,0.0,0.0,0.0,0.0,0.0,0.0,-6.6293,-6.6146,-6.4913,-6.6084,-6.7467,-6.8923,-6.9742,-7.0904,-7.252,-7.6294,-7.817,-7.8131,-7.506,-7.1942,-6.9006,-6.9028,-6.7404,-6.4735,-6.6141,-6.5515,-6.3656,-6.3509,0.0,0.0,0.0,0.0,0.0,0.0,0.0,0.0,0.0,0.0,0.0,0.0,0.0,-5.7949,-5.7915,-5.7881,-5.8186,-5.9505,-5.937,-5.8863,-5.8863,-5.7408,-5.663,-5.9201,-5.9235,-5.9302,-6.14,-6.1839,-6.1637,-6.1095,-6.441,-6.8571,-7.2529,-7.6318,-7.9566,-8.1765,-8.2712,-8.3795,-8.5418,-8.4979,-8.4877,-8.579,-8.5182,-8.4708,-8.4708,-8.3998,-8.3558,-8.349,-8.1562,-8.0344,-8.0209,-7.8213,-7.7063,-7.6893,-7.6217,-7.6251,-7.6961,-7.6217,-7.5845,-7.5709,-7.3612,-7.2563,-7.2428,-7.1718,-7.1379,-7.1312,-7.1312,-7.1312,-7.1312,-7.1312,-7.1312,-7.1312,-7.1312,-7.1312,-7.1312,0.0,0.0,0.0,0.0,0.0,0.0,0.0,0.0,0.0,0.0,0.0,0.0,0.0,0.0,0.0,0.0,0.0,0.0,0.0,-6.4977,-6.5398,-6.5397,-6.5408,-6.6391,-6.8454,-7.0567,-7.2538,-7.4497,-7.7377,-7.8503,-7.7979,-7.4524,-7.1504,-6.9089,-6.8569,-6.7461,-6.5967,-6.6058,-6.5372,-6.4106,-6.3193,-6.2651,0.0,0.0,0.0,0.0,0.0,0.0,0.0,0.0,-5.8896,-5.7881,-5.7881,-5.7881,-5.7881,-5.7881,-5.7577,-5.7239,-5.734,-5.7509,-5.7746,-5.8186,-5.8051,-5.8321,-6.0385,-6.1704,-6.2854,-6.4174,-6.5155,-6.573,-6.5459,-6.8301,-7.1785,-7.5067,-7.8348,-8.1257,-8.349,-8.4031,-8.4403,-8.4979,-8.4809,-8.4742,-8.5046,-8.4809,-8.4437,-8.3964,-8.3659,-8.3084,-8.2171,-8.0885,-7.9769,-7.8855,-7.757,-7.6454,-7.5473,-7.5168,-7.4931,-7.4796,-7.4931,-7.4762,-7.4289,-7.2969,-7.2394,-7.236,-7.1616,-7.1312,-7.1312,-7.1312,-7.1312,-7.1312,-7.1312,-7.1312,-7.1312,-7.1312,-7.1312,-7.1312,0.0,0.0,0.0,0.0,0.0,0.0,0.0,0.0,0.0,0.0,0.0,0.0,0.0,0.0,0.0,0.0,0.0,0.0,-6.3793,-6.4285,-6.4742,-6.5127,-6.4805,-6.5565,-6.7662,-7.0344,-7.2962,-7.5356,-7.8337,-7.8822,-7.686,-7.4355,-7.182,-6.9461,-6.8937,-6.8239,-6.7489,-6.6711,-6.5696,-6.4478,-6.326,-6.2753,0.0,0.0,0.0,0.0,0.0,0.0,0.0,0.0,-5.9099,-5.7881,-5.7881,-5.7881,-5.7881,-5.7881,-5.7374,-5.663,-5.5919,-5.5919,-5.6292,-5.7036,-5.8118,-5.9776,-6.2719,-6.4749,-6.6474,-6.8166,-6.8944,-6.9383,-6.962,-7.1142,-7.3308,-7.6082,-7.9194,-8.1968,-8.3998,-8.4471,-8.464,-8.464,-8.464,-8.4539,-8.4302,-8.4268,-8.3964,-8.3219,-8.2712,-8.2002,-8.0987,-7.9566,-7.8314,-7.7299,-7.6318,-7.5303,-7.4255,-7.4255,-7.3883,-7.3138,-7.368,-7.3646,-7.3105,-7.2394,-7.2056,-7.2022,-7.1548,-7.1312,-7.1312,-7.1312,-7.1312,-7.1312,-7.1312,-7.1312,-7.1312,-7.1312,-7.1312,-7.1312,0.0,0.0,0.0,0.0,0.0,0.0,0.0,0.0,0.0,0.0,0.0,0.0,0.0,0.0,0.0,0.0,0.0,0.0,-6.4532,-6.4601,-6.4253,-6.3496,-6.4183,-6.528,-6.6711,-6.9011,-7.1616,-7.4627,-7.9058,-7.8957,-7.4593,-7.4559,-7.3003,-7.0161,-7.0161,-6.9755,-6.9045,-6.8233,-6.6609,-6.4546,-6.3835,-6.3531,-6.3429,0.0,0.0,0.0,0.0,0.0,0.0,0.0,-5.9099,-5.7915,-5.7881,-5.7881,-5.7915,-5.7881,-5.7374,-5.663,-5.5919,-5.5175,-5.4769,-5.5547,-5.7408,-6.0622,-6.6576,-6.8538,-7.0161,-7.3883,-7.3477,-7.2665,-7.3375,-7.2935,-7.3172,-7.5371,-7.8855,-8.1799,-8.3287,-8.4133,-8.464,-8.464,-8.4553,-8.4302,-8.3558,-8.349,-8.3186,-8.2441,-8.1021,-8.0175,-8.0175,-7.7333,-7.5709,-7.5676,-7.4255,-7.3477,-7.3477,-7.3477,-7.3105,-7.2394,-7.2394,-7.2394,-7.236,-7.165,-7.1312,-7.1312,-7.1312,-7.1312,-7.1312,-7.1312,-7.1312,-7.1312,-7.1312,-7.1312,-7.1312,-7.1312,-7.1312,-7.1312,0.0,0.0,0.0,0.0,0.0,0.0,0.0,0.0,0.0,0.0,0.0,0.0,0.0,0.0,0.0,0.0,0.0,0.0,-6.3861,-6.3825,-6.3496,-6.2774,-6.294,-6.3266,-6.37,-6.6406,-7.0297,-7.5371,-7.669,-7.5879,-7.3037,-7.1481,-7.0263,-6.9383,-6.8842,-6.847,-6.8166,-6.688,-6.5967,-6.529,-6.458,-6.4275,-6.4208,0.0,0.0,0.0,0.0,0.0,0.0,0.0,0.0,0.0,-5.8051,-5.8254,-5.8592,-5.8051,-5.7374,-5.663,-5.5919,-5.5547,-5.5919,-5.822,-6.0486,-6.3599,-6.9045,-7.05,-7.2022,-7.6792,-7.6589,-7.5473,-7.51,-7.5337,-7.5777,-7.6454,-7.9228,-8.1799,-8.3287,-8.4133,-8.464,-8.464,-8.4167,-8.3727,-8.3524,-8.2543,-8.1629,-8.0919,-7.9972,-7.8991,-7.7942,-7.6487,-7.5473,-7.4965,-7.3984,-7.324,-7.2732,-7.2732,-7.236,-7.165,-7.165,-7.165,-7.1616,-7.1413,-7.1312,-7.1312,-7.1312,-7.1312,-7.1312,-7.1312,-7.1312,-7.1312,-7.1312,-7.1312,-7.1312,-7.1312,-7.1312,-7.1312,0.0,0.0,0.0,0.0,0.0,0.0,0.0,0.0,0.0,0.0,-5.9247,-5.9254,0.0,0.0,0.0,0.0,0.0,0.0,-6.3083,-6.3045,-6.2851,-6.242,-6.2381,-6.2651,-6.326,-6.6474,-6.9316,-7.1718,-7.3206,-7.2665,-7.0195,-7.0939,-7.0973,-7.0466,-7.1785,-7.1515,-7.006,-6.8842,-6.732,-6.5662,-6.5222,-6.5019,-6.4952,0.0,0.0,0.0,0.0,0.0,0.0,0.0,0.0,0.0,-5.8558,-5.866,-5.8863,-5.8118,-5.7374,-5.6697,-5.6258,-5.6359,-5.7239,-5.9911,-6.2719,-6.6203,-7.1447,-7.3781,-7.598,-8.004,-7.9228,-7.7638,-7.713,-7.6487,-7.6284,-7.7198,-7.9058,-8.0919,-8.2408,-8.3253,-8.3761,-8.3761,-8.3355,-8.2847,-8.2238,-8.1359,-8.0445,-7.9397,-7.8348,-7.7367,-7.6454,-7.5134,-7.4187,-7.3747,-7.3003,-7.2428,-7.1988,-7.1954,-7.1751,-7.1312,-7.1312,-7.1312,-7.1312,-7.1312,-7.1312,-7.1312,-7.1312,-7.1312,-7.1312,-7.1312,-7.1312,-7.1312,-7.1312,-7.1312,-7.1312,-7.1312,-7.1312,-7.1312,0.0,0.0,0.0,0.0,0.0,0.0,0.0,0.0,0.0,0.0,-5.9946,-5.9964,0.0,0.0,0.0,0.0,0.0,0.0,0.0,-6.2347,-6.2313,-6.2381,-6.2448,-6.3193,-6.4681,-6.7895,-6.8233,-6.5493,-6.918,-6.9519,-6.6812,-7.1988,-7.3713,-7.2665,-7.686,-7.6758,-7.3409,-7.236,-6.9519,-6.5797,-6.5797,-6.5831,-6.5797,-6.4918,0.0,0.0,0.0,0.0,0.0,0.0,0.0,0.0,-5.9268,-5.9066,-5.8964,-5.8118,-5.7408,-5.69,-5.69,-5.7442,-5.8592,-6.1095,-6.4681,-6.891,-7.3815,-7.7604,-8.0682,-8.2678,-8.1088,-7.9261,-7.9126,-7.686,-7.5642,-7.757,-7.8585,-7.9566,-8.0885,-8.1731,-8.2238,-8.2306,-8.2205,-8.1596,-8.031,-8.0006,-7.9295,-7.7874,-7.642,-7.554,-7.5405,-7.3477,-7.236,-7.2293,-7.165,-7.1312,-7.1312,-7.1312,-7.1312,-7.1312,-7.1312,-7.1312,-7.1312,-7.1312,-7.1312,-7.1312,-7.1312,-7.1312,-7.1312,-7.1312,-7.1312,-7.1312,-7.1312,-7.1312,-7.1312,-7.1312,-7.1312,-7.1312,0.0,0.0,0.0,0.0,0.0,0.0,0.0,0.0,0.0,0.0,0.0,0.0,0.0,0.0,0.0,0.0,0.0,0.0,0.0,-6.1839,-6.1772,-6.2347,-6.2956,-6.3937,-6.5425,-6.5121,-6.4613,-6.3971,-6.7117,-6.7692,-6.6034,-7.0703,-7.3003,-7.3308,-7.4897,-7.4796,-7.324,-6.9586,-6.7455,-6.6576,-6.6576,-6.6914,-6.7218,-6.5324,-6.4952,0.0,0.0,0.0,0.0,0.0,0.0,0.0,-5.9438,-5.9404,-5.9607,-5.8287,-5.778,-5.7645,-5.7645,-5.8186,-5.9742,-6.3734,-6.9316,-7.439,-7.6724,-7.8348,-7.9498,-7.9972,-8.0445,-8.0479,-7.9329,-7.8585,-7.7908,-7.7266,-7.8247,-7.9228,-7.9532,-8.0209,-8.0885,-8.146,-8.0513,-7.9904,-8.0175,-7.8619,-7.7232,-7.6251,-7.5337,-7.4322,-7.3172,-7.2665,-7.2124,-7.1548,-7.1413,-7.1312,-7.1312,-7.1312,-7.1312,-7.1312,-7.1312,-7.1312,-7.1312,-7.1312,-7.1312,-7.1312,-7.1312,-7.1312,-7.1312,-7.1312,-7.1312,-7.1312,-7.1312,-7.1312,-7.1312,-7.1312,-7.1312,-7.1312,0.0,0.0,0.0,0.0,0.0,0.0,0.0,0.0,0.0,0.0,0.0,0.0,0.0,0.0,0.0,0.0,0.0,0.0,0.0,0.0,-6.1467,-6.1839,-6.2922,-6.37,-6.4106,-6.3734,-6.3328,-6.2956,-6.4884,-6.5764,-6.5797,-7.0297,-7.2969,-7.4119,-7.5946,-7.554,-7.3308,-7.0635,-6.8436,-6.6846,-6.7184,-6.7354,-6.7218,-6.5696,-6.5155,-6.4918,-6.3057,0.0,0.0,0.0,0.0,0.0,0.0,0.0,-5.9877,-5.8761,-5.8186,-5.7881,-5.7881,-5.9505,-6.2482,-6.803,-7.2597,-7.6082,-7.7638,-7.828,-7.8483,-7.8111,-7.9228,-7.9904,-7.8788,-7.828,-7.7807,-7.7029,-7.7232,-7.7468,-7.7468,-7.7807,-7.8314,-7.9092,-7.8179,-7.7638,-7.801,-7.669,-7.5473,-7.4695,-7.395,-7.3206,-7.2428,-7.209,-7.1718,-7.1312,-7.1312,-7.1312,-7.1312,-7.1312,-7.1312,-7.1312,-7.1312,-7.1312,-7.1312,-7.1312,-7.1312,-7.1312,-7.1312,-7.1312,-7.1312,-7.1312,-7.1312,-7.1312,-7.1312,-7.1312,-7.1312,-7.1312,-7.1312,-7.1312,0.0,0.0,0.0,0.0,0.0,0.0,0.0,0.0,0.0,0.0,0.0,0.0,0.0,0.0,0.0,0.0,0.0,0.0,0.0,0.0,0.0,-6.167,-6.2854,-6.3328,-6.2956,-6.3328,-6.3193,-6.2584,-6.3328,-6.4647,-6.6542,-7.0669,-7.3375,-7.4897,-7.7266,-7.6521,-7.3375,-7.1887,-6.9451,-6.6643,-6.7151,-6.7049,-6.6542,-6.5797,-6.5189,-6.4613,-6.326,-6.2753,-6.2753,-6.2753,0.0,0.0,0.0,0.0,-6.0317,-5.9302,-5.8592,-5.8084,-5.8084,-6.1028,-6.5527,-7.1447,-7.4119,-7.5642,-7.6927,-7.7198,-7.7029,-7.642,-7.7705,-7.8619,-7.7604,-7.7029,-7.6623,-7.6352,-7.5743,-7.5303,-7.5303,-7.5303,-7.5608,-7.642,-7.5811,-7.5371,-7.5506,-7.483,-7.4119,-7.3341,-7.2732,-7.2326,-7.2225,-7.165,-7.1312,-7.1312,-7.1312,-7.1312,-7.1312,-7.1312,-7.1312,-7.1312,-7.1312,-7.1312,-7.1312,-7.1176,-7.1109,-7.1109,-7.1109,-7.1041,-7.0939,-7.1075,-7.1109,-7.1142,-7.1278,-7.1312,-7.1312,-7.1312,-7.1312,-7.1312,0.0,0.0,0.0,0.0,0.0,0.0,0.0,0.0,0.0,0.0,-6.1467,-6.1231,0.0,0.0,0.0,0.0,0.0,0.0,0.0,0.0,0.0,-6.3193,-6.3396,-6.4072,-6.5222,-6.4106,-6.3463,-6.3362,-6.4106,-6.6203,-6.962,-7.2157,-7.4119,-7.554,-7.5303,-7.4559,-7.3172,-6.8538,-6.6305,-6.5797,-6.5256,-6.5358,-6.5764,-6.5019,-6.5087,-6.5425,-6.4613,-6.4309,-6.4309,-6.4309,-6.4309,0.0,0.0,0.0,-6.167,-5.9607,-5.893,-5.8863,-5.8863,-6.255,-6.7049,-6.9925,-7.2225,-7.3849,-7.4052,-7.4086,-7.4052,-7.395,-7.6183,-7.7502,-7.5439,-7.5506,-7.5439,-7.4153,-7.3849,-7.3781,-7.3781,-7.3781,-7.4052,-7.483,-7.4255,-7.4018,-7.4695,-7.4086,-7.3341,-7.2597,-7.2462,-7.2124,-7.1481,-7.1379,-7.1312,-7.1312,-7.1312,-7.1312,-7.1312,-7.1312,-7.1312,-7.1312,-7.1312,-7.1312,-7.1312,-7.0635,-7.0331,-7.0331,-7.0331,-6.9992,-6.9451,-7.006,-7.0331,-7.0398,-7.1075,-7.1312,-7.1312,-7.1312,-7.1312,-7.1312,0.0,0.0,0.0,0.0,0.0,0.0,0.0,0.0,0.0,0.0,0.0,-6.1434,0.0,0.0,0.0,0.0,0.0,0.0,0.0,0.0,0.0,-6.1603,-6.2042,-6.2753,-6.3802,-6.3226,-6.2888,-6.2888,-6.4038,-6.6745,-7.0872,-7.3071,-7.4931,-7.6284,-7.4289,-7.2969,-7.2022,-6.7996,-6.6305,-6.6237,-6.5493,-6.5662,-6.6203,-6.5053,-6.5053,-6.5595,-6.485,-6.485,-6.5155,-6.4749,-6.4884,-6.4952,-6.3497,0.0,0.0,0.0,-5.9674,-5.937,-6.1061,-6.3226,-6.5899,-6.9823,-7.1548,-7.2496,-7.3308,-7.3477,-7.3375,-7.2969,-7.4255,-7.5168,-7.4153,-7.4255,-7.4119,-7.3037,-7.2868,-7.2732,-7.2326,-7.2259,-7.2529,-7.3274,-7.2732,-7.2563,-7.3308,-7.2699,-7.2124,-7.1819,-7.1785,-7.165,-7.1345,-7.1312,-7.1312,-7.1312,-7.0906,-7.0669,-7.0669,-7.0263,-7.006,-7.006,-7.006,-7.006,-7.006,-6.9722,-6.9789,-7.0161,-6.9755,-6.9383,-6.9147,-6.9891,-7.0195,-7.0263,-7.1007,-7.1312,-7.1312,-7.1312,-7.1312,-7.1312,0.0,0.0,0.0,0.0,0.0,0.0,0.0,0.0,0.0,0.0,0.0,0.0,0.0,0.0,0.0,0.0,0.0,0.0,0.0,0.0,0.0,-6.0419,-6.1163,-6.1839,-6.2381,-6.2381,-6.2381,-6.2381,-6.3869,-6.7184,-7.2191,-7.4018,-7.6318,-7.872,-7.5337,-7.3105,-7.1684,-6.8673,-6.7489,-6.7523,-6.6034,-6.5764,-6.6136,-6.5222,-6.5222,-6.5662,-6.5493,-6.5662,-6.5967,-6.5797,-6.5831,-6.5797,-6.4715,-6.37,0.0,0.0,0.0,-5.9539,-6.1975,-6.2787,-6.3971,-6.8267,-6.9755,-7.0567,-7.2022,-7.2529,-7.2563,-7.2191,-7.2563,-7.2935,-7.2935,-7.3071,-7.2969,-7.2225,-7.2124,-7.1921,-7.1379,-7.1312,-7.1515,-7.2056,-7.165,-7.1548,-7.209,-7.1616,-7.1312,-7.1312,-7.1312,-7.1244,-7.1041,-7.1041,-7.0939,-7.077,-7.0195,-6.9925,-6.9925,-6.9383,-6.9113,-6.9113,-6.9113,-6.9113,-6.9079,-6.8876,-6.9113,-6.9586,-6.9011,-6.8707,-6.8571,-6.9316,-6.962,-6.9688,-7.0466,-7.0872,-7.1041,-7.1041,-7.1142,-7.1312,0.0,0.0,0.0,0.0,0.0,0.0,0.0,0.0,0.0,0.0,0.0,0.0,-6.2347,-6.2313,-6.2009,-6.1298,-6.1298,0.0,0.0,0.0,0.0,-6.1231,-6.1941,0.0,-6.2381,-6.2381,-6.2381,-6.2381,-6.3869,-6.7963,-7.4458,-7.527,-7.872,-8.4031,-7.9634,-7.6082,-7.3172,-7.0229,-6.9383,-6.9688,-6.6102,-6.4681,-6.4783,-6.5392,-6.5662,-6.5865,-6.7218,-6.732,-6.6981,-6.8402,-6.7929,-6.6745,-6.6677,-6.5662,-6.4208,0.0,0.0,0.0,-6.0047,-6.0825,-6.1839,-6.3497,-6.5493,-6.7455,-6.8977,-6.9857,-7.0567,-7.1244,-7.1413,-7.1413,-7.1413,-7.1988,-7.2225,-7.1481,-7.1379,-7.1345,-7.1312,-7.1312,-7.1312,-7.1379,-7.1345,-7.1345,-7.1379,-7.1345,-7.1312,-7.1312,-7.1312,-7.1007,-7.0297,-7.0263,-6.9925,-6.9248,-6.918,-6.9147,-6.9147,-6.9113,-6.9113,-6.9113,-6.9113,-6.9113,-6.9079,-6.8301,-6.7996,-6.803,-6.7996,-6.7557,-6.6981,-6.7726,-6.803,-6.8098,-6.891,-6.962,-7.0263,-7.0263,-7.0703,-7.1312,0.0,0.0,0.0,0.0,0.0,0.0,0.0,0.0,0.0,0.0,0.0,0.0,0.0,-6.2381,-6.2279,-6.2009,-6.2009,0.0,0.0,0.0,0.0,-6.1298,-6.1535,-6.1907,-6.2381,-6.2381,-6.2381,-6.2381,-6.3396,-6.6373,-7.1142,-7.3781,-7.6386,-7.8855,-7.7773,-7.642,-7.4627,-7.0195,-6.847,-6.8504,-6.6237,-6.5595,-6.6,-6.5764,-6.6,-6.6474,-6.7015,-6.7354,-6.7523,-6.7624,-6.759,-6.7354,-6.6406,-6.573,-6.4918,-6.2956,-6.1501,-6.0554,-6.0791,-6.0689,-6.1028,-6.3024,-6.4106,-6.4952,-6.5967,-6.7523,-6.8673,-6.847,-6.9214,-6.9891,-6.9891,-7.0872,-7.1616,-7.1345,-7.0906,-7.0601,-7.0601,-7.0195,-7.006,-7.0534,-7.0195,-7.006,-7.0534,-7.0161,-6.9891,-6.9891,-6.9891,-6.9789,-6.9519,-6.9485,-6.9383,-6.9113,-6.8605,-6.7861,-6.6914,-6.644,-6.6203,-6.6203,-6.6203,-6.6474,-6.6914,-6.6609,-6.6745,-6.7184,-6.7184,-6.7049,-6.688,-6.759,-6.8199,-6.8741,-6.9519,-6.9958,-7.0263,-7.0737,-7.077,-7.0669,0.0,0.0,0.0,0.0,0.0,0.0,0.0,0.0,-6.2381,-6.2381,0.0,0.0,0.0,0.0,-6.2381,-6.2381,-6.2178,-6.1806,-6.1332,-6.1298,-6.1298,-6.1298,-6.1535,-6.1907,-6.2381,-6.2381,-6.2381,-6.2381,-6.3159,-6.5425,-6.9147,-7.1853,-7.4322,-7.642,-7.5709,-7.5676,-7.5845,-7.2124,-7.0094,-6.9248,-6.7523,-6.6981,-6.7252,-6.776,-6.7793,-6.7726,-6.8707,-6.8741,-6.8301,-6.8335,-6.8132,-6.7793,-6.7049,-6.6305,-6.529,-6.3328,-6.2245,-6.1603,-6.1366,-6.052,-6.0283,-6.2584,-6.2753,-6.2753,-6.4275,-6.5561,-6.644,-6.644,-6.7252,-6.803,-6.8267,-6.935,-7.0263,-7.0534,-7.0161,-6.9823,-6.9823,-6.918,-6.8977,-6.9722,-6.9147,-6.9011,-6.9755,-6.9383,-6.9113,-6.9113,-6.9113,-6.8977,-6.8707,-6.8707,-6.847,-6.7963,-6.7184,-6.6305,-6.5324,-6.485,-6.4613,-6.4613,-6.4613,-6.485,-6.5324,-6.5561,-6.5967,-6.644,-6.6711,-6.6812,-6.6846,-6.7354,-6.7996,-6.8707,-6.8944,-6.9383,-6.9891,-7.0398,-7.0398,-7.0297,0.0,0.0,0.0,0.0,0.0,0.0,0.0,0.0,-6.2381,-6.2381,0.0,0.0,0.0,0.0,0.0,-6.2448,-6.1806,-6.14,-6.1332,-6.1332,-6.1332,-6.1332,0.0,0.0,-6.2381,-6.2381,-6.2381,-6.2381,-6.3125,-6.5358,-6.8944,-6.9722,-7.28,-7.7536,-7.3984,-7.4018,-7.6657,-7.5811,-7.4255,-7.2157,-6.9958,-6.8639,-6.8335,-7.121,-7.0973,-6.9485,-7.2326,-7.1515,-6.9316,-7.077,-6.9755,-6.8064,-6.8842,-6.7523,-6.5425,-6.4005,-6.3057,-6.2279,0.0,0.0,0.0,-6.1738,-6.1197,-6.0858,-6.3734,-6.3903,-6.3835,-6.5222,-6.5561,-6.5831,-6.6576,-6.7286,-6.803,-6.8842,-6.9011,-6.9011,-6.9011,-6.8301,-6.8098,-6.891,-6.8301,-6.8132,-6.8944,-6.8977,-6.8977,-6.9011,-6.8977,-6.8639,-6.7827,-6.7793,-6.7151,-6.5696,-6.4952,-6.458,-6.458,-6.4546,-6.4546,-6.4546,-6.4546,-6.4546,-6.458,-6.5324,-6.5662,-6.573,-6.6474,-6.6812,-6.6812,-6.6812,-6.7252,-6.7827,-6.7117,-6.776,-6.9113,-6.9113,-6.9586,-7.0297,0.0,0.0,0.0,0.0,0.0,-6.0825,-6.1907,-6.2245,-6.2381,0.0,0.0,0.0,-6.3193,-6.414,-6.4546,-6.4038,-6.3802,-6.3226,-6.2178,-6.2076,-6.2076,-6.2076,-6.2279,-6.2381,-6.2381,-6.2381,-6.2381,-6.2381,-6.2584,-6.3497,-6.5087,-6.6914,-6.8808,-7.0737,-7.1887,-7.2259,-7.1954,-7.0635,-7.0669,-7.1413,-6.9147,-6.9079,-7.0331,-7.0094,-6.962,-6.9214,-7.0026,-6.9789,-6.918,-6.9586,-6.9282,-6.8707,-6.8335,-6.7049,-6.5595,-6.5189,-6.458,-6.37,-6.2448,0.0,0.0,0.0,0.0,0.0,-5.981,-6.0858,-6.1873,-6.167,-6.2956,-6.4174,-6.4377,-6.458,-6.4986,-6.573,-6.6745,-6.7252,-6.6711,-6.6,-6.5797,-6.6542,-6.5967,-6.6034,-6.732,-6.6474,-6.6068,-6.6576,-6.6136,-6.5764,-6.5527,-6.5527,-6.5324,-6.4918,-6.4208,-6.3802,-6.3802,-6.3294,-6.299,-6.299,-6.299,-6.3294,-6.3835,-6.458,-6.5189,-6.573,-6.6474,-6.6812,-6.6812,-6.6812,-6.7252,-6.7895,-6.7692,-6.8199,-6.918,-6.9688,-6.9992,-7.0297,0.0,0.0,0.0,0.0,0.0,-6.1569,-6.3091,-6.3328,-6.3328,0.0,0.0,0.0,-6.4343,-6.6305,-6.688,-6.5189,-6.5053,-6.441,-6.2956,-6.2854,-6.2719,-6.2415,-6.2381,-6.2381,-6.2381,-6.2381,-6.2381,-6.2381,-6.2381,-6.2618,-6.3057,-6.4377,-6.5527,-6.6576,-6.803,-6.8538,-6.8233,-6.7354,-6.8301,-7.0331,-6.962,-7.0128,-7.1379,-7.209,-7.1751,-7.1041,-7.2022,-7.1954,-7.1312,-7.0669,-7.006,-6.935,-6.8233,-6.732,-6.6474,-6.5865,-6.5392,-6.4783,-6.3632,-6.2854,-6.2212,-6.1501,0.0,0.0,-5.937,-5.9607,-5.9844,-5.9674,-6.0723,-6.1738,-6.2042,-6.2076,-6.2212,-6.2651,-6.3429,-6.4208,-6.4715,-6.414,-6.3835,-6.4275,-6.3937,-6.414,-6.5324,-6.4918,-6.4783,-6.5189,-6.485,-6.4613,-6.4613,-6.4309,-6.414,-6.414,-6.3429,-6.3057,-6.3057,-6.2618,-6.2381,-6.2381,-6.2381,-6.2618,-6.3057,-6.3802,-6.4377,-6.4816,-6.5561,-6.6068,-6.6339,-6.6339,-6.6948,-6.7861,-6.7557,-6.7929,-6.8707,-6.9451,-6.9722,-6.9891,0.0,0.0,-5.8626,-6.0892,-6.1907,-6.2922,-6.4478,-6.4715,-6.4749,0.0,-6.4512,-6.4884,-6.6508,-6.891,-6.9316,-6.6542,-6.6068,-6.5324,-6.3869,-6.3599,-6.326,-6.2651,-6.255,-6.255,-6.2618,-6.2618,-6.2584,-6.2516,-6.2516,-6.2482,-6.2381,-6.2381,-6.3091,-6.4343,-6.3666,-6.414,-6.5459,-6.5527,-6.688,-6.9113,-7.0601,-7.1379,-7.2022,-7.527,-7.527,-7.3747,-7.5879,-7.5709,-7.4289,-7.2868,-7.1413,-6.9958,-6.8571,-6.8098,-6.776,-6.6339,-6.5933,-6.5764,-6.4952,-6.3768,-6.3024,-6.4174,-6.1975,0.0,-6.0926,-5.9607,-5.8254,-5.8693,-5.8829,-5.9066,-5.9641,-5.9742,-5.9742,-5.9844,-5.9844,-6.0622,-6.2821,-6.255,-6.2144,-6.2144,-6.2144,-6.2448,-6.3193,-6.3768,-6.414,-6.4241,-6.4241,-6.4241,-6.4241,-6.37,-6.3328,-6.3159,-6.2651,-6.2347,-6.2279,-6.2347,-6.2381,-6.2381,-6.2381,-6.2381,-6.2415,-6.3159,-6.3531,-6.3565,-6.4275,-6.5019,-6.5662,-6.5595,-6.644,-6.7726,-6.7083,-6.7252,-6.7996,-6.8707,-6.9079,-6.9417,0.0,-5.7881,-5.8626,-6.0892,-6.1907,-6.3091,-6.5155,-6.5493,-6.5696,-6.6305,-6.7827,-6.9891,-7.2563,-7.2326,-7.1481,-7.0331,-6.8538,-6.6846,-6.5358,-6.4174,-6.37,-6.414,-6.3599,-6.3565,-6.4174,-6.4174,-6.3869,-6.3294,-6.3294,-6.299,-6.2381,-6.2381,-6.255,-6.2821,-6.2685,-6.3091,-6.3971,-6.4546,-6.6102,-6.8267,-6.9789,-7.1853,-7.3984,-7.4086,-7.3883,-7.3612,-7.4695,-7.4458,-7.3578,-7.2699,-7.1413,-7.0128,-6.9823,-6.935,-6.8673,-6.776,-6.7455,-6.7184,-6.5831,-6.5256,-6.4816,-6.3937,-6.3159,0.0,-6.0689,-5.9979,-5.9201,-5.7577,-5.7712,-5.7983,-5.7543,-5.7442,-5.7645,-5.822,-5.8321,-5.8896,-6.052,-6.0655,-6.0554,-6.0554,-6.0554,-6.0858,-6.167,-6.1264,-6.1264,-6.1907,-6.1941,-6.1941,-6.1941,-6.2381,-6.2042,-6.0791,-6.1806,-6.211,-6.1535,-6.211,-6.2381,-6.2381,-6.2381,-6.2381,-6.2415,-6.3159,-6.3531,-6.3565,-6.4275,-6.5019,-6.5628,-6.5053,-6.5696,-6.7015,-6.688,-6.7252,-6.7929,-6.8064,-6.891,-7.0026,-5.7949,-5.8186,-5.9302,-6.1941,-6.3024,-6.4377,-6.6981,-6.7387,-6.7929,-6.9417,-7.2529,-7.4356,-7.3612,-7.3815,-7.3003,-7.0432,-6.8808,-6.7252,-6.5797,-6.5019,-6.4613,-6.4613,-6.4241,-6.4241,-6.458,-6.4613,-6.4241,-6.3531,-6.3531,-6.3125,-6.2381,-6.2381,-6.2381,-6.2381,-6.2381,-6.2821,-6.3599,-6.4681,-6.6203,-6.803,-6.9586,-7.1751,-7.4052,-7.4052,-7.4289,-7.4627,-7.5033,-7.4424,-7.3477,-7.351,-7.2293,-7.0669,-7.0297,-6.9925,-6.9485,-6.8707,-6.8504,-6.8335,-6.759,-6.7083,-6.6609,-6.5899,-6.4613,0.0,0.0,-6.0385,-5.9133,-5.7645,-5.734,-5.7239,-5.6867,-5.619,-5.5953,-5.6697,-5.6494,-5.663,-5.7746,-5.8524,-5.8727,-5.7983,-5.822,-5.8626,-5.9032,-5.937,-5.9877,-6.0655,-6.0385,-6.0317,-6.0689,-6.1061,-6.0892,-6.0114,-6.0858,-6.1264,-6.1298,-6.167,-6.2042,-6.2381,-6.2381,-6.2381,-6.2415,-6.2787,-6.2956,-6.2956,-6.3328,-6.3903,-6.4613,-6.4613,-6.5256,-6.6237,-6.6237,-6.6711,-6.7421,-6.776,-6.8639,-6.9654,-5.8017,-5.8389,-5.9708,-6.2584,-6.3937,-6.5561,-6.8436,-6.9113,-7.0195,-7.2699,-7.6082,-7.7096,-7.4018,-7.4627,-7.4018,-7.0872,-6.8944,-6.7624,-6.7015,-6.617,-6.5493,-6.5053,-6.4884,-6.4884,-6.5019,-6.5019,-6.4681,-6.3937,-6.3937,-6.3565,-6.2821,-6.2685,-6.2685,-6.2821,-6.2685,-6.3091,-6.4005,-6.5358,-6.6779,-6.8233,-6.962,-7.1413,-7.3375,-7.4289,-7.4965,-7.5506,-7.5642,-7.483,-7.3781,-7.4255,-7.3037,-7.121,-7.0601,-7.0398,-7.0263,-6.9519,-6.9316,-6.9282,-6.9147,-6.8639,-6.8132,-6.8132,-6.6237,-6.4106,0.0,0.0,0.0,-5.8152,-5.7408,-5.6934,-5.663,-5.5615,-5.4972,-5.5412,-5.5108,-5.4905,-5.5243,-5.6427,-5.6867,-5.5817,-5.6258,-5.6596,-5.6596,-5.7679,-5.8693,-5.9404,-5.9032,-5.9066,-5.9641,-5.9945,-5.9979,-5.9674,-5.9945,-6.0351,-6.0858,-6.1163,-6.1603,-6.2178,-6.2313,-6.2381,-6.2381,-6.2381,-6.2381,-6.2381,-6.2381,-6.2821,-6.3565,-6.414,-6.4918,-6.5696,-6.5865,-6.6271,-6.688,-6.7489,-6.8199,-6.8876,-5.8017,-5.7949,-5.8761,-6.1129,-6.326,-6.5392,-6.7692,-6.918,-7.1345,-7.4864,-7.5202,-7.5946,-7.8111,-7.5574,-7.4356,-7.5879,-7.1041,-6.8944,-7.1481,-6.7895,-6.5933,-6.6542,-6.5933,-6.5865,-6.6542,-6.6576,-6.6203,-6.5425,-6.5425,-6.5053,-6.4343,-6.37,-6.3734,-6.4309,-6.3666,-6.414,-6.5493,-6.6339,-6.7557,-6.9045,-6.9857,-7.1109,-7.2665,-7.4086,-7.4661,-7.483,-7.5473,-7.5168,-7.439,-7.3815,-7.2597,-7.1312,-7.121,-7.1176,-7.1041,-7.0297,-7.006,-6.9925,-6.9282,-6.9045,-6.8977,-6.8977,-6.8166,-6.688,-6.4816,0.0,-6.2042,-5.8592,0.0,-5.7374,-5.6089,0.0,0.0,-5.4803,-5.5209,-5.5175,-5.3923,-5.4465,-5.5141,-5.5649,-5.5749,-5.5817,-5.5817,-5.5987,-5.6393,-5.7137,-5.7679,-5.8051,-5.8152,-5.937,-5.9505,-5.8186,-5.9404,-5.9844,-5.9268,-6.0622,-6.1332,-6.1434,-6.2076,-6.2381,-6.2381,-6.2381,-6.2381,-6.2381,-6.2381,-6.2821,-6.3531,-6.3599,-6.4444,-6.5764,-6.644,-6.6745,-6.6812,-6.6914,-6.7421,-6.803,-5.7949,-5.8254,-5.9268,-6.1535,-6.2719,-6.4512,-6.8064,-7.209,-7.4931,-7.5608,-7.7705,-7.9295,-7.9701,-7.757,-7.5946,-7.5608,-7.2462,-7.0297,-6.9823,-6.803,-6.6914,-6.6812,-6.6508,-6.6474,-6.6812,-6.6812,-6.644,-6.5696,-6.5696,-6.5324,-6.458,-6.4275,-6.4309,-6.458,-6.4275,-6.4952,-6.6406,-6.7151,-6.8335,-6.9789,-7.0534,-7.121,-7.1921,-7.3409,-7.4221,-7.4593,-7.4458,-7.395,-7.3274,-7.2969,-7.2157,-7.1312,-7.1312,-7.1312,-7.1244,-7.0939,-7.0838,-7.077,-7.0466,-7.0398,-7.0398,-7.0398,-6.9147,-6.7557,-6.6203,-6.4647,-6.2821,-6.0385,0.0,0.0,0.0,0.0,0.0,0.0,-5.5412,-5.4837,-5.4228,-5.4025,-5.4093,-5.4397,-5.4431,-5.46,-5.5006,-5.4668,-5.4938,-5.6089,-5.6055,-5.6156,-5.6596,-5.7611,-5.7915,-5.7273,-5.8287,-5.8896,-5.9032,-6.008,-6.0858,-6.1298,-6.2042,-6.2381,-6.2381,-6.2381,-6.2381,-6.2381,-6.2381,-6.2584,-6.2922,-6.3802,-6.4512,-6.5189,-6.6339,-6.6812,-6.6812,-6.6812,-6.7286,-6.7827,-5.8152,-5.8457,-5.9302,-6.1129,-6.1975,-6.3903,-6.8402,-7.2766,-7.5676,-7.598,-7.8517,-8.0344,-8.0479,-7.8991,-7.7638,-7.6826,-7.4627,-7.236,-7.0195,-6.9079,-6.8098,-6.7151,-6.6914,-6.6914,-6.7117,-6.6914,-6.6542,-6.6,-6.6,-6.573,-6.5189,-6.4986,-6.5019,-6.5222,-6.5222,-6.6034,-6.7489,-6.8233,-6.9282,-7.0534,-7.1075,-7.1447,-7.1718,-7.28,-7.3646,-7.4221,-7.368,-7.3003,-7.2394,-7.2394,-7.1921,-7.1312,-7.1312,-7.1312,-7.1312,-7.1312,-7.1312,-7.1312,-7.1312,-7.1312,-7.1312,-7.1312,-6.9755,-6.803,-6.7286,-6.5696,-6.3937,-6.2245,-6.1434,0.0,0.0,0.0,-5.7577,0.0,0.0,-5.5277,-5.4668,-5.4126,-5.3721,-5.3518,-5.3518,-5.3721,-5.4262,-5.3822,-5.3957,-5.504,-5.4803,-5.4837,-5.5378,-5.6292,-5.6799,-5.6799,-5.7509,-5.8152,-5.8693,-5.9438,-6.0182,-6.0994,-6.1738,-6.2178,-6.2381,-6.2381,-6.2381,-6.2381,-6.2381,-6.2381,-6.2516,-6.4005,-6.4613,-6.4749,-6.6237,-6.6812,-6.6812,-6.6812,-6.7151,-6.7523,-5.8829,-5.8423,-5.8186,-5.8964,-6.0926,-6.3903,-6.8402,-6.9248,-7.1176,-7.6217,-7.5709,-7.6487,-8.0784,-7.9295,-7.9126,-8.1934,-7.8145,-7.554,-7.5473,-7.209,-6.9451,-6.7929,-6.7184,-6.7151,-6.7861,-6.7184,-6.6812,-6.6779,-6.6779,-6.6779,-6.6711,-6.6,-6.6034,-6.6745,-6.6745,-6.759,-6.9079,-6.9789,-7.0567,-7.1278,-7.1312,-7.1751,-7.236,-7.2428,-7.2868,-7.351,-7.351,-7.3003,-7.2394,-7.2394,-7.1921,-7.1312,-7.1312,-7.1312,-7.1312,-7.1312,-7.1312,-7.1312,-7.1312,-7.1312,-7.1312,-7.1312,-7.0161,-6.8842,-6.8064,-6.7252,-6.6068,-6.3903,-6.3429,-6.2956,-6.1501,-6.0554,0.0,0.0,0.0,0.0,0.0,-5.4566,-5.4296,-5.3585,-5.3518,-5.3518,-5.3551,-5.3518,-5.3518,-5.3585,-5.4194,-5.46,-5.4634,-5.6021,-5.6799,-5.6799,-5.7509,-5.7915,-5.7915,-5.8693,-5.9404,-6.0148,-6.096,-6.1704,-6.2381,-6.2381,-6.2381,-6.2381,-6.2381,-6.2381,-6.2516,-6.4005,-6.4613,-6.4749,-6.6237,-6.6812,-6.6812,-6.6812,-6.6812,-6.6846,-5.9674,-5.9539,-5.9607,-6.0385,-6.1163,-6.3024,-6.6981,-7.0094,-7.3544,-7.7807,-7.96,-8.2002,-8.6027,-8.5351,-8.4606,-8.464,-8.1866,-7.9092,-7.6657,-7.3916,-7.1718,-7.0229,-6.8977,-6.8199,-6.7895,-6.7658,-6.7286,-6.6812,-6.6812,-6.6812,-6.6812,-6.6542,-6.6576,-6.6812,-6.6812,-6.7658,-6.9113,-6.9383,-7.0195,-7.1312,-7.1312,-7.2022,-7.3003,-7.2056,-7.2124,-7.2699,-7.2225,-7.1887,-7.1684,-7.1684,-7.1515,-7.1312,-7.1312,-7.1312,-7.1312,-7.1312,-7.1312,-7.1312,-7.1312,-7.1312,-7.1312,-7.1312,-7.0567,-6.9755,-6.9485,-6.8842,-6.7827,-6.6068,-6.5696,-6.5087,-6.3125,-6.2144,0.0,0.0,0.0,0.0,0.0,-5.4499,-5.3788,-5.3551,-5.3518,-5.3518,-5.3518,-5.3518,-5.3518,-5.3518,-5.3721,-5.3856,-5.3856,-5.5277,-5.6089,-5.6089,-5.7273,-5.7881,-5.7881,-5.8626,-5.937,-6.0114,-6.0926,-6.167,-6.2381,-6.2381,-6.2381,-6.2381,-6.2381,-6.2685,-6.3193,-6.4208,-6.4884,-6.5425,-6.6406,-6.6812,-6.6812,-6.6812,-6.6812,-6.6948,-6.0148,-6.0114,-6.025,-6.0791,-6.1535,-6.3159,-6.6339,-7.0838,-7.5236,-7.9025,-8.2069,-8.5215,-8.87,-8.8666,-8.7888,-8.667,-8.5249,-8.2374,-7.7604,-7.6386,-7.4728,-7.2191,-7.0906,-7.0161,-6.9891,-6.8842,-6.7963,-6.7184,-6.7184,-6.7083,-6.6812,0.0,0.0,0.0,-6.7083,-6.7895,-6.9113,-6.9383,-7.0195,-7.1312,-7.1312,-7.1887,-7.2597,-7.1684,-7.1921,-7.2665,-7.1684,-7.1312,-7.1312,-7.1312,-7.1312,-7.1312,-7.1312,-7.1312,-7.1312,-7.1312,-7.1312,-7.1312,-7.1312,-7.1312,-7.1312,-7.1312,-7.0737,-7.0195,-7.0195,-6.9823,-6.9113,-6.7895,-6.7387,-6.6677,-6.4986,-6.3632,0.0,0.0,0.0,0.0,0.0,-5.4837,-5.389,-5.389,-5.3653,-5.3518,-5.3518,-5.3518,-5.3518,-5.3518,-5.3518,-5.3518,-5.3518,-5.4905,-5.5681,-5.5681,-5.7137,-5.7881,-5.7881,-5.8355,-5.9099,-6.0114,-6.0622,-6.14,-6.2381,-6.2381,-6.2381,-6.2381,-6.2381,-6.2821,-6.3565,-6.4005,-6.4783,-6.573,-6.6203,-6.6576,-6.6812,-6.6812,-6.6981,-6.7387,-6.0385,-6.025,-6.0283,-6.0317,-6.211,-6.4343,-6.6576,-7.1312,-7.598,-7.9803,-8.2915,-8.5926,-8.897,-8.9275,-8.897,-8.8226,-8.8091,-8.5317,-7.8855,-7.96,-7.8382,-7.4052,-7.3071,-7.2902,-7.3477,-7.0703,-6.8842,-6.7963,-6.7929,-6.7557,0.0,0.0,0.0,0.0,-6.7557,-6.8335,-6.9147,-6.9891,-7.0635,-7.1312,-7.1312,-7.1345,-7.1413,-7.1345,-7.2225,-7.3308,-7.1853,-7.1312,-7.1312,-7.1312,-7.1312,-7.1312,-7.1312,-7.1312,-7.1312,-7.1312,-7.1312,-7.1312,-7.1312,-7.1312,-7.1312,-7.1312,-7.077,-7.0229,-7.0229,-7.0229,-7.0026,-6.9316,-6.8504,-6.7726,-6.6948,-6.5053,0.0,0.0,0.0,0.0,0.0,-5.5581,-5.4634,-5.4634,-5.3991,-5.3551,-5.3518,-5.3518,-5.3518,-5.3518,-5.3518,-5.3518,-5.3518,-5.4905,-5.5681,-5.5681,-5.7137,-5.7881,-5.7881,-5.7881,-5.8626,-6.0114,-6.0114,-6.0892,-6.2381,-6.2381,-6.2381,-6.2381,-6.2381,-6.2854,-6.3565,-6.3565,-6.441,-6.573,-6.573,-6.6203,-6.688,-6.688,-6.732,-6.803,-6.1941,-6.2245,-6.2821,-6.3362,-6.3937,-6.5256,-6.8098,-7.1988,-7.6352,-8.1224,-8.4911,-8.8463,-9.2049,-9.1913,-9.1271,-9.0527,-8.9444,-8.7617,-8.4809,-8.2881,-8.1088,-7.9363,-7.7029,-7.5033,-7.351,-7.2225,-7.0635,-6.8808,-6.8199,-6.7793,-6.7624,0.0,0.0,0.0,-6.7557,-6.8335,-6.9147,-6.9891,-7.0635,-7.1312,-7.1312,-7.1954,-7.28,-7.1718,-7.2225,-7.3308,-7.1853,-7.1312,-7.1312,-7.1312,-7.1312,-7.1312,-7.1312,-7.1312,-7.1312,-7.1312,-7.1312,-7.1312,-7.1312,-7.1312,-7.1312,-7.1312,-7.1176,-7.1041,-7.1041,-7.1041,-7.0804,-7.006,-6.9316,-6.8368,-6.7049,-6.5459,-6.3835,0.0,0.0,0.0,0.0,-5.6359,-5.5446,-5.5446,-5.4769,-5.4093,-5.3551,-5.3518,-5.3518,-5.3518,-5.3518,-5.3518,-5.3518,-5.4905,-5.5681,-5.5681,-5.7137,-5.7881,-5.7881,-5.7881,-5.8626,-6.0114,-6.0114,-6.0892,-6.2381,-6.2381,-6.2381,-6.2381,-6.2381,-6.3125,-6.4343,-6.4343,-6.5189,-6.6542,-6.6542,-6.6981,-6.7624,-6.7624,-6.7726,-6.8098,-6.2516,-6.3768,-6.529,-6.6373,-6.7624,-6.9045,-7.077,-7.3646,-7.7232,-8.1799,-8.5689,-8.8801,-9.0899,-9.2218,-9.2353,-9.0932,-9.0357,-8.8869,-8.6095,-8.5249,-8.393,-8.1866,-8.0175,-7.8247,-7.598,-7.3916,-7.1785,-6.9586,-6.8436,-6.7726,-6.7421,0.0,0.0,0.0,0.0,-6.8166,-6.8639,-6.9722,-7.0635,-7.1312,-7.1312,-7.1819,0.0,-7.1616,-7.1819,-7.2428,-7.1616,-7.1312,-7.1312,-7.1312,-7.1312,-7.1312,-7.1312,-7.1312,-7.1312,-7.1312,-7.1312,-7.1312,-7.1312,-7.1312,-7.1312,-7.1312,-7.1312,-7.1312,-7.1312,-7.1312,-7.121,-7.077,-7.0094,-6.9214,-6.803,-6.6576,-6.4884,0.0,0.0,0.0,-5.8423,-5.7408,-5.6562,-5.6224,-5.5243,-5.4431,-5.4025,-5.3687,-5.3518,-5.3518,-5.3518,-5.3518,-5.3518,-5.4905,-5.5681,-5.5681,-5.8118,-5.9066,-5.8389,-5.937,-6.0114,-6.0622,-6.0622,-6.1264,-6.2381,-6.2381,-6.2381,-6.2415,-6.2753,-6.3531,-6.4613,-6.4613,-6.5459,-6.6812,-6.6812,-6.7049,-6.7489,-6.8199,-6.8639,-6.9011,-6.2821,-6.4986,-6.7387,-6.8707,-7.1548,-7.3815,-7.4289,-7.6487,-7.9261,-8.2577,-8.6163,-8.8463,-8.8564,-9.1305,-9.2353,-9.0391,-9.0797,-8.941,-8.5317,-8.6805,-8.6366,-8.2983,-8.2644,-8.146,-7.916,-7.5608,-7.2631,-7.0331,-6.8605,-6.7489,0.0,0.0,0.0,0.0,0.0,-6.7996,-6.8301,-6.962,-7.0635,-7.1312,-7.1312,-7.1312,-7.1312,-7.1312,-7.1312,-7.1312,-7.1312,-7.1312,-7.1312,-7.1312,-7.1312,-7.1312,-7.1312,-7.1312,-7.1312,-7.1312,-7.1312,-7.1312,-7.1312,-7.1312,-7.1312,-7.1312,-7.1312,-7.1312,-7.1312,-7.1312,-7.1312,-7.1312,-7.0703,-6.9958,-6.9248,-6.776,-6.5797,0.0,0.0,-6.0182,-5.9539,-5.8727,-5.7915,-5.7171,-5.5852,0.0,-5.4769,-5.3991,-5.3518,-5.3518,-5.3518,-5.3518,-5.3518,-5.4905,-5.5681,-5.5681,-5.9167,-6.0452,-5.9336,-6.1163,-6.1907,-6.1603,-6.14,-6.167,-6.2381,-6.2381,-6.2381,-6.2415,-6.3193,-6.3937,-6.4613,-6.4715,-6.5561,-6.6812,-6.6914,-6.7015,-6.7286,-6.8707,-6.9722,-7.0331,-6.4343,-6.6102,-6.7793,-6.8064,-7.1616,-7.5439,-7.8551,-8.1968,-8.4674,-8.596,-8.8801,-9.0966,-9.1575,-9.1135,-9.0628,-9.0256,-9.0324,-8.9545,-8.755,-8.7211,-8.6535,-8.5249,-8.3998,-8.2002,-7.916,-7.6623,-7.3916,-7.1109,-6.8335,-6.7252,0.0,0.0,0.0,0.0,0.0,0.0,-6.9789,-7.0094,-7.0635,-7.1312,-7.1312,-7.1312,-7.1312,-7.1312,-7.1312,-7.1312,-7.1312,-7.1312,-7.1312,-7.1312,-7.1312,-7.1312,-7.1312,-7.1312,-7.1312,-7.1312,-7.1312,-7.1312,-7.1312,-7.1312,-7.1312,-7.1312,-7.1312,-7.1312,-7.1312,-7.1312,-7.1312,-7.1312,-7.0703,-6.9958,-6.9248,-6.732,-6.5527,-6.441,-6.2956,-6.1941,-6.1806,-6.0588,-5.9438,-5.8727,-5.7848,-5.6833,-5.5649,-5.4296,-5.3518,-5.3518,-5.3518,-5.3518,-5.3518,-5.4905,-5.5681,-5.5681,-5.8118,-5.9877,-6.0892,-6.0622,-6.14,-6.3125,-6.1873,-6.167,-6.2381,-6.2381,-6.2381,-6.2415,-6.3193,-6.3937,-6.4647,-6.5256,-6.6,-6.688,-6.7489,-6.8098,-6.8808,-6.9688,-7.0466,-7.1109,-6.6914,-6.8098,-6.9688,-7.1616,-7.5033,-7.8619,-8.1968,-8.5689,-8.7516,-8.5926,-8.7313,-8.8564,-8.8937,-9.0053,-9.0628,-9.0256,-8.985,-8.9173,-8.8057,-8.7313,-8.6569,-8.5824,-8.4708,-8.2712,-7.9735,-7.669,-7.3883,-7.1312,-6.7895,-6.6609,-6.732,0.0,0.0,-6.6846,0.0,-6.8402,-7.0161,-6.9789,-7.0297,-7.1312,-7.1312,-7.1312,-7.1312,-7.1312,-7.1312,-7.1312,-7.1312,-7.1312,-7.1312,-7.1312,-7.1312,-7.1312,-7.1312,-7.1312,-7.1312,-7.1312,-7.1312,-7.1312,-7.1312,-7.1312,-7.1312,-7.1312,-7.1312,-7.1312,-7.1312,-7.1312,-7.1312,-7.1312,-7.1041,-7.0432,-6.9316,-6.7557,-6.6034,-6.529,-6.3937,-6.2854,-6.2448,-6.1434,-6.0283,-5.9167,-5.8355,-5.7476,-5.6393,-5.4938,-5.3923,-5.3551,-5.3518,-5.3518,-5.3518,-5.4905,-5.5681,-5.5681,-5.8998,-6.0757,-6.0689,-6.1839,-6.2618,-6.2922,-6.2212,-6.2042,-6.2415,-6.2787,-6.2956,-6.3024,-6.414,-6.485,-6.5222,-6.5967,-6.6474,-6.688,-6.7624,-6.8132,-6.8605,-6.9755,-7.0398,-7.077,-6.962,-7.0635,-7.2394,-7.5608,-7.8923,-8.1866,-8.4065,-8.755,-8.897,-8.6196,-8.6332,-8.6738,-8.6738,-8.9173,-9.0594,-9.0019,-8.9275,-8.8531,-8.782,-8.7076,-8.6264,-8.5351,-8.4708,-8.3016,-8.004,-7.6589,-7.368,-7.1312,-6.7692,-6.6237,-6.6779,0.0,0.0,0.0,-6.7049,-6.8199,-7.0161,-6.9586,-7.0094,-7.1312,-7.1312,-7.1312,-7.1312,-7.1312,-7.1312,-7.1312,-7.1312,-7.1312,-7.1312,-7.1312,-7.1312,-7.1312,-7.1312,-7.1312,-7.1312,-7.1312,-7.1312,-7.1312,-7.1312,-7.1312,-7.1312,-7.1312,-7.1312,-7.1312,-7.1312,-7.1312,-7.1312,-7.1312,-7.1176,-7.0703,-6.9553,-6.8064,-6.6846,-6.6237,-6.4918,-6.3734,-6.2956,-6.2245,-6.1163,-5.9438,-5.8727,-5.7949,-5.69,-5.575,-5.4702,-5.3788,-5.3585,-5.3518,-5.3518,-5.4905,-5.5681,-5.5681,-5.9742,-6.1467,-6.0588,-6.2956,-6.3802,-6.3091,-6.2787,-6.2719,-6.2888,-6.3463,-6.3734,-6.3835,-6.5121,-6.5764,-6.5967,-6.6576,-6.6914,-6.7117,-6.7861,-6.8233,-6.8538,-6.9925,-7.0432,-7.05,-7.1819,-7.3747,-7.5709,-7.7468,-8.1359,-8.4065,-8.3659,-8.6771,-8.9309,-8.9647,-8.9748,-8.9782,-8.9782,-8.9478,-8.9275,-8.9207,-8.8531,-8.7786,-8.7076,-8.6298,-8.5249,-8.3761,-8.3625,-8.2238,-7.9295,-7.6826,-7.4187,-7.1312,-6.8233,-6.6745,-6.6779,0.0,0.0,-6.7793,-6.7793,-6.8673,-7.0195,-7.0128,-7.0567,-7.1312,-7.1312,-7.1312,-7.1312,-7.1312,-7.1312,-7.1312,-7.1312,-7.1312,-7.1312,-7.1312,-7.1312,-7.1312,-7.1312,-7.1312,-7.1312,-7.1312,-7.1312,-7.1312,-7.1312,-7.1312,-7.1312,-7.1312,-7.1312,-7.1312,-7.1312,-7.1312,-7.1312,-7.1312,-7.077,-7.0263,-7.0094,-6.8842,-6.776,-6.7692,-6.644,-6.5222,-6.4512,-6.3768,-6.2482,-6.025,-5.9945,-5.9066,-5.7002,-5.6697,-5.6021,-5.46,-5.389,-5.3518,-5.3518,-5.4905,-5.5681,-5.5681,-5.8693,-6.0926,-6.2144,-6.2448,-6.3531,-6.5358,-6.4038,-6.3768,-6.441,-6.4478,-6.4512,-6.4546,-6.5358,-6.6068,-6.6711,-6.6779,-6.7184,-6.7895,-6.8673,-6.9383,-7.006,-7.0906,-7.121,-7.121,-7.5642,-7.6115,-7.7299,-8.0141,-8.1731,-8.3422,-8.5824,-8.711,-8.8023,-8.8767,-8.9275,-8.9376,-8.8937,-8.8598,-8.826,-8.782,-8.711,-8.6535,-8.6264,-8.552,-8.4606,-8.3558,-8.3084,-8.1663,-7.916,-7.6454,-7.3815,-7.1312,-6.8301,-6.6812,-6.6779,-6.6034,-6.6474,-6.7929,-6.8402,-6.9214,-7.0195,-7.0195,-7.0635,-7.1312,-7.1312,-7.1312,-7.1312,-7.1312,-7.1312,-7.1312,-7.1312,-7.1312,-7.1312,-7.1312,-7.1312,-7.1312,-7.1312,-7.1312,-7.1312,-7.1312,-7.1312,-7.1312,-7.1312,-7.1312,-7.1312,-7.1312,-7.1312,-7.1312,-7.1312,-7.1312,-7.1312,-7.1312,-7.1075,-7.0737,-7.0263,-6.9316,-6.847,-6.7996,-6.6643,-6.5595,-6.529,-6.4241,-6.3024,-6.1637,-6.0655,-5.9573,-5.8254,-5.734,-5.6731,-5.6596,-5.5074,-5.416,-5.416,-5.5141,-5.6122,-5.7002,-5.9032,-6.0622,-6.1738,-6.2618,-6.3497,-6.4377,-6.4241,-6.4309,-6.4613,-6.5053,-6.5493,-6.5933,-6.6237,-6.6542,-6.6846,-6.7286,-6.7624,-6.803,-6.9248,-6.9925,-7.0297,-7.1041,-7.1312,-7.1312,-7.8822,-7.872,-7.9566,-8.2847,-8.3152,-8.393,-8.6907,-8.711,-8.7008,-8.7313,-8.7989,-8.826,-8.7719,-8.7685,-8.7482,-8.6974,-8.623,-8.579,-8.579,-8.4843,-8.3964,-8.3219,-8.2475,-8.1054,-7.8822,-7.6251,-7.3849,-7.1616,-6.9079,-6.7692,-6.7489,-6.6948,-6.7354,-6.8605,-6.918,-6.9823,-7.0534,-7.0534,-7.0838,-7.1312,-7.1312,-7.1312,-7.1312,-7.1312,-7.1312,-7.1312,-7.1312,-7.1312,-7.1312,-7.1312,-7.1312,-7.1312,-7.1312,-7.1312,-7.1312,-7.1312,-7.1312,-7.1312,-7.1312,-7.1312,-7.1312,-7.1312,-7.1312,-7.1312,-7.1312,-7.1312,-7.1312,-7.1312,-7.1312,-7.1142,-7.0635,-6.9722,-6.891,-6.8335,-6.6981,-6.5933,-6.573,-6.4783,-6.37,-6.2516,-6.1434,-6.0385,-5.9438,-5.8186,-5.7577,-5.7881,-5.6258,-5.5243,-5.5243,-5.5953,-5.6833,-5.7848,-5.9573,-6.0723,-6.1298,-6.2787,-6.3632,-6.3835,-6.458,-6.5053,-6.5256,-6.5797,-6.6305,-6.6812,-6.6812,-6.6948,-6.7184,-6.7692,-6.8166,-6.8673,-6.9755,-7.0331,-7.0601,-7.1109,-7.1312,-7.1312,-8.0818,-8.1832,-8.305,-8.5351,-8.6366,-8.6602,-8.5926,-8.6433,-8.6636,-8.5892,-8.6467,-8.6941,-8.6941,-8.6941,-8.6941,-8.6907,-8.623,-8.579,-8.579,-8.437,-8.3186,-8.2441,-8.1697,-8.0276,-7.8044,-7.6487,-7.4593,-7.2394,-7.0872,-6.9789,-6.9079,-6.9079,-6.9451,-7.0161,-7.0161,-7.0601,-7.1312,-7.1312,-7.1312,-7.1312,-7.1312,-7.1312,-7.1312,-7.1312,-7.1312,-7.1312,-7.1312,-7.1312,-7.1312,-7.1312,-7.1312,-7.1312,-7.1312,-7.1312,-7.1312,-7.1312,-7.1312,-7.1312,-7.1312,-7.1312,-7.1312,-7.1312,-7.1312,-7.1312,-7.1312,-7.1312,-7.1312,-7.1312,-7.1312,-7.1312,-7.1312,-7.0094,-6.9113,-6.9079,-6.7793,-6.6542,-6.5797,-6.5662,-6.485,-6.2651,-6.2381,-6.1772,-6.025,-5.9404,-5.8693,-5.7949,-5.7205,-5.6765,-5.6765,-5.7476,-5.7881,-5.7881,-6.0114,-6.1298,-6.1298,-6.2787,-6.3869,-6.4613,-6.5324,-6.6068,-6.6779,-6.6779,-6.6812,-6.6812,-6.6812,-6.7218,-6.7895,-6.7895,-6.8808,-7.0161,-7.0195,-7.0635,-7.1312,-7.1312,-7.1312,-7.1312,-8.3422,-8.3761,-8.4133,-8.4877,-8.5182,-8.5452,-8.5723,-8.552,-8.5452,-8.5757,-8.552,-8.5351,-8.5351,-8.5824,-8.5926,-8.5384,-8.5148,-8.4979,-8.4979,-8.4065,-8.3186,-8.2441,-8.1224,-7.9735,-7.801,-7.6487,-7.4627,-7.2394,-7.1447,-7.0331,-6.9113,-6.962,-6.9958,-7.0195,-7.0737,-7.1075,-7.1312,-7.1312,-7.1312,-7.1312,-7.1312,-7.1312,-7.1312,-7.1312,-7.1312,-7.1312,-7.1312,-7.1312,-7.1312,-7.1312,-7.1312,-7.1312,-7.1312,-7.1312,-7.1312,-7.1312,-7.1312,-7.1312,-7.1312,-7.1312,-7.1312,-7.1312,-7.1312,-7.1312,-7.1312,-7.1312,-7.1312,-7.1312,-7.1312,-7.1142,-7.0635,-6.9755,-6.89,-6.8186,-6.7232,-6.6491,-6.6255,-6.5825,-6.5294,-6.4715,-6.3294,-6.2212,-6.1704,-6.0486,-5.9877,-6.0182,-5.9505,-5.8626,-5.7577,-5.7746,-5.8592,-6.0182,-6.14,-6.2279,-6.2787,-6.4275,-6.5121,-6.5358,-6.6102,-6.6846,-6.7557,-6.8132,-6.8368,-6.8368,-6.8368,-6.8504,-6.8774,-6.9248,-6.9755,-7.0229,-7.0737,-7.0974,-7.1007,-7.1007,-7.0916,-7.0779,-8.464,-8.464,-8.464,-8.464,-8.464,-8.4776,-8.5283,-8.4945,-8.4809,-8.5283,-8.4911,-8.464,-8.464,-8.5046,-8.5148,-8.4674,-8.464,-8.4505,-8.42,-8.349,-8.2746,-8.2035,-8.0581,-7.9228,-7.801,-7.6217,-7.4458,-7.28,-7.1819,-7.0838,-6.9958,-7.0398,-7.0601,-7.0635,-7.1109,-7.1312,-7.1312,-7.1312,-7.1312,-7.1312,-7.1312,-7.1312,-7.1312,-7.1312,-7.1312,-7.1312,-7.1312,-7.1312,-7.1312,-7.1312,-7.1312,-7.1312,-7.1312,-7.1312,-7.1312,-7.1312,-7.1312,-7.1312,-7.1312,-7.1312,-7.1312,-7.1312,-7.1312,-7.1312,-7.1312,-7.1312,-7.1312,-7.1312,-7.1312,-7.1176,-7.0703,-6.9789,-6.89,-6.8297,-6.7309,-6.6592,-6.6507,-6.6188,-6.5867,-6.5605,-6.4438,-6.3491,-6.314,-6.1801,-6.1124,-6.1553,-6.0651,-5.9945,-5.9607,-5.9336,-5.9945,-6.167,-6.2415,-6.3159,-6.3903,-6.5087,-6.5831,-6.6136,-6.7184,-6.7929,-6.8368,-6.8876,-6.9113,-6.9113,-6.9113,-6.9248,-6.9553,-6.9992,-7.0364,-7.0669,-7.1142,-7.1131,-7.0916,-7.0916,-7.0733,-7.0515,-8.464,-8.464,-8.464,-8.464,-8.464,-8.464,-8.464,-8.464,-8.464,-8.464,-8.464,-8.464,-8.464,-8.464,-8.464,-8.464,-8.464,-8.4302,-8.3558,-8.2813,-8.2069,-8.1325,-7.9837,-7.872,-7.801,-7.5777,-7.4221,-7.3409,-7.1988,-7.1312,-7.1312,-7.1312,-7.1312,-7.1312,-7.1312,-7.1312,-7.1312,-7.1312,-7.1312,-7.1312,-7.1312,-7.1312,-7.1312,-7.1312,-7.1312,-7.1312,-7.1312,-7.1312,-7.1312,-7.1312,-7.1312,-7.1312,-7.1312,-7.1312,-7.1312,-7.1312,-7.1312,-7.1312,-7.1312,-7.1312,-7.1312,-7.1312,-7.1312,-7.1312,-7.1312,-7.1312,-7.1312,-7.1312,-7.1312,-7.1312,-7.1244,-7.0094,-6.9103,-6.9002,-6.7742,-6.6711,-6.6464,-6.6601,-6.6416,-6.5531,-6.5564,-6.5301,-6.4454,-6.3235,-6.2431,-6.2199,-6.1042,-6.1028,-6.2482,-6.1941,-6.1907,-6.2516,-6.326,-6.4005,-6.4749,-6.5459,-6.6237,-6.6981,-6.847,-6.918,-6.918,-6.9248,-6.9248,-6.9248,-6.9248,-6.962,-7.0263,-7.0263,-7.0669,-7.1312,-7.1312,-7.1098,-7.087,-7.087,-7.0654,-7.0469,-8.464,-8.464,-8.464,-8.464,-8.464,-8.464,-8.464,-8.464,-8.464,-8.464,-8.464,-8.464,-8.464,-8.464,-8.464,-8.464,-8.464,-8.4302,-8.3558,-8.2813,-8.2069,-8.1325,-7.9329,-7.8179,-7.7976,-7.5777,-7.3984,-7.2665,-7.1751,-7.1312,-7.1312,-7.1312,-7.1312,-7.1312,-7.1312,-7.1312,-7.1312,-7.1312,-7.1312,-7.1312,-7.1312,-7.1312,-7.1312,-7.1312,-7.1312,-7.1312,-7.1312,-7.1312,-7.1312,-7.1312,-7.1312,-7.1312,-7.1312,-7.1312,-7.1312,-7.1312,-7.1312,-7.1312,-7.1312,-7.1312,-7.1312,-7.1312,-7.1312,-7.1312,-7.1312,-7.1312,-7.1312,-7.1312,-7.1312,-7.1142,-7.0567,-7.0028,-6.921,-6.7846,-6.72,-6.6667,-6.6055,-6.5999,-6.6019,-6.5947,-6.5487,-6.5084,-6.4874,-6.4036,-6.3583,-6.374,-6.3485,-6.3499,-6.4072,-6.4444,-6.4478,-6.4072,-6.4783,-6.5527,-6.6271,-6.7015,-6.7793,-6.8571,-6.9485,-6.9925,-6.9958,-7.0534,-7.0804,-7.0804,-7.0804,-7.0906,-7.1041,-7.1041,-7.1142,-7.1312,-7.1312,-7.1007,-7.0561,-7.0561,-7.033,-6.9988,-8.464,-8.464,-8.464,-8.464,-8.464,-8.464,-8.464,-8.464,-8.464,-8.464,-8.464,-8.464,-8.464,-8.4302,-8.4099,-8.4099,-8.4099,-8.3795,-8.305,-8.2002,-8.1088,-8.031,-7.8145,-7.6927,-7.6927,-7.4762,-7.3037,-7.1921,-7.1515,-7.1312,-7.1312,-7.1312,-7.1312,-7.1312,-7.1312,-7.1312,-7.1312,-7.1312,-7.1312,-7.1312,-7.1312,-7.1312,-7.1312,-7.1312,-7.1312,-7.1312,-7.1312,-7.1312,-7.1312,-7.1312,-7.1312,-7.1312,-7.1312,-7.1312,-7.1312,-7.1312,-7.1312,-7.1312,-7.1312,-7.1312,-7.1312,-7.1312,-7.1312,-7.1312,-7.1312,-7.1312,-7.1312,-7.1312,-7.1312,-7.1131,-7.0636,-6.9827,-6.8942,-6.7915,-6.7035,-6.6378,-6.589,-6.6168,-6.6456,-6.6456,-6.6176,-6.5985,-6.5855,-6.4972,-6.4464,-6.4623,-6.4404,-6.4536,-6.5087,-6.5797,-6.6034,-6.5628,-6.6305,-6.7083,-6.7861,-6.8571,-6.9147,-6.962,-7.0331,-7.0658,-7.0524,-7.1064,-7.1222,-7.1098,-7.1267,-7.1222,-7.1131,-7.1267,-7.1222,-7.1131,-7.1131,-7.087,-7.0469,-7.041,-7.0129,-6.9846,-8.464,-8.464,-8.464,-8.464,-8.464,-8.464,-8.464,-8.464,-8.464,-8.464,-8.464,-8.464,-8.464,-8.3964,-8.349,-8.349,-8.3287,-8.2915,-8.2272,-8.0953,-7.9837,-7.8991,-7.686,-7.5642,-7.554,-7.3477,-7.2056,-7.1312,-7.1312,-7.1312,-7.1312,-7.1312,-7.1312,-7.1312,-7.1312,-7.1312,-7.1312,-7.1312,-7.1312,-7.1312,-7.1312,-7.1312,-7.1312,-7.1312,-7.1312,-7.1312,-7.1312,-7.1312,-7.1312,-7.1312,-7.1312,-7.1312,-7.1312,-7.1312,-7.1312,-7.1312,-7.1312,-7.1312,-7.1312,-7.1312,-7.1312,-7.1312,-7.1312,-7.1312,-7.1312,-7.1312,-7.1312,-7.1312,-7.1312,-7.1222,-7.1007,-6.9873,-6.8841,-6.8417,-6.7179,-6.6189,-6.5813,-6.6545,-6.7057,-6.6834,-6.7113,-6.7224,-6.7,-6.6001,-6.544,-6.5483,-6.5026,-6.5169,-6.617,-6.6812,-6.7218,-6.732,-6.7827,-6.847,-6.9248,-6.9992,-7.0364,-7.0364,-7.1007,-7.1176,-7.0916,-7.1176,-7.1131,-7.087,-7.1131,-7.1086,-7.087,-7.1131,-7.1052,-7.087,-7.087,-7.0733,-7.0423,-7.027,-7.0035,-6.9798,-8.464,-8.464,-8.464,-8.464,-8.464,-8.464,-8.464,-8.464,-8.464,-8.464,-8.464,-8.464,-8.464,-8.3964,-8.349,-8.349,-8.234,-8.1562,-8.146,-8.0648,-7.96,-7.8213,-7.6589,-7.5405,-7.4796,-7.3206,-7.2056,-7.1312,-7.1312,-7.1312,-7.1312,-7.1312,-7.1312,-7.1312,-7.1312,-7.1312,-7.1312,-7.1312,-7.1312,-7.1312,-7.1312,-7.1312,-7.1312,-7.1312,-7.1312,-7.1312,-7.1312,-7.1312,-7.1312,-7.1312,-7.1312,-7.1312,-7.1312,-7.1312,-7.1312,-7.1312,-7.1312,-7.1312,-7.1312,-7.1312,-7.1312,-7.1312,-7.1312,-7.1312,-7.1312,-7.1312,-7.1312,-7.1312,-7.1312,-7.1267,-7.1267,-7.0669,-6.9824,-6.8585,-6.7778,-6.6941,-6.5636,-6.6145,-6.6609,-6.6564,-6.7173,-6.7538,-6.7492,-6.7293,-6.7388,-6.7759,-6.7133,-6.7252,-6.8538,-6.8673,-6.9011,-6.9654,-6.918,-6.9282,-6.9992,-7.077,-7.1142,-7.1142,-7.1278,-7.1176,-7.0916,-7.1176,-7.1007,-7.0561,-7.087,-7.0825,-7.0561,-7.087,-7.0825,-7.0561,-7.0825,-7.0641,-7.0223,-7.0176,-7.0035,-6.9798,-8.464,-8.464,-8.464,-8.464,-8.464,-8.464,-8.464,-8.464,-8.464,-8.464,-8.464,-8.464,-8.464,-8.3592,-8.2915,-8.2915,-8.1562,-8.0716,-8.0716,-7.9634,-7.8517,-7.7435,-7.554,-7.3984,-7.2868,-7.2157,-7.165,-7.1312,-7.1312,-7.1312,-7.1312,-7.1312,-7.1312,-7.1312,-7.1312,-7.1312,-7.1312,-7.1312,-7.1312,-7.1312,-7.1312,-7.1312,-7.1312,-7.1312,-7.1312,-7.1312,-7.1312,-7.1312,-7.1312,-7.1312,-7.1312,-7.1312,-7.1312,-7.1312,-7.1312,-7.1312,-7.1312,-7.1312,-7.1312,-7.1312,-7.1312,-7.1312,-7.1312,-7.1312,-7.1312,-7.1312,-7.1312,-7.1312,-7.1312,-7.1267,-7.1098,-7.0477,-6.9699,-6.8906,-6.7775,-6.6784,-6.6121,-6.6651,-6.7161,-6.7297,-6.7928,-6.844,-6.8577,-6.8257,-6.8159,-6.8484,-6.8226,-6.8324,-6.9079,-6.9485,-6.9857,-7.0161,-7.0263,-7.0466,-7.0804,-7.1142,-7.1312,-7.1312,-7.1176,-7.0961,-7.0687,-7.0825,-7.0687,-7.0363,-7.0561,-7.0515,-7.0363,-7.0595,-7.0549,-7.0363,-7.0456,-7.0363,-7.0176,-7.0035,-6.9893,-6.9798,-8.464,-8.464,-8.464,-8.464,-8.464,-8.464,-8.464,-8.464,-8.464,-8.464,-8.4471,-8.437,-8.437,-8.305,-8.2137,-8.2137,-8.0953,-8.0209,-8.0209,-7.8822,-7.7671,-7.6927,-7.4559,-7.2631,-7.1345,-7.1312,-7.1312,-7.1312,-7.1312,-7.1312,-7.1312,-7.1312,-7.1312,-7.1312,-7.1312,-7.1312,-7.1312,-7.1312,-7.1312,-7.1312,-7.1312,-7.1312,-7.1312,-7.1312,-7.1312,-7.1312,-7.1312,-7.1312,-7.1312,-7.1312,-7.1312,-7.1312,-7.1312,-7.1312,-7.1312,-7.1312,-7.1312,-7.1312,-7.1312,-7.1312,-7.1312,-7.1312,-7.1312,-7.1312,-7.1312,-7.1312,-7.1312,-7.1312,-7.1312,-7.1222,-7.1007,-7.0309,-6.9599,-6.9249,-6.7962,-6.6949,-6.6771,-6.7413,-6.7969,-6.8211,-6.8877,-6.9436,-6.9712,-6.9255,-6.8976,-6.9199,-6.9075,-6.9164,-6.962,-6.9992,-7.0263,-7.0432,-7.1007,-7.1312,-7.1312,-7.1222,-7.1222,-7.1222,-7.0916,-7.0687,-7.0423,-7.0469,-7.0363,-7.0129,-7.0363,-7.0316,-7.0129,-7.0363,-7.0316,-7.0082,-7.0209,-7.0129,-7.0082,-6.9893,-6.9798,-6.9798,-8.464,-8.464,-8.464,-8.464,-8.464,-8.464,-8.464,-8.464,-8.464,-8.464,-8.4031,-8.3592,-8.3592,-8.2238,-8.1359,-8.1359,-8.0648,-8.0209,-8.0209,-7.8822,-7.7671,-7.6927,-7.4052,-7.2124,-7.1345,-7.1312,-7.1312,-7.1312,-7.1312,-7.1312,-7.1312,-7.1312,-7.1312,-7.1312,-7.1312,-7.1312,-7.1312,-7.1312,-7.1312,-7.1312,-7.1312,-7.1312,-7.1312,-7.1312,-7.1312,-7.1312,-7.1312,-7.1312,-7.1312,-7.1312,-7.1312,-7.1312,-7.1312,-7.1312,-7.1312,-7.1312,-7.1312,-7.1312,-7.1312,-7.1312,-7.1312,-7.1312,-7.1312,-7.1312,-7.1312,-7.1312,-7.1312,-7.1312,-7.1312,-7.1312,-7.1267,-7.0837,-7.0247,-6.9578,-6.8931,-6.8307,-6.7645,-6.8142,-6.8699,-6.901,-6.9643,-7.0203,-7.0402,-7.0381,-7.044,-7.0702,-7.0108,-7.0097,-7.1064,-7.0534,-7.05,-7.121,-7.1278,-7.1312,-7.1312,-7.1052,-7.0916,-7.0916,-7.0654,-7.0456,-7.0223,-7.0456,-7.0236,-6.9846,-7.0082,-7.0082,-6.9846,-7.0129,-7.0082,-6.9846,-7.0082,-7.0035,-6.9846,-6.9798,-6.9798,-6.9798,-8.464,-8.464,-8.464,-8.464,-8.464,-8.464,-8.464,-8.464,-8.464,-8.464,-8.3964,-8.349,-8.349,-8.2171,-8.1291,-8.1291,-8.0615,-8.0006,-7.9566,-7.8551,-7.7029,-7.4864,-7.2834,-7.1616,-7.1312,-7.1312,-7.1312,-7.1312,-7.1312,-7.1312,-7.1312,-7.1312,-7.1312,-7.1312,-7.1312,-7.1312,-7.1312,-7.1312,-7.1312,-7.1312,-7.1312,-7.1312,-7.1312,-7.1312,-7.1312,-7.1312,-7.1312,-7.1312,-7.1312,-7.1312,-7.1312,-7.1312,-7.1312,-7.1312,-7.1312,-7.1312,-7.1312,-7.1312,-7.1312,-7.1312,-7.1312,-7.1312,-7.1312,-7.1312,-7.1312,-7.1312,-7.1312,-7.1312,-7.1312,-7.1312,-7.1312,-7.1007,-7.0632,-7.0226,-6.9469,-6.8792,-6.8307,-6.8506,-6.8892,-6.9294,-6.9942,-7.0549,-7.0961,-7.1007,-7.1007,-7.1131,-7.0906,-7.0918,-7.1312,-7.1041,-7.1007,-7.1312,-7.1312,-7.1312,-7.1312,-7.1222,-7.1052,-7.0916,-7.0608,-7.0376,-7.0176,-7.0129,-6.9988,-6.9798,-6.9893,-6.9893,-6.9798,-6.9893,-6.9893,-6.9798,-6.9893,-6.9893,-6.9798,-6.9798,-6.9798,-6.9798,-8.464,-8.464,-8.464,-8.464,-8.464,-8.464,-8.464,-8.464,-8.464,-8.464,-8.3964,-8.3422,-8.3186,-8.2035,-8.119,-8.0953,-8.0276,-7.9634,-7.916,-7.7739,-7.5912,-7.3578,-7.2326,-7.1548,-7.1312,-7.1312,-7.1312,-7.1312,-7.1312,-7.1312,-7.1312,-7.1312,-7.1312,-7.1312,-7.1312,-7.1312,-7.1312,-7.1312,-7.1312,-7.1312,-7.1312,-7.1312,-7.1312,-7.1312,-7.1312,-7.1312,-7.1312,-7.1312,-7.1312,-7.1312,-7.1312,-7.1312,-7.1312,-7.1312,-7.1312,-7.1312,-7.1312,-7.1312,-7.1312,-7.1481,-7.1616,-7.1379,-7.1312,-7.1312,-7.1312,-7.1312,-7.1312,-7.1312,-7.1312,-7.1312,-7.1312,-7.1052,-7.0825,-7.0687,-6.9975,-6.9364,-6.9177,-6.9177,-6.9317,-6.9766,-7.026,-7.0825,-7.1267,-7.1312,-7.1312,-7.1312,-7.1312,-7.1312,-7.1312,-7.1312,-7.1312,-7.1312,-7.1222,-7.1176,-7.1176,-7.1098,-7.0961,-7.0779,-7.0423,-7.0223,-7.0082,-6.9893,-6.9798,-6.9798,-6.9798,-6.9798,-6.9798,-6.9798,-6.9798,-6.9798,-6.9798,-6.9798,-6.9798,-6.9798,-6.9798,-6.9798,-8.464,-8.464,-8.464,-8.464,-8.464,-8.464,-8.464,-8.464,-8.464,-8.464,-8.3964,-8.3219,-8.2475,-8.1731,-8.0987,-8.0276,-7.9532,-7.9126,-7.9092,-7.6284,-7.4289,-7.351,-7.28,-7.2056,-7.1345,-7.1312,-7.1312,-7.1312,-7.1312,-7.1312,-7.1312,-7.1312,-7.1312,-7.1312,-7.1312,-7.1312,-7.1312,-7.1312,-7.1312,-7.1312,-7.1312,-7.1312,-7.1312,-7.1312,-7.1312,-7.1312,-7.1312,-7.1312,-7.1312,-7.1312,-7.1312,-7.1312,-7.1312,-7.1312,-7.1312,-7.1345,-7.1345,-7.1345,-7.1345,-7.1853,-7.2225,-7.1515,-7.1312,-7.1312,-7.1312,-7.1312,-7.1312,-7.1312,-7.1312,-7.1345,-7.1312,-7.1086,-7.0916,-7.0916,-7.0502,-7.0209,-7.0176,-7.0176,-7.027,-7.0469,-7.0733,-7.1007,-7.1267,-7.1312,-7.1312,-7.1312,-7.1312,-7.1345,-7.1345,-7.1345,-7.1312,-7.1312,-7.1086,-7.0916,-7.0916,-7.0608,-7.0515,-7.0469,-7.0035,-6.9798,-6.9798,-6.9798,-6.9798,-6.9798,-6.9798,-6.9798,-6.9798,-6.9798,-6.9798,-6.9798,-6.9798,-6.9798,-6.9798,-6.9798,-6.9798,-6.9798,-8.464,-8.464,-8.464,-8.464,-8.464,-8.464,-8.464,-8.464,-8.464,-8.464,-8.3964,-8.3219,-8.2475,-8.1731,-8.0987,-8.0276,-7.9532,-7.8686,-7.7638,-7.5709,-7.4289,-7.351,-7.2293,-7.1548,-7.1312,-7.1312,-7.1312,-7.1312,-7.1312,-7.1312,-7.1312,-7.1312,-7.1312,-7.1312,-7.1312,-7.1312,-7.1312,-7.1312,-7.1312,-7.1312,-7.1312,-7.1312,-7.1312,-7.1312,-7.1312,-7.1312,-7.1312,-7.1312,-7.1312,-7.1312,-7.1312,-7.1413,-7.1921,-7.209,-7.2191,-7.2699,-7.2834,-7.2834,-7.2834,-7.3003,-7.2868,-7.1616,-7.1684,-7.1954,-7.1447,-7.1718,-7.209,-7.209,-7.2496,-7.2788,-7.2603,-7.2511,-7.2156,-7.1325,-7.107,-7.0728,-7.0007,-7.0082,-7.027,-7.0469,-7.0733,-7.1007,-7.1267,-7.1312,-7.1515,-7.2022,-7.2563,-7.2834,-7.2834,-7.2834,-7.2597,-7.209,-7.1828,-7.1421,-7.0916,-7.0608,-7.069,-7.1037,-7.0395,-7.0254,-7.056,-7.003,-6.9798,-6.9798,-6.9798,-6.9798,-6.9798,-6.9798,-6.9798,-6.9798,-6.9798,-6.9798,-6.9798,-6.9798,-6.9798,-6.9798,-8.464,-8.464,-8.464,-8.464,-8.464,-8.464,-8.464,-8.464,-8.464,-8.464,-8.4234,-8.3558,-8.2509,-8.2002,-8.1325,-8.0276,-7.9261,-7.8145,-7.6961,-7.5473,-7.439,-7.395,-7.28,-7.1921,-7.1312,-7.1312,-7.1312,-7.1312,-7.1312,-7.1312,-7.1312,-7.1312,-7.1312,-7.1312,-7.1312,-7.1312,-7.1312,-7.1312,-7.1312,-7.1312,-7.1312,-7.1312,-7.1312,-7.1312,-7.1312,-7.1312,-7.1312,-7.1312,-7.1312,-7.1312,-7.1515,-7.1853,-7.2597,-7.2834,-7.2902,-7.3341,-7.3477,-7.3477,-7.3477,-7.3713,-7.3646,-7.2462,-7.2496,-7.2699,-7.2259,-7.2529,-7.2834,-7.2834,-7.3172,-7.3363,-7.292,-7.2746,-7.2337,-7.1306,-7.1251,-7.1142,-7.0628,-7.0876,-7.1184,-7.1479,-7.1337,-7.1308,-7.1706,-7.1661,-7.1931,-7.2766,-7.324,-7.3477,-7.3477,-7.3206,-7.2957,-7.2696,-7.2115,-7.1694,-7.15,-7.1231,-7.1023,-7.0842,-7.0315,-7.0173,-7.0461,-6.9997,-6.9798,-6.9798,-6.9798,-6.9798,-6.9798,-6.9798,-6.9798,-6.9798,-6.9798,-6.9798,-6.9798,-6.9798,-6.9798,-6.9798,-8.464,-8.464,-8.464,-8.464,-8.464,-8.464,-8.464,-8.464,-8.464,-8.464,-8.464,-8.4065,-8.2644,-8.2441,-8.1832,-8.0412,-7.8889,-7.7671,-7.6961,-7.554,-7.4695,-7.4627,-7.395,-7.2935,-7.1548,-7.1447,-7.1379,-7.1312,-7.1312,-7.1312,-7.1312,-7.1312,-7.1312,-7.1312,-7.1312,-7.1312,-7.1312,-7.1312,-7.1312,-7.1312,-7.1312,-7.1312,-7.1312,-7.1312,-7.1312,-7.1312,-7.1312,-7.1345,-7.1413,-7.1413,-7.1887,-7.2631,-7.3274,-7.3578,-7.368,-7.3781,-7.3849,-7.3883,-7.3883,-7.439,-7.4762,-7.4052,-7.3883,-7.3815,-7.3544,-7.3544,-7.3578,-7.3578,-7.3646,-7.3477,-7.2788,-7.2435,-7.206,-7.1228,-7.1325,-7.157,-7.174,-7.2119,-7.2552,-7.2996,-7.2297,-7.1942,-7.2404,-7.23,-7.2603,-7.3544,-7.3646,-7.368,-7.368,-7.3025,-7.2785,-7.3158,-7.2284,-7.1966,-7.2408,-7.2116,-7.1452,-7.0429,-7.0125,-7.003,-7.0096,-7.003,-6.9997,-6.9997,-6.9931,-6.9898,-6.9898,-6.9831,-6.9798,-6.9798,-6.9798,-6.9798,-6.9798,-6.9798,-6.9798,-6.9798,-8.464,-8.464,-8.464,-8.464,-8.464,-8.464,-8.464,-8.464,-8.464,-8.464,-8.464,-8.4268,-8.3355,-8.2746,-8.2035,-8.1122,-7.916,-7.7671,-7.6961,-7.6014,-7.5202,-7.4627,-7.4458,-7.395,-7.3037,-7.2462,-7.1887,-7.1312,-7.1312,-7.1312,-7.1312,-7.1312,-7.1312,-7.1312,-7.1312,-7.1312,-7.1312,-7.1312,-7.1312,-7.1312,-7.1312,-7.1312,-7.1312,-7.1312,-7.1312,-7.1312,-7.1312,-7.1684,-7.2157,-7.2157,-7.2665,-7.3274,-7.3443,-7.4289,-7.5337,-7.598,-7.6555,-7.6995,-7.6995,-7.713,-7.7198,-7.7063,-7.6995,-7.6386,-7.4018,-7.395,-7.4356,-7.4356,-7.483,-7.5121,-7.4714,-7.4585,-7.4205,-7.3116,-7.3005,-7.2759,-7.2047,-7.2211,-7.2456,-7.2552,-7.2672,-7.2821,-7.2949,-7.3595,-7.414,-7.4356,-7.4708,-7.4902,-7.4902,-7.4623,-7.4176,-7.3644,-7.3268,-7.2856,-7.2408,-7.2116,-7.215,-7.2481,-7.1819,-7.1819,-7.2382,-7.1786,-7.1521,-7.1488,-7.0924,-7.0659,-7.0626,-7.003,-6.9798,-6.9798,-6.9798,-6.9798,-6.9798,-6.9798,-6.9798,-6.9798,-8.464,-8.464,-8.464,-8.464,-8.464,-8.464,-8.464,-8.464,-8.464,-8.464,-8.464,-8.42,-8.3084,-8.2644,-8.1832,-8.0378,-7.8855,-7.7671,-7.6961,-7.6149,-7.554,-7.5134,-7.5134,-7.4796,-7.4052,-7.3308,-7.2563,-7.1819,-7.1819,-7.165,-7.1312,-7.1312,-7.1312,-7.1312,-7.1312,-7.1312,-7.1312,-7.1312,-7.1312,-7.1345,-7.1684,-7.1819,-7.1819,-7.1819,-7.1819,-7.1819,-7.1819,-7.2293,-7.2969,-7.3341,-7.3713,-7.4086,-7.4424,-7.5337,-7.6352,-7.6792,-7.7401,-7.7908,-7.757,-7.7705,-7.7908,-7.7536,-7.7739,-7.757,-7.598,-7.5676,-7.5811,-7.6149,-7.5946,-7.5715,-7.5796,-7.5463,-7.4932,-7.4089,-7.3907,-7.3675,-7.3309,-7.3342,-7.3538,-7.3782,-7.3591,-7.3533,-7.3676,-7.4249,-7.485,-7.5417,-7.5677,-7.5766,-7.5634,-7.5185,-7.4719,-7.4204,-7.3689,-7.3391,-7.3243,-7.3144,-7.3243,-7.3608,-7.2515,-7.2216,-7.2581,-7.2183,-7.2018,-7.1951,-7.1223,-7.0891,-7.0825,-7.0096,-6.9798,-6.9798,-6.9798,-6.9798,-6.9798,-6.9798,-6.9798,-6.9831,-8.464,-8.464,-8.464,-8.464,-8.464,-8.464,-8.464,-8.464,-8.464,-8.464,-8.4505,-8.3964,-8.2746,-8.2272,-8.1291,-7.9464,-7.8382,-7.7536,-7.6927,-7.6149,-7.5709,-7.5709,-7.5709,-7.5405,-7.4796,-7.4187,-7.3375,-7.2394,-7.2259,-7.1921,-7.1312,-7.1312,-7.1312,-7.1312,-7.1312,-7.1312,-7.1312,-7.1312,-7.1312,-7.1379,-7.209,-7.2326,-7.2225,-7.2496,-7.2496,-7.2428,-7.2529,-7.3071,-7.3781,-7.439,-7.4695,-7.4897,-7.5506,-7.6352,-7.7096,-7.7232,-7.7807,-7.8247,-7.7638,-7.7908,-7.8213,-7.7604,-7.7908,-7.8382,-7.8382,-7.7604,-7.7096,-7.7841,-7.6811,-7.5971,-7.6503,-7.5936,-7.5238,-7.4956,-7.4738,-7.4687,-7.4872,-7.4889,-7.5006,-7.5283,-7.4597,-7.421,-7.4498,-7.4789,-7.5411,-7.6417,-7.6521,-7.6373,-7.604,-7.5372,-7.4855,-7.4556,-7.389,-7.3758,-7.4221,-7.4221,-7.4221,-7.4221,-7.2945,-7.2382,-7.2382,-7.2382,-7.2382,-7.2316,-7.1455,-7.109,-7.1024,-7.0163,-6.9798,-6.9798,-6.9798,-6.9798,-6.9798,-6.9931,-6.9997,-7.0096,-8.464,-8.464,-8.464,-8.464,-8.464,-8.464,-8.464,-8.464,-8.464,-8.464,-8.4065,-8.3558,-8.3355,-8.1629,-8.0378,-8.0073,-7.8213,-7.6995,-7.6893,-7.6149,-7.5709,-7.5709,-7.5709,-7.5642,-7.554,-7.5439,-7.4424,-7.2394,-7.1751,-7.1413,-7.1312,-7.1312,-7.1312,-7.1312,-7.1312,-7.1312,-7.1312,-7.1312,-7.1312,-7.1379,-7.209,-7.2022,-7.1616,-7.2868,-7.2935,-7.2496,-7.3105,-7.3815,-7.4492,-7.4593,-7.5033,-7.5574,-7.5676,-7.669,-7.7976,-7.8619,-7.9329,-7.987,-7.9769,-7.9837,-7.987,-7.9769,-7.9837,-7.9904,-7.9904,-7.8348,-7.7096,-7.7841,-7.7104,-7.6537,-7.7311,-7.7095,-7.6743,-7.6438,-7.6387,-7.6284,-7.6078,-7.6078,-7.5897,-7.5351,-7.5022,-7.4996,-7.5479,-7.6183,-7.669,-7.6811,-7.6976,-7.6827,-7.6107,-7.5521,-7.4935,-7.4305,-7.4172,-7.4122,-7.4221,-7.4221,-7.4221,-7.4221,-7.4023,-7.3923,-7.3923,-7.3923,-7.3923,-7.3807,-7.2448,-7.1852,-7.1753,-7.0361,-6.9798,-6.9798,-6.9798,-6.9798,-6.9864,-7.0527,-7.0759,-7.0858,-8.464,-8.464,-8.464,-8.464,-8.464,-8.464,-8.464,-8.464,-8.464,-8.464,-8.4336,-8.3964,-8.3524,-8.1866,-8.0479,-7.9667,-7.8314,-7.7333,-7.6927,-7.6555,-7.6555,-7.6961,-7.6589,-7.6352,-7.6352,-7.554,-7.4627,-7.3646,-7.2902,-7.2326,-7.1921,-7.1515,-7.1312,-7.1312,-7.1312,-7.1312,-7.1345,-7.1751,-7.1921,-7.2022,-7.3172,-7.3443,-7.324,-7.3883,-7.3916,-7.368,-7.4018,-7.4593,-7.5202,-7.5202,-7.5743,-7.6352,-7.6352,-7.7401,-7.8686,-7.9025,-7.9634,-8.0107,-7.9701,-7.9904,-8.0107,-7.9701,-7.9904,-8.0209,-8.0209,-7.9126,-7.8348,-7.9058,-7.8082,-7.7362,-7.8421,-7.7998,-7.7522,-7.7694,-7.7376,-7.7025,-7.692,-7.6362,-7.5821,-7.5355,-7.5332,-7.547,-7.5709,-7.642,-7.7014,-7.7273,-7.7212,-7.6994,-7.6508,-7.5752,-7.4984,-7.4255,-7.4221,-7.4221,-7.4221,-7.4221,-7.4221,-7.4221,-7.4652,-7.4619,-7.4221,-7.4221,-7.4221,-7.4155,-7.3078,-7.2382,-7.1918,-7.0858,-7.0394,-7.0394,-7.0394,-7.0659,-7.1057,-7.1388,-7.1521,-7.162]},{"header":{"parameterUnit":"m.s-1","parameterCategory":1,"la1":30.6,"la2":28.766,"lo1":-90.7593,"lo2":-88.6598,"dy":0.0162,"dx":0.0183,"nx":116,"ny":114,"refTime":"2023-04-03T06:00:00:Z","depth":0,"parameterNumber":3,"parameterNumberName":"V-component_of_WINDS"},"data":[0.0,0.0,0.0,0.0,0.0,0.0,0.0,0.0,0.0,0.0,0.0,0.0,0.0,0.0,0.0,0.0,0.0,0.0,0.0,0.0,0.0,0.0,0.0,0.0,0.0,0.0,0.0,0.0,0.0,0.0,0.0,0.0,0.0,0.0,0.0,0.0,0.0,0.0,0.0,0.0,0.0,0.0,0.0,0.0,0.0,0.0,0.0,0.0,0.0,0.0,0.0,0.0,0.0,0.0,0.0,0.0,0.0,0.0,0.0,0.0,0.0,0.0,0.0,0.0,0.0,0.0,0.0,0.0,0.0,0.0,0.0,0.0,0.0,0.0,0.0,0.0,0.0,0.0,0.0,0.0,0.0,0.0,0.0,0.0,0.0,0.0,0.0,0.0,0.0,0.0,0.0,0.0,0.0,0.0,0.0,0.0,0.0,0.0,0.0,0.0,0.0,0.0,0.0,0.0,0.0,0.0,0.0,0.0,0.0,0.0,0.0,0.0,0.0,0.0,0.0,0.0,0.0,0.0,0.0,0.0,0.0,0.0,0.0,0.0,0.0,0.0,0.0,0.0,0.0,0.0,0.0,0.0,0.0,0.0,0.0,0.0,0.0,0.0,0.0,0.0,0.0,0.0,0.0,0.0,0.0,0.0,0.0,0.0,0.0,0.0,0.0,0.0,0.0,0.0,0.0,0.0,0.0,0.0,0.0,0.0,0.0,0.0,0.0,0.0,0.0,0.0,0.0,0.0,0.0,0.0,0.0,0.0,0.0,0.0,0.0,0.0,0.0,0.0,0.0,0.0,0.0,0.0,0.0,0.0,0.0,0.0,0.0,0.0,0.0,0.0,0.0,0.0,0.0,0.0,0.0,0.0,0.0,0.0,0.0,0.0,0.0,0.0,0.0,0.0,0.0,0.0,0.0,0.0,0.0,0.0,0.0,0.0,0.0,0.0,0.0,0.0,0.0,0.0,0.0,0.0,0.0,0.0,0.0,0.0,0.0,0.0,0.0,0.0,0.0,0.0,0.0,0.0,0.0,0.0,0.0,0.0,0.0,0.0,0.0,0.0,0.0,0.0,0.0,0.0,0.0,0.0,0.0,0.0,0.0,0.0,0.0,0.0,0.0,0.0,0.0,0.0,0.0,0.0,0.0,0.0,0.0,0.0,0.0,0.0,0.0,0.0,0.0,0.0,0.0,0.0,0.0,0.0,0.0,0.0,0.0,0.0,0.0,0.0,0.0,0.0,0.0,0.0,0.0,0.0,0.0,0.0,0.0,0.0,0.0,0.0,0.0,0.0,0.0,0.0,0.0,0.0,0.0,0.0,0.0,0.0,0.0,0.0,0.0,0.0,0.0,0.0,0.0,0.0,0.0,0.0,0.0,0.0,0.0,0.0,0.0,0.0,0.0,0.0,0.0,0.0,0.0,0.0,0.0,0.0,0.0,0.0,0.0,0.0,0.0,0.0,0.0,0.0,0.0,0.0,0.0,0.0,0.0,0.0,0.0,0.0,0.0,0.0,0.0,0.0,0.0,0.0,0.0,0.0,0.0,0.0,0.0,0.0,0.0,0.0,0.0,0.0,0.0,0.0,0.0,0.0,0.0,0.0,0.0,0.0,0.0,0.0,0.0,0.0,0.0,0.0,0.0,0.0,0.0,0.0,0.0,0.0,0.0,0.0,0.0,0.0,0.0,0.0,0.0,0.0,0.0,0.0,0.0,0.0,0.0,0.0,0.0,0.0,0.0,0.0,0.0,0.0,0.0,0.0,0.0,0.0,0.0,0.0,0.0,0.0,0.0,0.0,0.0,0.0,0.0,0.0,0.0,0.0,0.0,0.0,0.0,0.0,0.0,0.0,0.0,0.0,0.0,0.0,0.0,0.0,0.0,0.0,0.0,0.0,0.0,0.0,0.0,0.0,0.0,0.0,0.0,0.0,0.0,0.0,0.0,0.0,0.0,0.0,0.0,0.0,0.0,0.0,0.0,0.0,0.0,0.0,0.0,0.0,0.0,0.0,0.0,0.0,0.0,0.0,0.0,0.0,0.0,0.0,0.0,0.0,0.0,0.0,0.0,0.0,0.0,0.0,0.0,0.0,0.0,0.0,0.0,0.0,0.0,0.0,0.0,0.0,0.0,0.0,0.0,0.0,0.0,0.0,0.0,0.0,0.0,0.0,0.0,0.0,0.0,0.0,0.0,0.0,0.0,0.0,0.0,0.0,0.0,0.0,0.0,0.0,0.0,0.0,0.0,0.0,0.0,0.0,0.0,0.0,0.0,0.0,0.0,0.0,0.0,0.0,0.0,0.0,0.0,0.0,0.0,0.0,0.0,0.0,0.0,0.0,0.0,0.0,0.0,0.0,0.0,0.0,0.0,0.0,0.0,0.0,0.0,0.0,0.0,0.0,0.0,0.0,0.0,0.0,0.0,0.0,0.0,0.0,0.0,0.0,0.0,0.0,0.0,0.0,0.0,0.0,0.0,0.0,0.0,0.0,0.0,0.0,0.0,0.0,0.0,0.0,0.0,0.0,0.0,0.0,0.0,0.0,0.0,0.0,0.0,0.0,0.0,0.0,0.0,0.0,0.0,0.0,0.0,0.0,0.0,0.0,0.0,0.0,0.0,0.0,0.0,0.0,0.0,0.0,0.0,0.0,0.0,0.0,0.0,0.0,0.0,0.0,0.0,0.0,0.0,0.0,0.0,0.0,0.0,0.0,0.0,0.0,0.0,0.0,0.0,0.0,0.0,0.0,0.0,0.0,0.0,0.0,0.0,0.0,0.0,0.0,0.0,0.0,0.0,0.0,0.0,0.0,0.0,0.0,0.0,0.0,0.0,0.0,0.0,0.0,0.0,0.0,0.0,0.0,0.0,0.0,0.0,0.0,0.0,0.0,0.0,0.0,0.0,0.0,0.0,0.0,0.0,0.0,0.0,0.0,0.0,0.0,0.0,0.0,0.0,0.0,0.0,0.0,0.0,0.0,0.0,0.0,0.0,0.0,0.0,0.0,0.0,0.0,0.0,0.0,0.0,0.0,0.0,0.0,0.0,0.0,0.0,0.0,0.0,0.0,0.0,0.0,0.0,0.0,0.0,0.0,0.0,0.0,0.0,0.0,0.0,0.0,0.0,0.0,0.0,0.0,0.0,0.0,0.0,0.0,0.0,0.0,0.0,0.0,0.0,0.0,0.0,0.0,0.0,0.0,0.0,0.0,0.0,0.0,0.0,0.0,0.0,0.0,0.0,0.0,0.0,0.0,0.0,0.0,0.0,0.0,0.0,0.0,0.0,0.0,0.0,0.0,0.0,0.0,0.0,0.0,0.0,0.0,0.0,0.0,0.0,0.0,0.0,0.0,0.0,0.0,0.0,0.0,0.0,0.0,0.0,0.0,0.0,0.0,0.0,0.0,0.0,0.0,0.0,0.0,0.0,0.0,0.0,0.0,0.0,0.0,0.0,0.0,0.0,0.0,0.0,0.0,0.0,0.0,0.0,0.0,0.0,0.0,0.0,0.0,0.0,0.0,0.0,0.0,0.0,0.0,0.0,0.0,0.0,0.0,0.0,0.0,0.0,0.0,0.0,0.0,0.0,0.0,0.0,0.0,0.0,0.0,0.0,0.0,0.0,0.0,0.0,0.0,0.0,0.0,0.0,0.0,0.0,0.0,0.0,0.0,0.0,0.0,0.0,0.0,0.0,0.0,0.0,0.0,0.0,0.0,0.0,0.0,0.0,0.0,0.0,0.0,0.0,0.0,0.0,0.0,0.0,0.0,0.0,0.0,0.0,0.0,0.0,0.0,0.0,0.0,0.0,0.0,0.0,0.0,0.0,0.0,0.0,0.0,0.0,0.0,0.0,0.0,0.0,0.0,0.0,0.0,0.0,0.0,0.0,0.0,0.0,0.0,0.0,0.0,0.0,0.0,0.0,0.0,0.0,0.0,0.0,0.0,0.0,0.0,0.0,0.0,0.0,0.0,0.0,0.0,0.0,0.0,0.0,0.0,0.0,0.0,0.0,0.0,0.0,0.0,0.0,0.0,0.0,0.0,0.0,0.0,0.0,0.0,0.0,0.0,0.0,0.0,0.0,0.0,0.0,0.0,0.0,0.0,0.0,0.0,0.0,0.0,0.0,0.0,0.0,0.0,0.0,0.0,0.0,0.0,0.0,0.0,0.0,0.0,0.0,0.0,0.0,0.0,0.0,0.0,0.0,0.0,0.0,0.0,0.0,0.0,0.0,0.0,0.0,0.0,0.0,0.0,0.0,0.0,0.0,0.0,0.0,0.0,0.0,0.0,0.0,0.0,0.0,0.0,0.0,0.0,0.0,0.0,0.0,0.0,0.0,0.0,0.0,0.0,0.0,0.0,0.0,0.0,0.0,0.0,0.0,0.0,0.0,0.0,0.0,0.0,0.0,0.0,0.0,0.0,0.0,0.0,0.0,0.0,0.0,0.0,0.0,0.0,0.0,0.0,0.0,0.0,0.0,0.0,0.0,0.0,0.0,0.0,0.0,0.0,0.0,0.0,0.0,0.0,0.0,0.0,0.0,0.0,0.0,0.0,0.0,0.0,0.0,0.0,0.0,0.0,0.0,0.0,0.0,0.0,0.0,0.0,0.0,0.0,0.0,0.0,0.0,0.0,0.0,0.0,0.0,0.0,0.0,0.0,0.0,0.0,0.0,0.0,0.0,0.0,0.0,0.0,0.0,0.0,0.0,0.0,0.0,0.0,0.0,0.0,0.0,0.0,0.0,0.0,0.0,0.0,0.0,0.0,0.0,0.0,0.0,0.0,0.0,0.0,0.0,0.0,0.0,0.0,0.0,0.0,0.0,0.0,0.0,0.0,0.0,0.0,0.0,0.0,0.0,0.0,0.0,0.0,0.0,0.0,0.0,0.0,0.0,0.0,0.0,0.0,0.0,0.0,0.0,0.0,0.0,0.0,0.0,0.0,0.0,0.0,0.0,0.0,0.0,0.0,0.0,0.0,0.0,0.0,0.0,0.0,0.0,0.0,0.0,0.0,0.0,0.0,0.0,0.0,0.0,0.0,0.0,0.0,0.0,0.0,0.0,0.0,0.0,0.0,0.0,0.0,0.0,0.0,0.0,0.0,0.0,0.0,0.0,0.0,0.0,0.0,0.0,0.0,0.0,0.0,0.0,0.0,0.0,0.0,0.0,0.0,0.0,0.0,0.0,0.0,0.0,0.0,0.0,0.0,0.0,0.0,0.0,0.0,0.0,0.0,0.0,0.0,0.0,0.0,0.0,0.0,0.0,0.0,0.0,0.0,0.0,0.0,0.0,0.0,0.0,0.0,0.0,0.0,0.0,0.0,0.0,0.0,0.0,0.0,0.0,0.0,0.0,0.0,0.0,0.0,0.0,0.0,0.0,0.0,0.0,0.0,0.0,0.0,0.0,0.0,0.0,0.0,0.0,0.0,0.0,0.0,0.0,0.0,0.0,0.0,0.0,0.0,0.0,0.0,0.0,0.0,0.0,0.0,0.0,0.0,0.0,0.0,0.0,0.0,0.0,0.0,0.0,0.0,0.0,0.0,0.0,0.0,0.0,0.0,0.0,0.0,0.0,0.0,0.0,0.0,0.0,0.0,0.0,0.0,0.0,0.0,0.0,0.0,0.0,0.0,0.0,0.0,0.0,0.0,0.0,0.0,0.0,0.0,0.0,0.0,0.0,0.0,0.0,0.0,0.0,0.0,0.0,0.0,0.0,0.0,0.0,0.0,0.0,0.0,0.0,0.0,0.0,0.0,0.0,0.0,0.0,0.0,0.0,0.0,0.0,0.0,0.0,0.0,0.0,0.0,0.0,0.0,0.0,0.0,0.0,0.0,0.0,0.0,0.0,0.0,0.0,0.0,0.0,0.0,0.0,0.0,0.0,0.0,0.0,0.0,0.0,0.0,0.0,0.0,0.0,0.0,0.0,0.0,0.0,0.0,0.0,0.0,0.0,0.0,0.0,0.0,0.0,0.0,0.0,0.0,0.0,0.0,0.0,0.0,0.0,0.0,0.0,0.0,0.0,0.0,0.0,0.0,0.0,0.0,0.0,0.0,0.0,0.0,0.0,0.0,0.0,0.0,0.0,0.0,0.0,0.0,0.0,0.0,2.454,2.4013,0.0,0.0,0.0,0.0,0.0,0.0,0.0,0.0,0.0,0.0,0.0,0.0,0.0,0.0,0.0,0.0,0.0,0.0,0.0,0.0,0.0,0.0,0.0,0.0,0.0,0.0,0.0,0.0,0.0,0.0,0.0,0.0,0.0,0.0,0.0,0.0,0.0,0.0,2.6339,2.6091,2.5783,2.5769,2.5681,2.548,0.0,0.0,0.0,0.0,0.0,0.0,0.0,0.0,0.0,0.0,0.0,0.0,0.0,0.0,0.0,0.0,0.0,0.0,0.0,0.0,0.0,0.0,0.0,0.0,0.0,0.0,0.0,0.0,0.0,0.0,0.0,0.0,0.0,0.0,0.0,0.0,0.0,0.0,0.0,0.0,0.0,0.0,0.0,0.0,0.0,0.0,0.0,0.0,0.0,0.0,0.0,0.0,0.0,0.0,0.0,0.0,0.0,0.0,0.0,0.0,0.0,0.0,0.0,0.0,0.0,0.0,0.0,0.0,0.0,0.0,2.5783,2.5096,0.0,0.0,0.0,0.0,0.0,0.0,0.0,0.0,0.0,0.0,0.0,0.0,0.0,0.0,0.0,0.0,0.0,0.0,0.0,0.0,0.0,0.0,0.0,0.0,2.8344,2.893,2.9032,0.0,0.0,0.0,0.0,0.0,0.0,0.0,0.0,2.7247,2.6881,2.65,2.6617,2.6398,2.5886,2.631,2.6339,2.6032,2.6018,0.0,0.0,0.0,0.0,0.0,0.0,0.0,0.0,0.0,0.0,0.0,0.0,0.0,0.0,0.0,0.0,0.0,0.0,0.0,0.0,0.0,0.0,0.0,0.0,0.0,0.0,0.0,0.0,0.0,0.0,0.0,0.0,0.0,0.0,0.0,0.0,0.0,0.0,0.0,0.0,0.0,0.0,0.0,0.0,0.0,0.0,0.0,0.0,0.0,0.0,0.0,0.0,0.0,0.0,0.0,0.0,0.0,0.0,0.0,0.0,0.0,0.0,0.0,2.8417,2.8886,2.9383,2.9076,2.9164,2.9471,2.7817,2.7013,2.6822,2.6661,0.0,0.0,0.0,0.0,0.0,0.0,0.0,0.0,0.0,0.0,0.0,0.0,0.0,0.0,0.0,0.0,0.0,0.0,0.0,0.0,0.0,2.8432,2.8915,2.9281,2.9573,2.9617,0.0,0.0,0.0,0.0,0.0,0.0,2.7815,2.7569,2.7115,2.65,2.7071,2.7305,2.7232,2.811,2.8344,2.7993,2.6632,2.7184,2.9142,0.0,0.0,0.0,0.0,0.0,0.0,0.0,0.0,0.0,0.0,0.0,0.0,0.0,0.0,0.0,0.0,0.0,0.0,0.0,0.0,0.0,0.0,0.0,0.0,0.0,0.0,0.0,0.0,0.0,0.0,0.0,0.0,0.0,0.0,0.0,0.0,0.0,0.0,0.0,0.0,0.0,2.5301,2.5388,0.0,0.0,0.0,0.0,0.0,0.0,0.0,0.0,0.0,0.0,0.0,0.0,0.0,2.7771,2.8183,2.9281,2.9961,3.0064,3.0876,3.1329,3.1402,3.1081,3.1417,3.2237,3.1695,0.0,2.811,2.7276,0.0,0.0,0.0,0.0,0.0,0.0,0.0,0.0,0.0,0.0,0.0,0.0,0.0,0.0,0.0,0.0,0.0,0.0,0.0,0.0,0.0,2.852,2.9017,2.9354,2.9837,2.9925,2.9412,0.0,0.0,0.0,0.0,2.802,2.7874,2.7276,2.6881,2.6778,2.7247,2.7656,2.8022,2.8447,2.8651,2.8666,2.7949,2.794,2.8456,2.7943,0.0,0.0,0.0,0.0,0.0,0.0,0.0,0.0,0.0,0.0,0.0,0.0,0.0,0.0,0.0,0.0,0.0,0.0,0.0,0.0,0.0,0.0,0.0,0.0,0.0,0.0,0.0,0.0,0.0,0.0,0.0,0.0,0.0,0.0,0.0,0.0,0.0,0.0,0.0,2.514,2.5944,2.5579,2.6149,2.6296,0.0,0.0,0.0,0.0,0.0,0.0,0.0,0.0,0.0,2.8856,2.9149,2.9632,3.032,3.0876,3.1432,3.1988,3.2588,3.3071,3.3422,3.3085,3.3276,3.3846,3.351,3.2632,3.13,2.9764,2.912,2.9016,0.0,0.0,0.0,0.0,3.1825,3.2926,0.0,0.0,0.0,0.0,0.0,0.0,0.0,0.0,0.0,0.0,0.0,0.0,2.8154,2.8827,2.9398,2.972,3.0188,3.0232,2.9661,2.969,0.0,0.0,0.0,2.7801,2.77,2.6998,2.6866,2.7364,2.7847,2.8417,2.9047,2.9222,2.9412,2.9632,2.9632,2.9282,2.8732,2.7866,2.866,3.0429,0.0,0.0,0.0,0.0,0.0,0.0,0.0,0.0,0.0,0.0,0.0,0.0,0.0,0.0,0.0,0.0,0.0,0.0,0.0,0.0,0.0,0.0,0.0,0.0,0.0,0.0,0.0,0.0,0.0,0.0,0.0,0.0,0.0,0.0,0.0,0.0,0.0,2.5622,2.6486,2.574,2.6808,2.7115,0.0,0.0,0.0,0.0,0.0,0.0,2.8198,2.912,3.0042,3.1032,3.1124,3.1607,3.2412,3.2573,3.3056,3.3861,3.4183,3.4636,3.5178,3.4944,3.4958,3.5178,3.4929,3.4872,3.477,3.2618,3.1649,3.1497,3.1573,3.2219,3.3232,3.3858,3.4918,3.6152,0.0,0.0,0.0,0.0,0.0,0.0,0.0,0.0,0.0,0.0,0.0,2.8154,2.8769,2.9705,3.0407,3.0729,3.0773,3.0656,3.0401,2.9734,2.912,2.8491,2.8063,2.7656,2.7056,2.6983,2.7422,2.8359,2.9295,3.0071,3.0715,3.1344,3.1637,3.1651,3.1651,3.1836,3.2079,2.8867,2.9419,3.2257,3.0463,0.0,0.0,0.0,0.0,0.0,0.0,0.0,0.0,0.0,0.0,0.0,0.0,0.0,0.0,0.0,0.0,0.0,0.0,0.0,0.0,0.0,0.0,0.0,0.0,0.0,0.0,0.0,0.0,0.0,0.0,0.0,0.0,0.0,0.0,0.0,0.0,0.0,0.0,2.6105,2.792,0.0,0.0,0.0,0.0,2.7408,2.8827,2.9866,3.0269,3.1124,3.1959,3.2632,3.3246,3.3729,3.4095,3.4695,3.5163,3.5625,3.5851,3.6173,3.6509,3.6495,3.6495,3.6509,3.6495,3.7266,3.8212,3.547,3.3695,3.3002,3.5308,3.5741,3.5296,3.7494,3.835,3.8443,0.0,0.0,0.0,0.0,0.0,0.0,0.0,0.0,0.0,2.7144,2.7803,2.8578,2.9427,3.0378,3.1183,3.171,3.1768,3.1534,3.1007,3.1118,3.0869,3.0192,2.9498,2.8547,2.7379,2.751,2.8286,2.9661,3.0217,3.1022,3.2076,3.2105,3.2222,3.2427,3.2427,3.3653,3.5493,3.0953,3.0064,3.1657,3.0429,3.1198,0.0,0.0,0.0,0.0,0.0,0.0,0.0,0.0,0.0,0.0,0.0,0.0,0.0,0.0,0.0,0.0,0.0,0.0,0.0,0.0,0.0,0.0,0.0,0.0,0.0,0.0,0.0,0.0,0.0,0.0,0.0,0.0,0.0,0.0,0.0,0.0,0.0,2.8798,3.0246,0.0,2.9412,2.9412,2.9442,2.9339,3.0627,3.1563,3.1885,3.2822,3.3641,3.4285,3.4534,3.5002,3.5749,3.5763,3.5939,3.6261,3.6378,3.6495,3.6597,3.7946,3.8616,3.8714,3.9948,4.0733,4.1006,4.0652,3.9721,3.8421,3.7263,3.791,3.951,4.0374,4.082,4.1016,0.0,0.0,0.0,0.0,0.0,0.0,0.0,0.0,2.6939,2.7276,2.7964,2.8886,3.0056,3.0964,3.1783,3.2544,3.231,3.1885,3.1344,3.1133,3.0778,3.0099,2.9328,2.8592,2.7803,2.833,2.9325,3.0832,3.1271,3.1973,3.2924,3.2822,3.2895,3.3085,3.2983,3.4375,3.6673,3.3146,3.2346,3.3316,3.1253,3.2137,3.4452,0.0,0.0,0.0,0.0,0.0,0.0,0.0,0.0,0.0,0.0,0.0,0.0,0.0,0.0,0.0,0.0,0.0,0.0,0.0,0.0,0.0,0.0,0.0,0.0,0.0,0.0,0.0,0.0,0.0,0.0,0.0,0.0,0.0,0.0,2.8534,3.0232,3.0773,3.2178,3.2676,3.1593,3.149,3.1446,3.1329,3.2427,3.3246,3.3554,3.4388,3.5105,3.5631,3.5646,3.5953,3.6597,3.6392,3.6392,3.6612,3.7273,3.7666,3.7765,3.977,4.0723,4.0819,4.215,4.2968,4.3427,4.3225,4.3213,4.3154,4.0639,4.0775,4.2266,4.2578,4.2656,4.2598,0.0,0.0,0.0,0.0,0.0,0.0,0.0,2.6271,2.6852,2.7728,2.8165,2.9076,3.0685,3.1461,3.2237,3.3188,3.2383,3.1666,3.1329,2.9859,2.867,2.7978,2.7716,2.7878,2.8491,2.9412,3.0539,3.1871,3.25,3.2968,3.3305,3.3612,3.3758,3.3744,3.3422,3.405,3.551,3.5176,3.6104,3.7493,3.3126,3.3162,3.5517,0.0,0.0,0.0,0.0,0.0,0.0,0.0,0.0,0.0,0.0,0.0,0.0,0.0,0.0,0.0,0.0,0.0,0.0,0.0,0.0,0.0,0.0,0.0,0.0,0.0,0.0,0.0,0.0,0.0,0.0,0.0,0.0,0.0,2.7539,2.9764,3.1505,3.1871,3.3597,3.4271,3.2997,3.3451,3.3685,3.3363,3.4227,3.49,3.5207,3.5792,3.6275,3.6597,3.6597,3.6597,3.6597,3.6597,3.6597,3.6696,3.8714,3.977,3.9851,4.1862,4.2802,4.2802,4.2915,4.4039,4.5682,4.293,4.376,4.6758,4.5441,4.4174,4.3223,4.4082,4.3828,4.3086,0.0,0.0,0.0,0.0,0.0,0.0,0.0,2.6122,2.6691,2.7188,2.8344,2.9734,3.1359,3.2529,3.3407,3.3905,3.2851,3.1915,3.1344,3.0366,2.9756,2.957,2.9229,2.9427,3.0129,3.0422,3.1534,3.3554,3.3495,3.3861,3.4622,3.4505,3.4432,3.4432,3.4095,3.4864,3.6501,3.581,3.7518,4.0162,3.6569,3.5795,3.654,0.0,0.0,0.0,0.0,0.0,0.0,0.0,0.0,0.0,0.0,0.0,0.0,0.0,0.0,0.0,0.0,0.0,0.0,0.0,0.0,0.0,0.0,0.0,0.0,0.0,0.0,0.0,0.0,0.0,0.0,0.0,2.9109,2.9807,2.9895,3.152,3.3173,3.4432,3.547,3.5851,3.5251,3.5573,3.5675,3.5353,3.5792,3.6217,3.6539,3.6509,3.6509,3.6597,3.6597,3.6597,3.6597,3.6597,3.7371,3.8811,3.9381,4.0303,4.1476,4.3838,4.4764,4.4606,4.643,4.717,4.7035,4.5939,4.5668,4.589,4.4114,4.3671,4.4062,4.4316,4.3828,4.3125,0.0,0.0,0.0,0.0,0.0,0.0,0.0,2.6061,2.6559,2.7291,2.8549,2.9939,3.1432,3.2515,3.3261,3.3583,3.2544,3.1549,3.0759,2.9952,2.9302,2.8872,2.9671,3.0465,3.1198,3.1768,3.2895,3.4622,3.4432,3.4607,3.5163,3.5119,3.509,3.5185,3.5675,3.6805,3.8317,3.8636,4.0419,4.281,4.0702,3.9931,3.9596,3.5931,3.5064,3.5473,3.2746,3.2105,3.2246,3.0428,0.0,0.0,0.0,0.0,0.0,0.0,0.0,0.0,0.0,0.0,0.0,0.0,0.0,0.0,0.0,0.0,0.0,0.0,0.0,0.0,0.0,0.0,0.0,0.0,3.19,3.287,3.2646,3.3568,3.4753,3.6085,3.7461,3.7899,3.6843,3.7551,3.7748,3.6828,3.6773,3.689,3.708,3.6919,3.6744,3.6612,3.6744,3.7125,3.7848,3.7999,3.9049,4.1012,4.1862,4.2717,4.3739,4.6056,4.6894,4.6517,4.7998,4.8203,4.7539,4.6914,4.6484,4.6046,0.0,0.0,0.0,0.0,4.3398,4.2832,0.0,0.0,0.0,0.0,0.0,0.0,0.0,2.5903,2.637,2.7553,2.871,2.9822,3.0964,3.1768,3.2339,3.2588,3.1651,3.0627,2.9661,2.8798,2.8052,2.7452,2.9676,3.1285,3.2061,3.3261,3.4358,3.5295,3.528,3.528,3.5324,3.5617,3.5749,3.583,3.7238,3.8732,4.022,4.1693,4.3267,4.4776,4.4349,4.3974,4.3059,3.8573,3.8463,4.0221,3.6385,3.4703,3.3893,3.1333,0.0,0.0,0.0,0.0,0.0,0.0,0.0,0.0,0.0,0.0,0.0,0.0,0.0,0.0,0.0,0.0,0.0,0.0,0.0,0.0,0.0,0.0,0.0,0.0,3.4935,3.6326,3.6005,3.6178,3.6436,3.6948,3.889,3.9574,3.801,3.9159,3.9327,3.8099,3.7687,3.7395,3.7139,3.7266,0.0,0.0,0.0,3.8196,3.9673,4.0218,4.1374,4.3106,4.4926,4.5867,4.6093,4.8069,4.8613,4.8203,4.8203,4.793,4.7441,4.6582,4.6367,4.6465,4.543,4.4726,4.4219,4.3379,4.2793,4.2422,0.0,0.0,0.0,0.0,0.0,0.0,0.0,2.5056,2.5783,2.6287,2.8147,2.9471,2.972,3.1037,3.1812,3.1607,3.0217,2.8959,2.8008,2.7773,2.8388,3.0012,3.1066,3.228,3.3715,3.449,3.5222,3.5939,3.5939,3.607,3.6319,3.6392,3.6422,3.6392,3.629,3.7203,3.8949,3.8748,4.0597,4.3663,4.3273,4.2932,4.2398,3.9846,3.8465,3.7424,3.3736,3.3022,3.3269,2.9961,2.9544,3.0205,2.8611,0.0,0.0,0.0,0.0,0.0,0.0,0.0,0.0,0.0,0.0,0.0,0.0,0.0,0.0,0.0,0.0,0.0,0.0,0.0,0.0,3.6358,3.8831,4.0739,4.0741,4.0222,3.9012,3.6927,3.7377,3.8254,3.9616,3.8735,3.8792,4.0428,3.9965,3.8967,3.7562,3.8539,3.8399,3.6711,3.8561,3.9744,3.9673,4.1779,4.3599,4.5209,4.5585,0.0,4.7771,4.8507,4.8613,4.8203,4.8203,4.7773,4.6992,4.6152,4.5215,4.4375,4.4844,4.4531,4.3769,4.3262,4.2793,4.2422,0.0,0.0,0.0,0.0,0.0,0.0,0.0,2.4803,2.5511,2.6157,2.7635,2.8783,2.9105,2.9998,3.0393,2.991,2.8681,2.7876,2.7715,2.8315,2.931,3.0759,3.2222,3.3375,3.4059,3.5141,3.5783,3.597,3.6265,3.6451,3.6597,3.6597,3.6597,3.6583,3.7417,3.8016,3.8719,4.0587,4.22,4.3478,4.4473,4.4511,4.3837,4.1611,3.9685,3.7748,3.467,3.3816,3.3597,3.0644,2.9954,3.0144,2.9017,2.855,2.8566,0.0,0.0,0.0,0.0,0.0,0.0,0.0,0.0,0.0,0.0,0.0,0.0,0.0,0.0,3.5648,3.6785,0.0,3.9832,4.0247,4.2494,4.3792,4.2545,4.3101,4.2779,4.0284,3.9272,3.9212,4.0197,4.0356,4.0531,4.0705,4.0403,3.9861,3.9134,3.9809,3.9803,3.873,4.0948,4.1947,4.1599,4.38,4.5131,4.5773,4.6841,4.7788,4.8535,4.875,4.8496,4.7891,4.7656,4.7207,4.6562,4.5937,4.4902,4.375,4.4199,4.4101,4.3652,4.3223,4.2793,4.2402,0.0,0.0,0.0,0.0,0.0,0.0,0.0,0.0,2.5129,2.5896,2.7021,2.7944,2.8399,2.8812,2.8695,2.7934,2.7393,2.7364,2.7932,2.9251,3.0393,3.1344,3.3334,3.4341,3.4302,3.5492,3.6071,3.5792,3.639,3.656,3.6501,3.67,3.667,3.6696,3.8261,3.889,3.8941,4.2813,4.4142,4.3825,4.5999,4.6259,4.5145,4.3106,4.1262,3.944,3.7318,3.5617,3.4118,3.2085,3.0816,3.01,2.9837,2.9354,2.8946,2.9356,2.9145,0.0,0.0,0.0,0.0,0.0,0.0,0.0,0.0,3.1367,3.3403,3.6565,3.772,3.8735,4.088,4.2049,4.2876,4.3483,4.576,4.647,4.3774,4.5317,4.6125,4.4789,4.2438,4.1128,4.1571,4.2204,4.2302,4.1653,4.1163,4.0932,4.1187,4.1635,4.1685,4.1305,4.336,4.4261,4.3896,4.5884,4.6763,4.6448,4.8088,4.8867,4.8867,4.8867,4.8437,4.7676,4.7148,4.6601,4.6035,4.5683,4.4766,4.3574,4.3574,4.3535,4.3398,4.2988,4.2558,4.2129,0.0,0.0,0.0,0.0,0.0,0.0,0.0,0.0,0.0,2.4534,2.6231,2.7233,2.6731,2.7273,2.7203,2.5959,2.6822,2.77,2.8268,2.9588,3.1227,3.3319,3.449,3.5198,3.5576,3.6077,3.6134,3.5851,3.6447,3.6594,3.6335,3.6836,3.6875,3.6597,3.6486,3.746,3.9069,4.1144,4.2891,4.4526,4.6229,4.577,4.4081,4.3497,4.2645,4.1655,4.0686,3.772,3.4084,3.3672,3.2442,3.1139,3.111,3.0846,3.0862,3.2364,3.1359,3.0291,3.2241,3.0546,2.8098,2.7816,2.9139,3.1288,0.0,3.587,3.7671,4.1034,4.126,4.15,4.3574,4.5569,4.6466,4.5206,4.7951,4.9301,4.647,4.6613,4.7508,4.8706,4.506,4.3486,4.6103,4.2526,4.196,4.643,4.448,4.3185,4.3543,4.4904,4.4938,4.3198,4.5148,4.6002,4.5583,4.7968,4.8904,4.857,4.8755,4.8867,4.8867,4.8867,4.8594,4.8086,4.7285,4.625,4.5156,4.5117,4.4336,4.3144,4.3144,4.291,4.2519,4.209,4.168,4.1308,0.0,0.0,0.0,0.0,0.0,0.0,0.0,0.0,0.0,0.0,2.5636,2.6485,2.6399,2.6547,2.6325,2.5593,2.6383,2.7347,2.8417,3.0025,3.1828,3.3706,3.4558,3.5043,3.5027,3.5635,3.5762,3.5189,3.6377,3.681,3.655,3.6867,3.7022,3.6875,3.6553,3.6764,3.7445,3.958,4.0701,4.1238,4.3257,4.3375,4.2182,4.1655,4.0035,3.8135,3.8206,3.5805,0.0,0.0,3.1984,3.1459,3.1376,3.1182,3.122,3.1622,3.1042,3.0292,3.0304,2.9295,2.8096,2.733,2.8557,3.0684,3.3348,3.5765,3.8273,4.1481,4.3452,4.4941,4.6017,4.7812,4.8784,4.785,4.9625,5.0493,4.8518,4.8633,4.8765,4.8443,4.7136,4.65,4.7043,4.4938,4.4526,4.6796,4.5616,4.5066,4.5575,4.5178,4.5302,4.6172,4.6519,4.6672,4.6602,4.8324,4.8467,4.712,4.8273,4.8867,4.8867,4.8867,4.8223,4.709,4.6973,4.5918,4.4297,4.4805,4.4258,4.3047,4.2793,4.2441,4.207,4.2148,4.1894,4.1543,0.0,0.0,0.0,0.0,0.0,0.0,0.0,0.0,0.0,0.0,0.0,2.607,2.6272,2.6154,2.5857,2.5432,2.5918,2.6851,2.8282,2.9828,3.157,3.35,3.4198,3.4561,3.4615,3.5166,3.5246,3.4735,3.606,3.6579,3.6404,3.6896,3.7036,3.6948,3.6714,3.648,3.6359,3.8703,3.9387,3.9132,4.1258,4.1637,4.0943,4.0056,3.7804,3.5094,3.6004,3.3901,0.0,0.0,3.1317,3.1103,3.1197,3.1445,3.1597,3.1668,3.1599,3.1026,2.9067,2.8788,2.8854,2.7717,2.9186,3.1538,3.3636,3.6422,3.927,4.1693,4.4606,4.6567,4.642,4.8377,4.9733,4.8954,5.0184,5.0898,4.9863,4.9883,4.9355,4.7617,4.7851,4.7926,4.7347,4.6682,4.6661,4.7475,4.6796,4.683,4.7921,4.6477,4.6633,4.8834,4.7921,4.7587,4.7737,4.8566,4.8181,4.6654,4.8181,4.8867,4.894,4.873,4.7871,4.6484,4.668,4.5586,4.375,4.4394,4.3887,4.2695,4.2383,4.1992,4.166,4.1973,4.1894,4.1621,0.0,0.0,0.0,0.0,0.0,0.0,0.0,0.0,0.0,0.0,0.0,0.0,0.0,2.6032,2.5754,2.5193,2.5389,2.6214,2.7731,2.8698,3.0239,3.2617,3.3412,3.4171,3.5062,3.4829,3.4762,3.484,3.5562,3.5767,3.5588,3.6593,3.6919,3.6626,3.6612,3.6597,3.6681,3.8811,3.9657,3.9803,4.1459,4.1714,4.0966,3.9561,3.7127,3.4681,3.6057,0.0,0.0,0.0,3.1042,2.9945,3.0938,3.1662,0.0,3.3925,3.4178,0.0,3.0362,3.0223,3.071,2.9991,3.2296,3.5264,3.7051,3.9472,4.1723,4.285,4.4554,4.5281,4.3651,4.6682,4.899,4.7428,4.9243,5.0664,5.0215,4.9805,4.8906,4.7148,4.6621,4.6719,4.7488,4.6878,4.7475,4.9928,4.8531,4.8562,5.0589,5.0295,5.0276,5.0705,4.9477,4.9009,4.9438,4.9082,4.8867,4.8755,4.8848,4.8867,4.8848,4.8418,4.7734,4.6894,4.6484,4.5332,4.3711,4.373,4.2988,4.1836,4.1816,4.1562,4.1191,4.1211,4.1211,4.1191,0.0,0.0,0.0,0.0,0.0,0.0,0.0,0.0,0.0,0.0,0.0,0.0,0.0,0.0,0.0,0.0,2.536,2.587,2.6664,2.8007,2.9384,3.0677,3.1905,3.2886,3.3612,3.3926,3.4177,3.4189,3.5175,3.5683,3.5767,3.6277,3.6722,3.6919,3.67,3.6597,3.6597,3.7371,3.7531,3.7275,3.7498,3.7133,3.6343,3.4834,3.323,3.175,0.0,0.0,0.0,0.0,0.0,0.0,2.9074,0.0,0.0,3.0619,0.0,0.0,2.9907,3.0525,3.1826,3.1583,3.3116,3.5089,3.6291,3.8872,4.1049,4.0838,4.3192,4.4908,4.3592,4.575,4.7755,4.7788,4.9237,5.043,5.0586,5.0469,4.9414,4.6816,4.7129,4.7129,4.5996,4.6408,4.7703,5.0058,4.9181,4.9087,5.0351,4.8595,4.8462,5.0371,4.831,4.7912,4.9531,4.9082,4.8867,4.894,4.8555,4.8574,4.8828,4.7812,4.7051,4.6484,4.6074,4.4902,4.334,4.3926,4.3223,4.1836,4.2109,4.1797,4.1172,4.1172,4.1172,4.1172,0.0,0.0,0.0,0.0,0.0,0.0,0.0,0.0,0.0,0.0,0.0,0.0,0.0,0.0,0.0,0.0,0.0,2.5371,2.5824,2.6836,2.7792,2.8696,2.9771,3.0682,3.1389,3.1675,3.1975,3.2318,3.3161,3.3948,3.4451,3.4952,3.5395,3.5895,3.5909,3.5924,3.5939,3.6041,3.5763,3.5192,3.4446,3.3554,3.2573,3.1345,3.05,0.0,0.0,0.0,0.0,0.0,0.0,0.0,0.0,0.0,0.0,0.0,0.0,0.0,3.0451,3.17,3.3229,3.3457,3.4534,3.5749,3.648,3.8592,3.9952,3.8594,4.1145,4.309,4.0825,4.2679,4.4671,4.4773,4.644,4.7982,4.8802,4.9214,4.875,4.6973,4.7207,4.7051,4.582,4.6445,4.7773,4.9785,4.9414,4.9473,5.0351,4.8557,4.833,5.0371,4.831,4.8063,4.9746,4.916,4.8867,4.894,4.8574,4.8496,4.8594,4.7617,4.6758,4.6055,4.5625,4.4453,4.2891,4.3457,4.2851,4.1601,4.1875,4.1641,4.1172,4.1172,4.1172,4.1172,0.0,0.0,0.0,0.0,0.0,0.0,0.0,0.0,0.0,0.0,0.0,0.0,0.0,0.0,0.0,0.0,0.0,0.0,2.524,2.5167,2.5615,2.6627,2.7028,2.7629,2.8497,2.8257,2.8537,2.9392,2.992,3.0635,3.1623,3.2475,3.3086,3.3583,3.4212,3.449,3.4519,3.4812,3.448,3.3541,3.2588,3.1253,2.9907,2.9542,0.0,0.0,0.0,0.0,0.0,0.0,0.0,0.0,0.0,0.0,0.0,0.0,0.0,3.0855,3.1968,3.3506,3.4932,3.5602,3.6407,3.7183,3.7446,3.8569,3.8741,3.6208,3.8604,3.9901,3.5767,3.7961,4.0113,3.906,4.1407,4.3845,4.5591,4.6605,4.7246,4.7539,4.6914,4.6582,4.6894,4.6973,4.7695,4.9394,4.9531,4.9902,5.0723,4.998,4.9902,5.0723,4.9512,4.9277,5.0137,4.9297,4.8867,4.8867,4.8808,4.8594,4.8183,4.7676,4.6797,4.5644,4.5176,4.4004,4.2422,4.2461,4.1953,4.1172,4.1191,4.1191,4.1172,4.1172,4.1172,4.1172,0.0,0.0,0.0,0.0,0.0,0.0,0.0,0.0,0.0,0.0,0.0,0.0,0.0,0.0,0.0,0.0,0.0,0.0,2.4371,2.4616,2.4842,2.485,2.5985,2.6827,2.7268,2.7629,2.7923,2.815,2.8318,2.8699,2.9383,2.9635,3.0308,3.1227,3.1388,3.1593,3.1812,3.19,3.2099,3.2247,3.148,3.0684,2.9942,0.0,0.0,0.0,0.0,0.0,0.0,0.0,0.0,0.0,0.0,2.8286,2.8833,0.0,3.0013,3.1559,3.2414,3.42,3.5809,3.6271,3.6905,3.7285,3.6641,3.6661,3.6366,3.5348,3.5929,3.6247,3.5235,3.7741,4.0473,4.1764,4.4211,4.6639,4.8756,4.9464,4.9258,4.7754,4.8242,4.8242,4.7051,4.75,4.834,4.9453,4.9531,4.9766,5.0312,4.9824,4.9629,4.9844,4.9199,4.9121,4.9687,4.9141,4.8867,4.8848,4.8203,4.8008,4.8144,4.6445,4.5683,4.5605,4.4512,4.3437,4.2461,4.2773,4.2226,4.1211,4.1523,4.1445,4.1172,4.1172,4.1172,4.1172,0.0,0.0,0.0,0.0,0.0,0.0,0.0,0.0,0.0,0.0,0.0,0.0,0.0,0.0,0.0,0.0,0.0,0.0,0.0,2.4441,2.4309,2.3691,2.4409,2.4917,2.5077,2.5411,2.5838,2.636,2.6249,2.684,2.7955,2.7833,2.8347,2.931,2.9588,2.9734,2.9778,2.9925,2.9839,0.0,0.0,2.8666,2.7685,0.0,0.0,0.0,0.0,0.0,0.0,0.0,0.0,2.795,2.8097,2.8712,2.9479,2.9946,0.0,3.2429,3.3852,3.547,3.6802,3.6992,3.73,3.7183,3.5631,3.5385,3.5046,3.328,3.3545,3.3957,3.3587,3.5609,3.8006,3.989,4.2423,4.4997,4.7523,4.8598,4.9082,4.9004,4.9473,4.9433,4.8457,4.8789,4.9199,4.9512,4.9336,4.9433,4.9863,4.9473,4.9336,4.9512,4.9101,4.8984,4.9238,4.8984,4.8867,4.8848,4.8183,4.7891,4.7871,4.6308,4.5508,4.5332,4.4414,4.3418,4.2441,4.2695,4.2148,4.1191,4.1426,4.1387,4.1172,4.1172,4.1172,4.1172,0.0,0.0,0.0,0.0,0.0,0.0,0.0,0.0,0.0,0.0,2.5141,0.0,0.0,0.0,0.0,0.0,0.0,0.0,0.0,0.0,0.0,2.301,2.2968,2.2995,2.305,2.3035,2.3517,2.4469,2.4246,2.5046,2.6687,2.6407,2.6675,2.7392,2.8008,2.8125,2.7949,2.8256,2.7865,2.6947,2.7451,2.6501,2.503,0.0,0.0,0.0,0.0,0.0,0.0,0.0,2.8024,2.8884,2.9372,3.0111,3.0946,3.1904,3.2676,3.3671,3.5749,3.6992,3.768,3.7592,3.7519,3.6846,3.4549,3.4472,3.4072,3.1006,3.1667,3.2517,3.1836,3.2986,3.4729,3.6683,3.9166,4.1998,4.5156,4.658,4.8105,5.0371,5.0469,5.0312,5.0195,5.0332,5.0195,4.9648,4.9258,4.918,4.9512,4.916,4.9101,4.9433,4.9121,4.8926,4.8867,4.8867,4.8867,4.8848,4.8359,4.793,4.7558,4.6641,4.5781,4.5,4.457,4.3672,4.25,4.2461,4.1973,4.125,4.1191,4.1172,4.1172,4.1172,4.1172,4.1172,0.0,0.0,0.0,0.0,0.0,0.0,0.0,0.0,0.0,0.0,2.489,2.4834,0.0,0.0,0.0,0.0,0.0,0.0,0.0,0.0,0.0,0.0,2.3252,2.3386,2.3706,2.3685,2.3601,2.3583,2.3543,2.3789,2.4228,2.3908,2.4107,2.4759,2.4862,2.5037,2.5257,2.5648,2.6102,2.669,2.7916,2.7327,0.0,0.0,0.0,0.0,0.0,0.0,0.0,0.0,2.7925,2.903,2.9977,3.1357,3.2896,3.3938,3.4841,3.5792,3.6992,3.7841,3.8236,3.7709,3.7168,3.6114,3.3597,3.2901,0.0,3.0821,3.0711,3.0992,3.144,3.2918,3.5246,3.877,4.123,4.4077,4.8187,4.8935,4.9238,4.9687,5.0605,5.0937,5.0254,5.1133,5.1289,5.0156,5.0,4.9824,4.9551,4.9453,4.9277,4.8984,4.9258,4.9238,4.8867,4.8867,4.8867,4.8848,4.8066,4.7656,4.7539,4.6328,4.5508,4.5,4.457,4.3848,4.293,4.2578,4.2129,4.166,4.1308,4.1172,4.1172,4.1172,4.1172,4.1172,0.0,0.0,0.0,0.0,0.0,0.0,0.0,2.561,2.5499,2.5606,2.5817,2.5531,2.4618,2.4484,2.4592,0.0,0.0,0.0,0.0,0.0,0.0,0.0,0.0,0.0,0.0,2.4184,2.4337,2.435,0.0,2.441,2.4767,2.4323,2.4305,2.4598,2.4759,2.4832,2.4899,2.5061,2.5264,2.5581,2.681,2.6423,0.0,0.0,0.0,0.0,0.0,0.0,0.0,0.0,2.7671,2.9442,3.1095,3.2705,3.4227,3.5353,3.6261,3.7051,3.7856,3.8426,3.8602,3.7782,3.6714,3.509,3.2178,0.0,0.0,2.9362,3.0013,3.1005,3.119,3.2578,3.4648,3.7422,3.9297,4.1992,4.6543,4.6992,4.7695,4.9922,5.0547,5.0703,5.0527,5.1055,5.0976,4.9922,4.9844,4.9648,4.9199,4.918,4.9082,4.8867,4.9062,4.9082,4.8867,4.8867,4.8867,4.8848,4.7988,4.7578,4.7539,4.6484,4.5762,4.5332,4.4902,4.4219,4.3379,4.2949,4.2383,4.1777,4.1582,4.1367,4.1172,4.1172,4.1172,4.1172,0.0,0.0,0.0,0.0,0.0,0.0,0.0,2.6128,2.6299,2.6772,2.6951,2.6528,2.529,2.4872,2.4778,0.0,0.0,0.0,0.0,0.0,0.0,0.0,0.0,0.0,0.0,0.0,0.0,2.535,2.5186,0.0,0.0,0.0,0.0,0.0,2.5418,2.5388,2.5169,2.5227,2.511,0.0,0.0,2.5773,0.0,0.0,0.0,0.0,0.0,0.0,0.0,0.0,2.7393,2.931,3.1315,3.3305,3.509,3.6027,3.7051,3.8002,3.85,3.888,3.8895,3.7929,3.6305,3.4139,3.1135,3.1071,0.0,2.8077,2.9591,3.1289,3.0957,3.2051,3.3672,3.5684,3.7012,3.9492,4.4336,4.4824,4.6133,5.0058,5.0332,5.0351,5.0762,5.0879,5.0586,4.9726,4.9492,4.9238,4.8867,4.8945,4.8965,4.8867,4.8867,4.8867,4.8867,4.8867,4.8867,4.8848,4.8086,4.7656,4.7558,4.6797,4.6152,4.5644,4.5215,4.457,4.3808,4.3301,4.2617,4.1933,4.1836,4.1543,4.1172,4.1172,4.1172,4.1172,0.0,0.0,0.0,0.0,0.0,0.0,0.0,2.6677,2.7157,2.8003,2.7931,2.7478,2.664,2.6038,2.5562,0.0,0.0,0.0,0.0,0.0,0.0,0.0,0.0,0.0,0.0,0.0,0.0,2.5826,2.5439,0.0,0.0,0.0,0.0,0.0,0.0,2.552,2.5505,2.5798,0.0,0.0,0.0,0.0,0.0,0.0,0.0,0.0,0.0,0.0,0.0,0.0,0.0,2.7832,2.8915,3.2149,3.5529,3.5368,0.0,0.0,3.8968,3.9217,3.9231,3.8265,3.6144,3.3612,3.0949,0.0,2.9952,2.7906,2.937,3.0937,3.0898,3.1328,3.2637,3.5547,3.6777,3.9141,4.4297,4.5332,4.6582,4.9316,4.9961,5.0351,5.0762,5.1152,5.1035,5.0176,4.9375,4.8906,4.8867,4.9238,4.9277,4.8867,4.8867,4.8867,4.8867,4.8867,4.8867,4.8848,4.8379,4.7949,4.7558,4.709,4.6426,4.5644,4.5215,4.4766,4.4277,4.3418,4.2793,4.2324,4.1953,4.1543,4.1172,4.1172,4.1172,4.1172,0.0,0.0,0.0,0.0,0.0,0.0,2.6617,2.6735,2.7232,2.8739,2.884,2.871,2.8345,2.754,2.6369,2.4883,0.0,0.0,0.0,0.0,0.0,0.0,0.0,0.0,0.0,0.0,2.6269,2.6199,2.6272,0.0,0.0,0.0,0.0,0.0,0.0,2.612,2.612,2.6252,0.0,0.0,0.0,0.0,0.0,0.0,0.0,0.0,0.0,0.0,2.5789,2.5271,0.0,0.0,2.6354,2.8725,0.0,0.0,3.5427,3.7241,3.8412,3.9114,3.9275,3.8309,3.5836,3.3176,3.1571,0.0,2.9543,2.8561,2.9721,3.0898,3.0898,3.1035,3.1699,3.3418,3.3769,0.0,3.9746,4.0742,4.2656,4.707,4.7969,4.8906,5.0644,5.0723,5.0527,5.0195,5.0078,4.9805,4.9297,4.918,4.9043,4.8867,4.8867,4.8867,4.8867,4.8867,4.873,4.8457,4.8027,4.7598,4.7168,4.6738,4.6367,4.6035,4.5605,4.5176,4.4726,4.4121,4.3301,4.2402,4.2246,4.1758,4.1172,4.1172,4.1172,4.1172,0.0,0.0,0.0,0.0,0.0,2.553,2.6661,2.6822,2.7378,2.9017,2.931,2.9339,2.9237,2.8347,2.7012,2.5177,2.5108,0.0,0.0,0.0,0.0,0.0,0.0,0.0,0.0,0.0,2.6808,2.6763,2.691,2.691,0.0,0.0,2.6676,2.6457,0.0,0.0,0.0,0.0,0.0,0.0,0.0,0.0,0.0,0.0,0.0,0.0,0.0,0.0,0.0,0.0,0.0,0.0,0.0,0.0,0.0,0.0,3.3583,3.5617,3.7461,3.8514,3.8895,3.8119,3.5794,3.324,0.0,0.0,2.973,2.9064,2.9962,3.0898,3.0898,3.0898,3.1133,0.0,0.0,3.3164,3.6797,3.7871,4.0059,4.4785,4.5723,4.6992,4.9609,5.0156,5.0254,5.0,5.0254,5.0098,4.9375,4.9023,4.8867,4.8867,4.8867,4.8867,4.8867,4.873,4.8516,4.8203,4.7773,4.7344,4.6914,4.6621,4.6426,4.6289,4.5859,4.543,4.5,4.457,4.3613,4.2422,4.2422,4.1914,4.1172,4.1172,4.1172,4.1172,0.0,0.0,0.0,0.0,0.0,0.0,2.6354,2.7056,2.7817,2.8769,2.9178,2.9251,2.893,2.8052,2.7332,2.6932,2.5556,0.0,0.0,0.0,0.0,0.0,0.0,0.0,0.0,0.0,2.6777,2.7466,2.7095,2.7254,2.7859,2.7613,2.7466,2.7452,0.0,0.0,0.0,0.0,0.0,0.0,0.0,0.0,0.0,0.0,0.0,0.0,0.0,0.0,0.0,0.0,0.0,0.0,0.0,0.0,0.0,0.0,3.171,3.4578,3.6187,3.7344,3.8002,3.7665,3.6012,3.3938,0.0,3.1253,3.0756,2.919,2.9962,3.0898,3.0898,3.0898,3.1035,3.1445,3.2226,0.0,3.6875,3.8379,4.0156,4.2793,4.3476,4.4766,4.7363,4.9551,5.0449,4.959,4.9531,4.9336,4.8887,4.8867,4.8867,4.8867,4.8867,4.8867,4.8867,4.8437,4.8203,4.8203,4.7773,4.7344,4.6933,4.6933,4.6699,4.6289,4.5859,4.543,4.5,4.457,4.3613,4.2422,4.2422,4.1914,4.1172,4.1172,4.1172,4.1172,0.0,0.0,0.0,0.0,0.0,0.0,0.0,2.6018,2.65,2.7466,2.7686,2.7876,2.8212,2.7583,2.7085,2.6932,2.5775,0.0,0.0,0.0,0.0,0.0,0.0,0.0,0.0,2.691,2.7071,2.7481,2.7392,2.7492,2.7874,2.7847,2.7686,2.7481,2.7364,2.7203,0.0,0.0,0.0,0.0,0.0,0.0,0.0,0.0,0.0,0.0,0.0,0.0,0.0,0.0,0.0,0.0,0.0,0.0,0.0,2.8854,0.0,0.0,3.3876,3.544,3.6265,3.5013,3.4361,3.3673,3.2623,3.1782,3.1009,3.0382,3.0587,3.0898,3.0898,3.0898,3.1406,3.3008,3.3496,0.0,3.6562,3.873,4.0957,4.3242,4.6758,4.9199,4.9726,5.0664,5.0879,5.0039,4.998,4.9785,4.9336,4.9023,4.8867,4.8867,4.8867,4.8711,4.8418,4.8281,4.791,4.7324,4.7207,4.6914,4.6504,4.6504,4.6269,4.5859,4.5742,4.5273,4.459,4.4453,4.3613,4.2422,4.2422,4.1914,4.1172,4.1172,4.1172,4.1172,0.0,0.0,0.0,0.0,0.0,0.0,0.0,2.5549,2.593,2.6544,2.6735,2.7056,2.77,2.7305,2.7042,2.714,2.6353,0.0,0.0,0.0,0.0,0.0,0.0,0.0,2.6983,2.7115,2.7393,2.7847,2.8081,2.83,2.8491,2.8491,2.8183,2.7656,2.7539,2.7291,0.0,0.0,0.0,0.0,0.0,0.0,2.6179,0.0,0.0,0.0,0.0,0.0,0.0,0.0,0.0,0.0,0.0,0.0,0.0,0.0,2.9897,3.0266,0.0,3.4295,3.5269,3.4266,3.398,0.0,3.293,3.2166,3.1469,3.0995,3.0898,3.0898,3.0898,3.0898,3.1328,3.2656,3.3144,3.3965,3.5684,3.8144,4.082,4.3633,4.7519,4.9883,4.9609,5.0703,5.1016,5.0019,5.0078,4.9922,4.9316,4.9004,4.8867,4.8867,4.8867,4.8652,4.8203,4.8047,4.7617,4.6933,4.6777,4.6562,4.6289,4.6133,4.5918,4.5664,4.5508,4.5039,0.0,4.4199,4.3457,4.2402,4.2246,4.1777,4.1172,4.1172,4.1172,4.1172,0.0,0.0,0.0,0.0,0.0,0.0,0.0,2.5564,2.5944,2.5944,2.6208,2.6632,2.7232,2.7056,2.7013,2.7349,0.0,0.0,0.0,0.0,0.0,0.0,0.0,0.0,2.6983,2.7291,2.7773,2.8432,2.9017,2.9339,2.9412,2.9412,2.8915,2.7932,2.7686,2.7408,2.7158,2.7453,2.7408,2.7129,2.7129,2.6865,0.0,0.0,0.0,0.0,0.0,0.0,0.0,0.0,0.0,0.0,0.0,0.0,0.0,0.0,0.0,0.0,0.0,3.3835,3.4735,3.4635,3.4383,3.3836,3.2679,3.2324,0.0,3.1074,3.0898,3.0918,3.0976,3.0937,3.0957,3.1133,3.1836,3.293,3.4648,3.7285,4.0449,4.4258,4.6562,4.7832,4.7773,4.9961,5.0879,4.9668,4.9922,4.9766,4.8906,4.8867,4.8867,4.8867,4.8828,4.8613,4.8164,4.7734,4.7324,4.6875,4.6484,4.6308,4.6289,4.5859,4.5664,4.5605,4.5137,4.4687,4.4258,4.3808,4.3125,4.2344,4.1953,4.1543,4.1172,4.1172,4.1172,4.1172,0.0,0.0,0.0,0.0,0.0,0.0,0.0,0.0,0.0,0.0,2.5344,2.553,2.5677,2.5769,2.6003,0.0,0.0,0.0,0.0,0.0,0.0,0.0,0.0,0.0,2.6983,2.7071,2.7539,2.8432,2.8578,2.9032,2.9749,2.9749,2.9369,2.8651,2.8344,2.8327,2.8691,2.8769,2.8753,2.8676,2.8676,2.7844,0.0,0.0,0.0,0.0,2.9091,2.9261,0.0,0.0,0.0,0.0,0.0,0.0,0.0,0.0,3.2467,3.2528,3.2776,0.0,3.2098,3.1091,3.2032,3.2874,0.0,3.198,3.1934,3.1074,3.0898,3.1094,3.1738,3.1328,3.1523,3.3496,3.3965,3.4707,3.6445,4.0625,4.457,4.7461,4.9414,5.0273,4.9629,5.041,5.0703,5.0078,4.9805,4.9433,4.8887,4.8867,4.8867,4.8867,4.8535,4.8144,4.7734,4.7305,4.6875,4.6445,4.6348,4.6308,4.6289,4.5859,4.5488,4.5137,4.4355,4.3769,4.3359,4.291,4.2422,4.1933,4.1836,4.1543,4.1172,4.1172,4.1172,4.1172,0.0,0.0,0.0,0.0,0.0,0.0,0.0,0.0,0.0,0.0,0.0,2.5271,2.5271,2.5959,0.0,0.0,0.0,0.0,0.0,0.0,0.0,0.0,0.0,2.6983,2.6983,2.7276,2.7832,2.8637,2.909,2.9588,3.0167,3.0167,2.9661,2.8856,2.9003,2.9066,2.9178,2.9337,2.896,2.8274,2.9064,0.0,0.0,0.0,0.0,0.0,3.0711,3.0862,0.0,3.1262,3.1977,3.2566,0.0,0.0,0.0,0.0,3.3105,3.3086,3.2851,3.2612,3.2241,3.1526,3.1931,3.2383,3.1914,3.1699,3.1445,3.0976,3.0898,3.1035,3.1504,3.1211,3.1465,3.3242,3.3867,3.5273,3.8613,4.2168,4.5527,4.8496,4.9863,5.0605,5.0742,5.0781,5.0625,5.0215,4.9785,4.9336,4.8887,4.8867,4.8769,4.8574,4.8144,4.7812,4.7578,4.7148,4.6719,4.6308,4.6308,4.6191,4.5996,4.5566,4.5019,4.4375,4.3711,4.3183,4.2754,4.2324,4.2012,4.1777,4.1582,4.1367,4.1172,4.1172,4.1172,4.1172,0.0,0.0,0.0,0.0,0.0,0.0,0.0,0.0,0.0,0.0,0.0,0.0,0.0,0.0,0.0,0.0,0.0,0.0,0.0,0.0,0.0,0.0,2.7129,2.7129,2.7347,2.7599,2.8215,2.9201,2.991,3.0439,3.0914,3.0959,3.0474,2.9604,2.9825,2.9881,2.9894,2.9913,2.9231,2.8145,2.9713,0.0,0.0,0.0,0.0,0.0,0.0,0.0,0.0,3.3187,3.3583,3.365,3.3472,0.0,0.0,0.0,0.0,0.0,3.3144,3.3398,3.3535,3.3223,3.2598,3.2051,3.2053,3.1406,3.0898,3.0898,3.0898,3.0937,3.1055,3.1133,3.1484,3.2402,3.3535,3.6035,4.0976,4.3066,4.5293,4.8476,4.9316,5.0019,5.1035,5.082,5.0469,5.0098,4.9668,4.9258,4.8887,4.8789,4.8594,4.8223,4.7676,4.7383,4.7383,4.7012,4.6621,4.6211,4.6211,4.6016,4.5664,4.5078,4.4414,4.3672,4.3125,4.2676,4.2305,4.1875,4.1699,4.166,4.1308,4.1172,4.1172,4.1172,4.1172,4.1172,0.0,0.0,0.0,0.0,0.0,0.0,0.0,0.0,0.0,0.0,0.0,0.0,0.0,0.0,0.0,0.0,0.0,0.0,0.0,0.0,0.0,2.8819,2.7695,2.755,2.8819,2.7728,2.8237,3.0447,2.9807,3.0731,3.3104,3.3254,3.3226,3.2885,3.1442,3.1649,3.2997,3.1788,3.1841,3.2788,3.3069,0.0,0.0,0.0,0.0,0.0,0.0,0.0,0.0,3.3534,3.2963,3.1929,3.3038,0.0,0.0,0.0,0.0,0.0,3.4687,3.4746,3.4062,3.2266,3.1719,3.1523,3.1172,3.0976,3.0898,3.0898,3.0898,3.1113,3.1836,3.2266,3.291,3.4121,3.6562,3.9629,4.3379,4.5058,4.6641,4.8613,4.959,5.0019,4.9844,4.9766,4.9687,4.9629,4.9219,4.8926,4.8867,4.8516,4.8281,4.8203,4.709,4.6504,4.6504,4.6426,4.6191,4.5781,4.5781,4.5742,4.5644,4.4453,4.3828,4.3633,4.25,4.1953,4.1855,4.1445,4.1269,4.1269,4.1191,4.1172,4.1172,4.1172,4.1172,4.1172,0.0,0.0,0.0,0.0,0.0,0.0,0.0,0.0,0.0,0.0,0.0,0.0,0.0,0.0,0.0,0.0,0.0,0.0,0.0,0.0,2.863,2.9717,2.7964,2.7695,2.9178,2.8221,2.9139,3.182,3.2183,3.3699,3.6309,3.4601,3.4249,3.4936,3.3262,3.3184,3.4403,3.3678,3.3198,3.2932,0.0,0.0,0.0,0.0,0.0,0.0,0.0,0.0,0.0,0.0,3.354,3.286,3.3306,0.0,0.0,0.0,0.0,0.0,3.3887,3.3828,3.3437,3.2461,3.2559,3.2676,3.1777,3.1406,3.123,3.123,3.123,3.1484,3.2344,3.3047,3.4375,3.707,3.9648,4.2109,4.4414,4.5449,4.6601,4.8301,4.8867,4.9316,4.9824,4.9668,4.9531,4.9531,4.9101,4.875,4.8516,4.832,4.7891,4.7207,4.6601,4.5976,4.5273,4.5508,4.5508,4.5332,4.5332,4.5215,4.4961,4.4101,4.3457,4.2969,4.2148,4.168,4.1445,4.125,4.1172,4.1172,4.1172,4.1172,4.1172,4.1172,4.1172,4.1172,0.0,0.0,0.0,0.0,0.0,0.0,0.0,0.0,0.0,0.0,0.0,0.0,0.0,0.0,0.0,0.0,0.0,0.0,0.0,2.856,2.9199,3.0469,2.8685,2.8489,3.0219,2.9561,3.0794,3.4192,3.5245,3.6979,3.9213,3.6836,3.6237,3.698,3.5281,3.4895,3.5545,3.5261,3.4378,3.3251,0.0,0.0,0.0,0.0,0.0,0.0,0.0,0.0,0.0,0.0,0.0,0.0,0.0,0.0,0.0,3.3516,3.3418,3.3398,3.3281,3.3164,3.3086,3.3086,3.3359,3.3476,3.2891,3.2422,3.2207,3.2519,3.2578,3.2734,3.3301,3.4434,3.6426,3.9922,4.2285,4.4141,4.5449,4.5996,4.6836,4.834,4.8418,4.8789,4.9922,4.9629,4.9375,4.9375,4.8965,4.8555,4.8223,4.793,4.7305,4.6328,4.6016,4.5391,4.4414,4.4609,4.4766,4.4883,4.4766,4.4551,4.4219,4.3555,4.2891,4.2266,4.1836,4.1465,4.1172,4.1172,4.1172,4.1172,4.1172,4.1172,4.1172,4.1172,4.1172,4.1172,0.0,0.0,0.0,0.0,0.0,0.0,0.0,0.0,0.0,0.0,0.0,0.0,0.0,0.0,0.0,0.0,0.0,0.0,0.0,2.6952,2.8418,3.1311,3.029,3.0835,3.3337,3.2152,3.3724,3.8256,3.8351,3.9401,4.1434,4.1606,4.1014,3.954,3.7577,3.6884,3.7093,3.6099,3.5943,3.6383,3.6483,0.0,0.0,0.0,0.0,0.0,0.0,0.0,0.0,0.0,0.0,0.0,0.0,0.0,3.3457,3.3437,3.3418,3.3594,3.4355,3.4277,3.3984,3.3984,3.3144,3.2695,3.418,3.4199,3.4238,3.5449,3.5703,3.5586,3.5273,3.7187,3.959,4.1875,4.4062,4.5937,4.7207,4.7754,4.8379,4.9316,4.9062,4.9004,4.9531,4.918,4.8906,4.8906,4.8496,4.8242,4.8203,4.709,4.6387,4.6308,4.5156,4.4492,4.4394,4.4004,4.4023,4.4433,4.4004,4.3789,4.3711,4.25,4.1894,4.1816,4.1406,4.1211,4.1172,4.1172,4.1172,4.1172,4.1172,4.1172,4.1172,4.1172,4.1172,4.1172,0.0,0.0,0.0,0.0,0.0,0.0,0.0,0.0,0.0,0.0,0.0,0.0,0.0,0.0,0.0,0.0,0.0,0.0,0.0,2.9612,3.0931,3.3411,3.1813,3.2202,3.5068,3.4513,3.6166,4.0029,4.2012,4.3291,4.367,4.1203,4.0044,3.9788,3.7521,3.7106,3.8086,3.7374,3.708,3.7012,3.6484,3.6172,0.0,0.0,0.0,0.0,0.0,0.0,0.0,0.0,3.4004,3.3418,3.3418,3.3418,3.3418,3.3418,3.3242,3.3047,3.3105,3.3203,3.334,3.3594,3.3516,3.3672,3.4863,3.5625,3.6289,3.7051,3.7617,3.7949,3.7793,3.9434,4.1445,4.334,4.5234,4.6914,4.8203,4.8516,4.873,4.9062,4.8965,4.8926,4.9101,4.8965,4.875,4.8476,4.8301,4.7969,4.7441,4.6699,4.6055,4.5527,4.4785,4.4141,4.3574,4.3398,4.3262,4.3183,4.3262,4.3164,4.2891,4.2129,4.1797,4.1777,4.1348,4.1172,4.1172,4.1172,4.1172,4.1172,4.1172,4.1172,4.1172,4.1172,4.1172,4.1172,0.0,0.0,0.0,0.0,0.0,0.0,0.0,0.0,0.0,0.0,0.0,0.0,0.0,0.0,0.0,0.0,0.0,0.0,3.1114,3.1354,3.2368,3.4355,3.3109,3.3768,3.6737,3.7108,3.8591,4.1556,4.4547,4.5508,4.4375,4.1428,4.0118,4.0002,3.8311,3.8118,3.8965,3.8516,3.793,3.7226,3.6523,3.623,0.0,0.0,0.0,0.0,0.0,0.0,0.0,0.0,3.4121,3.3418,3.3418,3.3418,3.3418,3.3418,3.3125,3.2695,3.2285,3.2285,3.25,3.293,3.3555,3.4512,3.6211,3.7383,3.8379,3.9355,3.9805,4.0059,4.0195,4.1074,4.2324,4.3926,4.5723,4.7324,4.8496,4.8769,4.8867,4.8867,4.8867,4.8808,4.8672,4.8652,4.8476,4.8047,4.7754,4.7344,4.6758,4.5937,4.5215,4.4629,4.4062,4.3476,4.2871,4.2871,4.2656,4.2226,4.2539,4.2519,4.2207,4.1797,4.1601,4.1582,4.1308,4.1172,4.1172,4.1172,4.1172,4.1172,4.1172,4.1172,4.1172,4.1172,4.1172,4.1172,0.0,0.0,0.0,0.0,0.0,0.0,0.0,0.0,0.0,0.0,0.0,0.0,0.0,0.0,0.0,0.0,0.0,0.0,3.1649,3.1508,3.2211,3.3762,3.4217,3.5721,3.8516,3.9844,4.1348,4.3086,4.5644,4.5586,4.3066,4.3047,4.2148,4.0508,4.0508,4.0273,3.9863,3.9394,3.8457,3.7266,3.6855,3.668,3.6621,0.0,0.0,0.0,0.0,0.0,0.0,0.0,3.4121,3.3437,3.3418,3.3418,3.3437,3.3418,3.3125,3.2695,3.2285,3.1855,3.1621,3.207,3.3144,3.5,3.8437,3.957,4.0508,4.2656,4.2422,4.1953,4.2363,4.2109,4.2246,4.3516,4.5527,4.7226,4.8086,4.8574,4.8867,4.8867,4.894,4.8672,4.8242,4.8203,4.8027,4.7598,4.6777,4.6289,4.6289,4.4648,4.3711,4.3691,4.2871,4.2422,4.2422,4.2422,4.2207,4.1797,4.1797,4.1797,4.1777,4.1367,4.1172,4.1172,4.1172,4.1172,4.1172,4.1172,4.1172,4.1172,4.1172,4.1172,4.1172,4.1172,4.1172,4.1172,0.0,0.0,0.0,0.0,0.0,0.0,0.0,0.0,0.0,0.0,0.0,0.0,0.0,0.0,0.0,0.0,0.0,0.0,3.3067,3.3137,3.3762,3.5245,3.5429,3.5885,3.6777,3.834,4.0586,4.3516,4.4277,4.3808,4.2168,4.1269,4.0566,4.0059,3.9746,3.9531,3.9355,3.8613,3.8086,3.7695,3.7285,3.7109,3.707,0.0,0.0,0.0,0.0,0.0,0.0,0.0,0.0,0.0,3.3516,3.3633,3.3828,3.3516,3.3125,3.2695,3.2285,3.207,3.2285,3.3613,3.4922,3.6719,3.9863,4.0703,4.1582,4.4336,4.4219,4.3574,4.3359,4.3496,4.375,4.4141,4.5742,4.7226,4.8086,4.8574,4.8867,4.8867,4.8594,4.834,4.8223,4.7656,4.7129,4.6719,4.6172,4.5605,4.5,4.416,4.3574,4.3281,4.2715,4.2285,4.1992,4.1992,4.1777,4.1367,4.1367,4.1367,4.1348,4.123,4.1172,4.1172,4.1172,4.1172,4.1172,4.1172,4.1172,4.1172,4.1172,4.1172,4.1172,4.1172,4.1172,4.1172,0.0,0.0,0.0,0.0,0.0,0.0,0.0,0.0,0.0,0.0,3.0678,3.1423,0.0,0.0,0.0,0.0,0.0,0.0,3.4609,3.4677,3.5108,3.5947,3.6016,3.6172,3.6523,3.8379,4.0019,4.1406,4.2266,4.1953,4.0527,4.0957,4.0976,4.0684,4.1445,4.1289,4.0449,3.9746,3.8867,3.791,3.7656,3.7539,3.75,0.0,0.0,0.0,0.0,0.0,0.0,0.0,0.0,0.0,3.3809,3.3867,3.3984,3.3555,3.3125,3.2734,3.248,3.2539,3.3047,3.459,3.6211,3.8223,4.125,4.2598,4.3867,4.6211,4.5742,4.4824,4.4531,4.416,4.4043,4.457,4.5644,4.6719,4.7578,4.8066,4.8359,4.8359,4.8125,4.7832,4.748,4.6973,4.6445,4.584,4.5234,4.4668,4.4141,4.3379,4.2832,4.2578,4.2148,4.1816,4.1562,4.1543,4.1426,4.1172,4.1172,4.1172,4.1172,4.1172,4.1172,4.1172,4.1172,4.1172,4.1172,4.1172,4.1172,4.1172,4.1172,4.1172,4.1172,4.1172,4.1172,4.1172,0.0,0.0,0.0,0.0,0.0,0.0,0.0,0.0,0.0,0.0,2.9643,3.0306,0.0,0.0,0.0,0.0,0.0,0.0,0.0,3.5996,3.5976,3.6016,3.6055,3.6484,3.7344,3.9199,3.9394,3.7812,3.9941,4.0137,3.8574,4.1562,4.2558,4.1953,4.4375,4.4316,4.2383,4.1777,4.0137,3.7988,3.7988,3.8008,3.7988,3.748,0.0,0.0,0.0,0.0,0.0,0.0,0.0,0.0,3.4219,3.4101,3.4043,3.3555,3.3144,3.2851,3.2851,3.3164,3.3828,3.5273,3.7344,3.9785,4.2617,4.4805,4.6582,4.7734,4.6816,4.5762,4.5683,4.4375,4.3672,4.4785,4.5371,4.5937,4.6699,4.7187,4.748,4.7519,4.7461,4.7109,4.6367,4.6191,4.5781,4.4961,4.4121,4.3613,4.3535,4.2422,4.1777,4.1738,4.1367,4.1172,4.1172,4.1172,4.1172,4.1172,4.1172,4.1172,4.1172,4.1172,4.1172,4.1172,4.1172,4.1172,4.1172,4.1172,4.1172,4.1172,4.1172,4.1172,4.1172,4.1172,4.1172,4.1172,0.0,0.0,0.0,0.0,0.0,0.0,0.0,0.0,0.0,0.0,0.0,0.0,0.0,0.0,0.0,0.0,0.0,0.0,0.0,3.5703,3.5664,3.5996,3.6348,3.6914,3.7773,3.7598,3.7305,3.6934,3.875,3.9082,3.8125,4.082,4.2148,4.2324,4.3242,4.3183,4.2285,4.0176,3.8945,3.8437,3.8437,3.8633,3.8809,3.7715,3.75,0.0,0.0,0.0,0.0,0.0,0.0,0.0,3.4316,3.4297,3.4414,3.3652,3.3359,3.3281,3.3281,3.3594,3.4492,3.6797,4.0019,4.2949,4.4297,4.5234,4.5898,4.6172,4.6445,4.6465,4.5801,4.5371,4.498,4.4609,4.5176,4.5742,4.5918,4.6308,4.6699,4.7031,4.6484,4.6133,4.6289,4.5391,4.459,4.4023,4.3496,4.291,4.2246,4.1953,4.1641,4.1308,4.123,4.1172,4.1172,4.1172,4.1172,4.1172,4.1172,4.1172,4.1172,4.1172,4.1172,4.1172,4.1172,4.1172,4.1172,4.1172,4.1172,4.1172,4.1172,4.1172,4.1172,4.1172,4.1172,4.1172,0.0,0.0,0.0,0.0,0.0,0.0,0.0,0.0,0.0,0.0,0.0,0.0,0.0,0.0,0.0,0.0,0.0,0.0,0.0,0.0,3.5488,3.5703,3.6328,3.6777,3.7012,3.6797,3.6562,3.6348,3.7461,3.7969,3.7988,4.0586,4.2129,4.2793,4.3848,4.3613,4.2324,4.0781,3.9512,3.8594,3.8789,3.8887,3.8809,3.793,3.7617,3.748,3.6406,0.0,0.0,0.0,0.0,0.0,0.0,0.0,3.457,3.3926,3.3594,3.3418,3.3418,3.4355,3.6074,3.9277,4.1914,4.3926,4.4824,4.5195,4.5312,4.5098,4.5742,4.6133,4.5488,4.5195,4.4922,4.4473,4.459,4.4726,4.4726,4.4922,4.5215,4.5664,4.5137,4.4824,4.5039,4.4277,4.3574,4.3125,4.2695,4.2266,4.1816,4.1621,4.1406,4.1172,4.1172,4.1172,4.1172,4.1172,4.1172,4.1172,4.1172,4.1172,4.1172,4.1172,4.1172,4.1172,4.1172,4.1172,4.1172,4.1172,4.1172,4.1172,4.1172,4.1172,4.1172,4.1172,4.1172,4.1172,0.0,0.0,0.0,0.0,0.0,0.0,0.0,0.0,0.0,0.0,0.0,0.0,0.0,0.0,0.0,0.0,0.0,0.0,0.0,0.0,0.0,3.5605,3.6289,3.6562,3.6348,3.6562,3.6484,3.6133,3.6562,3.7324,3.8418,4.0801,4.2363,4.3242,4.4609,4.418,4.2363,4.1504,4.0098,3.8476,3.8769,3.8711,3.8418,3.7988,3.7637,3.7305,3.6523,3.623,3.623,3.623,0.0,0.0,0.0,0.0,3.4824,3.4238,3.3828,3.3535,3.3535,3.5234,3.7832,4.125,4.2793,4.3672,4.4414,4.457,4.4473,4.4121,4.4863,4.5391,4.4805,4.4473,4.4238,4.4082,4.373,4.3476,4.3476,4.3476,4.3652,4.4121,4.3769,4.3516,4.3594,4.3203,4.2793,4.2344,4.1992,4.1758,4.1699,4.1367,4.1172,4.1172,4.1172,4.1172,4.1172,4.1172,4.1172,4.1172,4.1172,4.1172,4.1172,4.1094,4.1055,4.1055,4.1055,4.1016,4.0957,4.1035,4.1055,4.1074,4.1152,4.1172,4.1172,4.1172,4.1172,4.1172,0.0,0.0,0.0,0.0,0.0,0.0,0.0,0.0,0.0,0.0,3.5488,3.5351,0.0,0.0,0.0,0.0,0.0,0.0,0.0,0.0,0.0,3.6484,3.6601,3.6992,3.7656,3.7012,3.6641,3.6582,3.7012,3.8223,4.0195,4.166,4.2793,4.3613,4.3476,4.3047,4.2246,3.957,3.8281,3.7988,3.7676,3.7734,3.7969,3.7539,3.7578,3.7773,3.7305,3.7129,3.7129,3.7129,3.7129,0.0,0.0,0.0,3.5605,3.4414,3.4023,3.3984,3.3984,3.6113,3.8711,4.0371,4.1699,4.2637,4.2754,4.2773,4.2754,4.2695,4.3984,4.4746,4.3555,4.3594,4.3555,4.2812,4.2637,4.2598,4.2598,4.2598,4.2754,4.3203,4.2871,4.2734,4.3125,4.2773,4.2344,4.1914,4.1836,4.1641,4.1269,4.1211,4.1172,4.1172,4.1172,4.1172,4.1172,4.1172,4.1172,4.1172,4.1172,4.1172,4.1172,4.0781,4.0605,4.0605,4.0605,4.041,4.0098,4.0449,4.0605,4.0644,4.1035,4.1172,4.1172,4.1172,4.1172,4.1172,0.0,0.0,0.0,0.0,0.0,0.0,0.0,0.0,0.0,0.0,0.0,3.5469,0.0,0.0,0.0,0.0,0.0,0.0,0.0,0.0,0.0,3.5566,3.582,3.623,3.6836,3.6504,3.6309,3.6309,3.6973,3.8535,4.0918,4.2187,4.3262,4.4043,4.2891,4.2129,4.1582,3.9258,3.8281,3.8242,3.7812,3.791,3.8223,3.7559,3.7559,3.7871,3.7441,3.7441,3.7617,3.7383,3.7461,3.75,3.666,0.0,0.0,0.0,3.4453,3.4277,3.5254,3.6504,3.8047,4.0312,4.1308,4.1855,4.2324,4.2422,4.2363,4.2129,4.2871,4.3398,4.2812,4.2871,4.2793,4.2168,4.207,4.1992,4.1758,4.1719,4.1875,4.2305,4.1992,4.1894,4.2324,4.1973,4.1641,4.1465,4.1445,4.1367,4.1191,4.1172,4.1172,4.1172,4.0937,4.0801,4.0801,4.0566,4.0449,4.0449,4.0449,4.0449,4.0449,4.0254,4.0293,4.0508,4.0273,4.0059,3.9922,4.0351,4.0527,4.0566,4.0996,4.1172,4.1172,4.1172,4.1172,4.1172,0.0,0.0,0.0,0.0,0.0,0.0,0.0,0.0,0.0,0.0,0.0,0.0,0.0,0.0,0.0,0.0,0.0,0.0,0.0,0.0,0.0,3.4883,3.5312,3.5703,3.6016,3.6016,3.6016,3.6016,3.6875,3.8789,4.168,4.2734,4.4062,4.5449,4.3496,4.2207,4.1387,3.9648,3.8965,3.8984,3.8125,3.7969,3.8184,3.7656,3.7656,3.791,3.7812,3.791,3.8086,3.7988,3.8008,3.7988,3.7363,3.6777,0.0,0.0,0.0,3.4375,3.5781,3.625,3.6934,3.9414,4.0273,4.0742,4.1582,4.1875,4.1894,4.168,4.1894,4.2109,4.2109,4.2187,4.2129,4.1699,4.1641,4.1523,4.1211,4.1172,4.1289,4.1601,4.1367,4.1308,4.1621,4.1348,4.1172,4.1172,4.1172,4.1133,4.1016,4.1016,4.0957,4.0859,4.0527,4.0371,4.0371,4.0059,3.9902,3.9902,3.9902,3.9902,3.9883,3.9766,3.9902,4.0176,3.9844,3.9668,3.959,4.0019,4.0195,4.0234,4.0684,4.0918,4.1016,4.1016,4.1074,4.1172,0.0,0.0,0.0,0.0,0.0,0.0,0.0,0.0,0.0,0.0,0.0,0.0,3.5996,3.5976,3.5801,3.5391,3.5391,0.0,0.0,0.0,0.0,3.5351,3.5762,0.0,3.6016,3.6016,3.6016,3.6016,3.6875,3.9238,4.2988,4.3457,4.5449,4.8516,4.5976,4.3926,4.2246,4.0547,4.0059,4.0234,3.8164,3.7344,3.7402,3.7754,3.791,3.8027,3.8809,3.8867,3.8672,3.9492,3.9219,3.8535,3.8496,3.791,3.707,0.0,0.0,0.0,3.4668,3.5117,3.5703,3.666,3.7812,3.8945,3.9824,4.0332,4.0742,4.1133,4.123,4.123,4.123,4.1562,4.1699,4.1269,4.1211,4.1191,4.1172,4.1172,4.1172,4.1211,4.1191,4.1191,4.1211,4.1191,4.1172,4.1172,4.1172,4.0996,4.0586,4.0566,4.0371,3.998,3.9941,3.9922,3.9922,3.9902,3.9902,3.9902,3.9902,3.9902,3.9883,3.9434,3.9258,3.9277,3.9258,3.9004,3.8672,3.9101,3.9277,3.9316,3.9785,4.0195,4.0566,4.0566,4.082,4.1172,0.0,0.0,0.0,0.0,0.0,0.0,0.0,0.0,0.0,0.0,0.0,0.0,0.0,3.6016,3.5957,3.5801,3.5801,0.0,0.0,0.0,0.0,3.5391,3.5527,3.5742,3.6016,3.6016,3.6016,3.6016,3.6601,3.832,4.1074,4.2598,4.4101,4.5527,4.4902,4.4121,4.3086,4.0527,3.9531,3.9551,3.8242,3.7871,3.8105,3.7969,3.8105,3.8379,3.8691,3.8887,3.8984,3.9043,3.9023,3.8887,3.834,3.7949,3.748,3.6348,3.5508,3.4961,3.5098,3.5039,3.5234,3.6387,3.7012,3.75,3.8086,3.8984,3.9648,3.9531,3.9961,4.0351,4.0351,4.0918,4.1348,4.1191,4.0937,4.0762,4.0762,4.0527,4.0449,4.0723,4.0527,4.0449,4.0723,4.0508,4.0351,4.0351,4.0351,4.0293,4.0137,4.0117,4.0059,3.9902,3.9609,3.918,3.8633,3.8359,3.8223,3.8223,3.8223,3.8379,3.8633,3.8457,3.8535,3.8789,3.8789,3.8711,3.8613,3.9023,3.9375,3.9687,4.0137,4.0391,4.0566,4.084,4.0859,4.0801,0.0,0.0,0.0,0.0,0.0,0.0,0.0,0.0,3.6016,3.6016,0.0,0.0,0.0,0.0,3.6016,3.6016,3.5898,3.5684,3.541,3.5391,3.5391,3.5391,3.5527,3.5742,3.6016,3.6016,3.6016,3.6016,3.6465,3.7773,3.9922,4.1484,4.291,4.4121,4.3711,4.3691,4.3789,4.1641,4.0469,3.998,3.8984,3.8672,3.8828,3.9121,3.9141,3.9101,3.9668,3.9687,3.9434,3.9453,3.9336,3.9141,3.8711,3.8281,3.7695,3.6562,3.5937,3.5566,3.543,3.4941,3.4805,3.6133,3.623,3.623,3.7109,3.7851,3.8359,3.8359,3.8828,3.9277,3.9414,4.0039,4.0566,4.0723,4.0508,4.0312,4.0312,3.9941,3.9824,4.0254,3.9922,3.9844,4.0273,4.0059,3.9902,3.9902,3.9902,3.9824,3.9668,3.9668,3.9531,3.9238,3.8789,3.8281,3.7715,3.7441,3.7305,3.7305,3.7305,3.7441,3.7715,3.7851,3.8086,3.8359,3.8516,3.8574,3.8594,3.8887,3.9258,3.9668,3.9805,4.0059,4.0351,4.0644,4.0644,4.0586,0.0,0.0,0.0,0.0,0.0,0.0,0.0,0.0,3.6016,3.6016,0.0,0.0,0.0,0.0,0.0,3.6055,3.5684,3.5449,3.541,3.541,3.541,3.541,0.0,0.0,3.6016,3.6016,3.6016,3.6016,3.6445,3.7734,3.9805,4.0254,4.2031,4.4766,4.2715,4.2734,4.4258,4.3769,4.2871,4.166,4.0391,3.9629,3.9453,4.1113,4.0976,4.0117,4.1758,4.1289,4.0019,4.0859,4.0273,3.9297,3.9746,3.8984,3.7773,3.6953,3.6406,3.5957,0.0,0.0,0.0,3.5644,3.5332,3.5137,3.6797,3.6894,3.6855,3.7656,3.7851,3.8008,3.8437,3.8848,3.9277,3.9746,3.9844,3.9844,3.9844,3.9434,3.9316,3.9785,3.9434,3.9336,3.9805,3.9824,3.9824,3.9844,3.9824,3.9629,3.916,3.9141,3.8769,3.793,3.75,3.7285,3.7285,3.7266,3.7266,3.7266,3.7266,3.7266,3.7285,3.7715,3.791,3.7949,3.8379,3.8574,3.8574,3.8574,3.8828,3.916,3.875,3.9121,3.9902,3.9902,4.0176,4.0586,0.0,0.0,0.0,0.0,0.0,3.5117,3.5742,3.5937,3.6016,0.0,0.0,0.0,3.6484,3.7031,3.7266,3.6973,3.6836,3.6504,3.5898,3.584,3.584,3.584,3.5957,3.6016,3.6016,3.6016,3.6016,3.6016,3.6133,3.666,3.7578,3.8633,3.9726,4.084,4.1504,4.1719,4.1543,4.0781,4.0801,4.123,3.9922,3.9883,4.0605,4.0469,4.0195,3.9961,4.043,4.0293,3.9941,4.0176,4.0,3.9668,3.9453,3.8711,3.7871,3.7637,3.7285,3.6777,3.6055,0.0,0.0,0.0,0.0,0.0,3.4531,3.5137,3.5723,3.5605,3.6348,3.7051,3.7168,3.7285,3.7519,3.7949,3.8535,3.8828,3.8516,3.8105,3.7988,3.8418,3.8086,3.8125,3.8867,3.8379,3.8144,3.8437,3.8184,3.7969,3.7832,3.7832,3.7715,3.748,3.707,3.6836,3.6836,3.6543,3.6367,3.6367,3.6367,3.6543,3.6855,3.7285,3.7637,3.7949,3.8379,3.8574,3.8574,3.8574,3.8828,3.9199,3.9082,3.9375,3.9941,4.0234,4.041,4.0586,0.0,0.0,0.0,0.0,0.0,3.5547,3.6426,3.6562,3.6562,0.0,0.0,0.0,3.7148,3.8281,3.8613,3.7637,3.7559,3.7187,3.6348,3.6289,3.6211,3.6035,3.6016,3.6016,3.6016,3.6016,3.6016,3.6016,3.6016,3.6152,3.6406,3.7168,3.7832,3.8437,3.9277,3.957,3.9394,3.8887,3.9434,4.0605,4.0195,4.0488,4.1211,4.1621,4.1426,4.1016,4.1582,4.1543,4.1172,4.0801,4.0449,4.0039,3.9394,3.8867,3.8379,3.8027,3.7754,3.7402,3.6738,3.6289,3.5918,3.5508,0.0,0.0,3.4277,3.4414,3.4551,3.4453,3.5059,3.5644,3.582,3.584,3.5918,3.6172,3.6621,3.707,3.7363,3.7031,3.6855,3.7109,3.6914,3.7031,3.7715,3.748,3.7402,3.7637,3.7441,3.7305,3.7305,3.7129,3.7031,3.7031,3.6621,3.6406,3.6406,3.6152,3.6016,3.6016,3.6016,3.6152,3.6406,3.6836,3.7168,3.7422,3.7851,3.8144,3.8301,3.8301,3.8652,3.918,3.9004,3.9219,3.9668,4.0098,4.0254,4.0351,0.0,0.0,3.3848,3.5156,3.5742,3.6328,3.7226,3.7363,3.7383,0.0,3.7246,3.7461,3.8398,3.9785,4.0019,3.8418,3.8144,3.7715,3.6875,3.6719,3.6523,3.6172,3.6113,3.6113,3.6152,3.6152,3.6133,3.6094,3.6094,3.6074,3.6016,3.6016,3.6426,3.7148,3.6758,3.7031,3.7793,3.7832,3.8613,3.9902,4.0762,4.1211,4.1582,4.3457,4.3457,4.2578,4.3808,4.3711,4.2891,4.207,4.123,4.0391,3.959,3.9316,3.9121,3.8301,3.8066,3.7969,3.75,3.6816,3.6387,3.7051,3.5781,0.0,3.5176,3.4414,3.3633,3.3887,3.3965,3.4101,3.4434,3.4492,3.4492,3.4551,3.4551,3.5,3.6269,3.6113,3.5879,3.5879,3.5879,3.6055,3.6484,3.6816,3.7031,3.709,3.709,3.709,3.709,3.6777,3.6562,3.6465,3.6172,3.5996,3.5957,3.5996,3.6016,3.6016,3.6016,3.6016,3.6035,3.6465,3.668,3.6699,3.7109,3.7539,3.791,3.7871,3.8359,3.9101,3.873,3.8828,3.9258,3.9668,3.9883,4.0078,0.0,3.3418,3.3848,3.5156,3.5742,3.6426,3.7617,3.7812,3.793,3.8281,3.916,4.0351,4.1894,4.1758,4.1269,4.0605,3.957,3.8594,3.7734,3.7051,3.6777,3.7031,3.6719,3.6699,3.7051,3.7051,3.6875,3.6543,3.6543,3.6367,3.6016,3.6016,3.6113,3.6269,3.6191,3.6426,3.6934,3.7266,3.8164,3.9414,4.0293,4.1484,4.2715,4.2773,4.2656,4.25,4.3125,4.2988,4.248,4.1973,4.123,4.0488,4.0312,4.0039,3.9648,3.9121,3.8945,3.8789,3.8008,3.7676,3.7422,3.6914,3.6465,0.0,3.5039,3.4629,3.418,3.3242,3.332,3.3476,3.3223,3.3164,3.3281,3.3613,3.3672,3.4004,3.4941,3.5019,3.4961,3.4961,3.4961,3.5137,3.5605,3.5371,3.5371,3.5742,3.5762,3.5762,3.5762,3.6016,3.582,3.5098,3.5684,3.5859,3.5527,3.5859,3.6016,3.6016,3.6016,3.6016,3.6035,3.6465,3.668,3.6699,3.7109,3.7539,3.7891,3.7559,3.793,3.8691,3.8613,3.8828,3.9219,3.9297,3.9785,4.043,3.3457,3.3594,3.4238,3.5762,3.6387,3.7168,3.8672,3.8906,3.9219,4.0078,4.1875,4.293,4.25,4.2617,4.2148,4.0664,3.9726,3.8828,3.7988,3.7539,3.7305,3.7305,3.709,3.709,3.7285,3.7305,3.709,3.668,3.668,3.6445,3.6016,3.6016,3.6016,3.6016,3.6016,3.6269,3.6719,3.7344,3.8223,3.9277,4.0176,4.1426,4.2754,4.2754,4.2891,4.3086,4.332,4.2969,4.2422,4.2441,4.1738,4.0801,4.0586,4.0371,4.0117,3.9668,3.9551,3.9453,3.9023,3.873,3.8457,3.8047,3.7305,0.0,0.0,3.4863,3.4141,3.3281,3.3105,3.3047,3.2832,3.2441,3.2305,3.2734,3.2617,3.2695,3.334,3.3789,3.3906,3.3476,3.3613,3.3848,3.4082,3.4277,3.457,3.5019,3.4863,3.4824,3.5039,3.5254,3.5156,3.4707,3.5137,3.5371,3.5391,3.5605,3.582,3.6016,3.6016,3.6016,3.6035,3.625,3.6348,3.6348,3.6562,3.6894,3.7305,3.7305,3.7676,3.8242,3.8242,3.8516,3.8926,3.9121,3.9629,4.0215,3.3496,3.3711,3.4473,3.6133,3.6914,3.7851,3.9512,3.9902,4.0527,4.1973,4.3926,4.4512,4.2734,4.3086,4.2734,4.0918,3.9805,3.9043,3.8691,3.8203,3.7812,3.7559,3.7461,3.7461,3.7539,3.7539,3.7344,3.6914,3.6914,3.6699,3.6269,3.6191,3.6191,3.6269,3.6191,3.6426,3.6953,3.7734,3.8555,3.9394,4.0195,4.123,4.2363,4.2891,4.3281,4.3594,4.3672,4.3203,4.2598,4.2871,4.2168,4.1113,4.0762,4.0644,4.0566,4.0137,4.0019,4.0,3.9922,3.9629,3.9336,3.9336,3.8242,3.7012,0.0,0.0,0.0,3.3574,3.3144,3.2871,3.2695,3.2109,3.1738,3.1992,3.1816,3.1699,3.1894,3.2578,3.2832,3.2307,3.248,3.2676,3.2676,3.3301,3.3887,3.4297,3.4082,3.4101,3.4434,3.4609,3.4629,3.4453,3.4609,3.4844,3.5137,3.5312,3.5566,3.5898,3.5976,3.6016,3.6016,3.6016,3.6016,3.6016,3.6016,3.6269,3.6699,3.7031,3.748,3.793,3.8027,3.8262,3.8613,3.8965,3.9375,3.9766,3.3496,3.3457,3.3926,3.5293,3.6523,3.7754,3.9082,3.9941,4.1191,4.3223,4.3418,4.3848,4.5098,4.3633,4.293,4.3808,4.1016,3.9805,4.1269,3.9199,3.8066,3.8418,3.8066,3.8027,3.8418,3.8437,3.8223,3.7773,3.7773,3.7559,3.7148,3.6777,3.6797,3.7129,3.6758,3.7031,3.7812,3.8301,3.9004,3.9863,4.0332,4.1055,4.1953,4.2773,4.3105,4.3203,4.3574,4.3398,4.2949,4.2617,4.1914,4.1172,4.1113,4.1094,4.1016,4.0586,4.0449,4.0371,4.0,3.9863,3.9824,3.9824,3.9355,3.8613,3.7422,0.0,3.582,3.3828,0.0,3.3125,3.2383,0.0,0.0,3.1641,3.1875,3.1855,3.1133,3.1445,3.1836,3.2129,3.2268,3.2307,3.2307,3.2324,3.2559,3.2988,3.3301,3.3516,3.3574,3.4277,3.4355,3.3594,3.4297,3.4551,3.4219,3.5,3.541,3.5469,3.584,3.6016,3.6016,3.6016,3.6016,3.6016,3.6016,3.6269,3.668,3.6719,3.7207,3.7969,3.8359,3.8535,3.8574,3.8633,3.8926,3.9277,3.3457,3.3633,3.4219,3.5527,3.6211,3.7246,3.9297,4.1621,4.3262,4.3652,4.4863,4.5781,4.6016,4.4785,4.3848,4.3652,4.1836,4.0586,4.0312,3.9277,3.8633,3.8574,3.8398,3.8379,3.8574,3.8574,3.8359,3.793,3.793,3.7715,3.7285,3.7109,3.7129,3.7285,3.7109,3.75,3.834,3.8769,3.9453,4.0293,4.0723,4.1113,4.1523,4.2383,4.2851,4.3066,4.2988,4.2695,4.2305,4.2129,4.166,4.1172,4.1172,4.1172,4.1133,4.0957,4.0898,4.0859,4.0684,4.0644,4.0644,4.0644,3.9922,3.9004,3.8223,3.7324,3.6269,3.4863,0.0,0.0,0.0,0.0,0.0,0.0,3.1992,3.166,3.1309,3.1191,3.123,3.1406,3.1426,3.1523,3.1758,3.1562,3.1719,3.2383,3.2363,3.2422,3.2676,3.3262,3.3437,3.3066,3.3652,3.4004,3.4082,3.4687,3.5137,3.5391,3.582,3.6016,3.6016,3.6016,3.6016,3.6016,3.6016,3.6133,3.6328,3.6836,3.7246,3.7637,3.8301,3.8574,3.8574,3.8574,3.8848,3.916,3.3574,3.375,3.4238,3.5293,3.5781,3.6894,3.9492,4.2012,4.3691,4.3867,4.5332,4.6387,4.6465,4.5605,4.4824,4.4355,4.3086,4.1777,4.0527,3.9883,3.9316,3.8769,3.8633,3.8633,3.875,3.8633,3.8418,3.8105,3.8105,3.7949,3.7637,3.7519,3.7539,3.7656,3.7656,3.8125,3.8965,3.9394,4.0,4.0723,4.1035,4.125,4.1406,4.2031,4.2519,4.2851,4.2539,4.2148,4.1797,4.1797,4.1523,4.1172,4.1172,4.1172,4.1172,4.1172,4.1172,4.1172,4.1172,4.1172,4.1172,4.1172,4.0273,3.9277,3.8848,3.793,3.6914,3.5937,3.5469,0.0,0.0,0.0,3.3242,0.0,0.0,3.1914,3.1562,3.125,3.1016,3.0898,3.0898,3.1016,3.1328,3.1074,3.1152,3.1777,3.1641,3.166,3.1973,3.25,3.2793,3.2793,3.3203,3.3574,3.3887,3.4316,3.4746,3.5215,3.5644,3.5898,3.6016,3.6016,3.6016,3.6016,3.6016,3.6016,3.6094,3.6953,3.7305,3.7383,3.8242,3.8574,3.8574,3.8574,3.8769,3.8984,3.3965,3.373,3.3594,3.4043,3.5176,3.6894,3.9492,3.998,4.1094,4.4004,4.3711,4.416,4.6641,4.5781,4.5683,4.7305,4.5117,4.3613,4.3574,4.1621,4.0098,3.9219,3.8789,3.8769,3.918,3.8789,3.8574,3.8555,3.8555,3.8555,3.8516,3.8105,3.8125,3.8535,3.8535,3.9023,3.9883,4.0293,4.0742,4.1152,4.1172,4.1426,4.1777,4.1816,4.207,4.2441,4.2441,4.2148,4.1797,4.1797,4.1523,4.1172,4.1172,4.1172,4.1172,4.1172,4.1172,4.1172,4.1172,4.1172,4.1172,4.1172,4.0508,3.9746,3.9297,3.8828,3.8144,3.6894,3.6621,3.6348,3.5508,3.4961,0.0,0.0,0.0,0.0,0.0,3.1504,3.1348,3.0937,3.0898,3.0898,3.0918,3.0898,3.0898,3.0937,3.1289,3.1523,3.1543,3.2344,3.2793,3.2793,3.3203,3.3437,3.3437,3.3887,3.4297,3.4726,3.5195,3.5625,3.6016,3.6016,3.6016,3.6016,3.6016,3.6016,3.6094,3.6953,3.7305,3.7383,3.8242,3.8574,3.8574,3.8574,3.8574,3.8594,3.4453,3.4375,3.4414,3.4863,3.5312,3.6387,3.8672,4.0469,4.2461,4.4922,4.5957,4.7344,4.9668,4.9277,4.8848,4.8867,4.7266,4.5664,4.4258,4.2676,4.1406,4.0547,3.9824,3.9375,3.9199,3.9062,3.8848,3.8574,3.8574,3.8574,3.8574,3.8418,3.8437,3.8574,3.8574,3.9062,3.9902,4.0059,4.0527,4.1172,4.1172,4.1582,4.2148,4.1601,4.1641,4.1973,4.1699,4.1504,4.1387,4.1387,4.1289,4.1172,4.1172,4.1172,4.1172,4.1172,4.1172,4.1172,4.1172,4.1172,4.1172,4.1172,4.0742,4.0273,4.0117,3.9746,3.916,3.8144,3.793,3.7578,3.6445,3.5879,0.0,0.0,0.0,0.0,0.0,3.1465,3.1055,3.0918,3.0898,3.0898,3.0898,3.0898,3.0898,3.0898,3.1016,3.1094,3.1094,3.1914,3.2383,3.2383,3.3066,3.3418,3.3418,3.3848,3.4277,3.4707,3.5176,3.5605,3.6016,3.6016,3.6016,3.6016,3.6016,3.6191,3.6484,3.707,3.7461,3.7773,3.834,3.8574,3.8574,3.8574,3.8574,3.8652,3.4726,3.4707,3.4785,3.5098,3.5527,3.6465,3.8301,4.0898,4.3437,4.5625,4.7383,4.9199,5.1211,5.1191,5.0742,5.0039,4.9219,4.7558,4.4805,4.4101,4.3144,4.168,4.0937,4.0508,4.0351,3.9746,3.9238,3.8789,3.8789,3.873,3.8574,0.0,0.0,0.0,3.873,3.9199,3.9902,4.0059,4.0527,4.1172,4.1172,4.1504,4.1914,4.1387,4.1523,4.1953,4.1387,4.1172,4.1172,4.1172,4.1172,4.1172,4.1172,4.1172,4.1172,4.1172,4.1172,4.1172,4.1172,4.1172,4.1172,4.1172,4.084,4.0527,4.0527,4.0312,3.9902,3.9199,3.8906,3.8496,3.7519,3.6738,0.0,0.0,0.0,0.0,0.0,3.166,3.1113,3.1113,3.0976,3.0898,3.0898,3.0898,3.0898,3.0898,3.0898,3.0898,3.0898,3.1699,3.2229,3.2229,3.2988,3.3418,3.3418,3.3691,3.4121,3.4707,3.5,3.5449,3.6016,3.6016,3.6016,3.6016,3.6016,3.6269,3.6699,3.6953,3.7402,3.7949,3.8223,3.8437,3.8574,3.8574,3.8672,3.8906,3.4863,3.4785,3.4805,3.4824,3.5859,3.7148,3.8437,4.1172,4.3867,4.6074,4.7871,4.9609,5.1367,5.1543,5.1367,5.0937,5.0859,4.9258,4.5527,4.5957,4.5254,4.2754,4.2187,4.209,4.2422,4.082,3.9746,3.9238,3.9219,3.9004,0.0,0.0,0.0,0.0,3.9004,3.9453,3.9922,4.0351,4.0781,4.1172,4.1172,4.1191,4.123,4.1191,4.1699,4.2324,4.1484,4.1172,4.1172,4.1172,4.1172,4.1172,4.1172,4.1172,4.1172,4.1172,4.1172,4.1172,4.1172,4.1172,4.1172,4.1172,4.0859,4.0547,4.0547,4.0547,4.043,4.0019,3.9551,3.9101,3.8652,3.7559,0.0,0.0,0.0,0.0,0.0,3.209,3.1543,3.1543,3.1172,3.0918,3.0898,3.0898,3.0898,3.0898,3.0898,3.0898,3.0898,3.1699,3.2229,3.2229,3.2988,3.3418,3.3418,3.3418,3.3848,3.4707,3.4707,3.5156,3.6016,3.6016,3.6016,3.6016,3.6016,3.6289,3.6699,3.6699,3.7187,3.7949,3.7949,3.8223,3.8613,3.8613,3.8867,3.9277,3.5762,3.5937,3.6269,3.6582,3.6914,3.7676,3.9316,4.1562,4.4082,4.6894,4.9023,5.1074,5.3144,5.3066,5.2695,5.2266,5.1641,5.0586,4.8965,4.7851,4.6816,4.582,4.4473,4.332,4.2441,4.1699,4.0781,3.9726,3.9375,3.9141,3.9043,0.0,0.0,0.0,3.9004,3.9453,3.9922,4.0351,4.0781,4.1172,4.1172,4.1543,4.2031,4.1406,4.1699,4.2324,4.1484,4.1172,4.1172,4.1172,4.1172,4.1172,4.1172,4.1172,4.1172,4.1172,4.1172,4.1172,4.1172,4.1172,4.1172,4.1172,4.1094,4.1016,4.1016,4.1016,4.0879,4.0449,4.0019,3.9473,3.8711,3.7793,3.6855,0.0,0.0,0.0,0.0,3.2539,3.2012,3.2012,3.1621,3.123,3.0918,3.0898,3.0898,3.0898,3.0898,3.0898,3.0898,3.1699,3.2229,3.2229,3.2988,3.3418,3.3418,3.3418,3.3848,3.4707,3.4707,3.5156,3.6016,3.6016,3.6016,3.6016,3.6016,3.6445,3.7148,3.7148,3.7637,3.8418,3.8418,3.8672,3.9043,3.9043,3.9101,3.9316,3.6094,3.6816,3.7695,3.832,3.9043,3.9863,4.0859,4.2519,4.459,4.7226,4.9473,5.1269,5.248,5.3242,5.332,5.25,5.2168,5.1308,4.9707,4.9219,4.8457,4.7266,4.6289,4.5176,4.3867,4.2676,4.1445,4.0176,3.9512,3.9101,3.8926,0.0,0.0,0.0,0.0,3.9355,3.9629,4.0254,4.0781,4.1172,4.1172,4.1465,0.0,4.1348,4.1465,4.1816,4.1348,4.1172,4.1172,4.1172,4.1172,4.1172,4.1172,4.1172,4.1172,4.1172,4.1172,4.1172,4.1172,4.1172,4.1172,4.1172,4.1172,4.1172,4.1172,4.1172,4.1113,4.0859,4.0469,3.9961,3.9277,3.8437,3.7461,0.0,0.0,0.0,3.373,3.3144,3.2656,3.2461,3.1894,3.1426,3.1191,3.0996,3.0898,3.0898,3.0898,3.0898,3.0898,3.1699,3.2229,3.2229,3.3555,3.4101,3.3711,3.4277,3.4707,3.5,3.5,3.5371,3.6016,3.6016,3.6016,3.6035,3.623,3.668,3.7305,3.7305,3.7793,3.8574,3.8574,3.8711,3.8965,3.9375,3.9629,3.9844,3.6269,3.7519,3.8906,3.9668,4.1308,4.2617,4.2891,4.416,4.5762,4.7676,4.9746,5.1074,5.1133,5.2715,5.332,5.2187,5.2422,5.1621,4.9258,5.0117,4.9863,4.791,4.7715,4.7031,4.5703,4.3652,4.1933,4.0605,3.9609,3.8965,0.0,0.0,0.0,0.0,0.0,3.9258,3.9434,4.0195,4.0781,4.1172,4.1172,4.1172,4.1172,4.1172,4.1172,4.1172,4.1172,4.1172,4.1172,4.1172,4.1172,4.1172,4.1172,4.1172,4.1172,4.1172,4.1172,4.1172,4.1172,4.1172,4.1172,4.1172,4.1172,4.1172,4.1172,4.1172,4.1172,4.1172,4.082,4.0391,3.998,3.9121,3.7988,0.0,0.0,3.4746,3.4375,3.3906,3.3437,3.3008,3.2246,0.0,3.1621,3.1172,3.0898,3.0898,3.0898,3.0898,3.0898,3.1699,3.2229,3.2229,3.416,3.4902,3.4258,3.5312,3.5742,3.5566,3.5449,3.5605,3.6016,3.6016,3.6016,3.6035,3.6484,3.6914,3.7305,3.7363,3.7851,3.8574,3.8633,3.8691,3.8848,3.9668,4.0254,4.0605,3.7148,3.8164,3.9141,3.9297,4.1348,4.3555,4.5351,4.7324,4.8887,4.9629,5.1269,5.2519,5.2871,5.2617,5.2324,5.2109,5.2148,5.1699,5.0547,5.0351,4.9961,4.9219,4.8496,4.7344,4.5703,4.4238,4.2676,4.1055,3.9453,3.8828,0.0,0.0,0.0,0.0,0.0,0.0,4.0293,4.0469,4.0781,4.1172,4.1172,4.1172,4.1172,4.1172,4.1172,4.1172,4.1172,4.1172,4.1172,4.1172,4.1172,4.1172,4.1172,4.1172,4.1172,4.1172,4.1172,4.1172,4.1172,4.1172,4.1172,4.1172,4.1172,4.1172,4.1172,4.1172,4.1172,4.1172,4.082,4.0391,3.998,3.8867,3.7832,3.7187,3.6348,3.5762,3.5684,3.498,3.4316,3.3906,3.3398,3.2812,3.2129,3.1348,3.0898,3.0898,3.0898,3.0898,3.0898,3.1699,3.2229,3.2229,3.3555,3.457,3.5156,3.5,3.5449,3.6445,3.5723,3.5605,3.6016,3.6016,3.6016,3.6035,3.6484,3.6914,3.7324,3.7676,3.8105,3.8613,3.8965,3.9316,3.9726,4.0234,4.0684,4.1055,3.8633,3.9316,4.0234,4.1348,4.332,4.5391,4.7324,4.9473,5.0527,4.9609,5.041,5.1133,5.1348,5.1992,5.2324,5.2109,5.1875,5.1484,5.084,5.041,4.998,4.9551,4.8906,4.7754,4.6035,4.4277,4.2656,4.1172,3.9199,3.8457,3.8867,0.0,0.0,3.8594,0.0,3.9492,4.0508,4.0293,4.0586,4.1172,4.1172,4.1172,4.1172,4.1172,4.1172,4.1172,4.1172,4.1172,4.1172,4.1172,4.1172,4.1172,4.1172,4.1172,4.1172,4.1172,4.1172,4.1172,4.1172,4.1172,4.1172,4.1172,4.1172,4.1172,4.1172,4.1172,4.1172,4.1172,4.1016,4.0664,4.0019,3.9004,3.8125,3.7695,3.6914,3.6289,3.6055,3.5469,3.4805,3.416,3.3691,3.3184,3.2559,3.1719,3.1133,3.0918,3.0898,3.0898,3.0898,3.1699,3.2229,3.2229,3.4062,3.5078,3.5039,3.5703,3.6152,3.6328,3.5918,3.582,3.6035,3.625,3.6348,3.6387,3.7031,3.7441,3.7656,3.8086,3.8379,3.8613,3.9043,3.9336,3.9609,4.0273,4.0644,4.0859,4.0195,4.0781,4.1797,4.3652,4.5566,4.7266,4.8535,5.0547,5.1367,4.9766,4.9844,5.0078,5.0078,5.1484,5.2305,5.1973,5.1543,5.1113,5.0703,5.0273,4.9805,4.9277,4.8906,4.793,4.6211,4.4219,4.2539,4.1172,3.9082,3.8242,3.8555,0.0,0.0,0.0,3.8711,3.9375,4.0508,4.0176,4.0469,4.1172,4.1172,4.1172,4.1172,4.1172,4.1172,4.1172,4.1172,4.1172,4.1172,4.1172,4.1172,4.1172,4.1172,4.1172,4.1172,4.1172,4.1172,4.1172,4.1172,4.1172,4.1172,4.1172,4.1172,4.1172,4.1172,4.1172,4.1172,4.1172,4.1094,4.082,4.0156,3.9297,3.8594,3.8242,3.748,3.6797,3.6348,3.5937,3.5312,3.4316,3.3906,3.3457,3.2851,3.2187,3.1582,3.1055,3.0937,3.0898,3.0898,3.1699,3.2229,3.2229,3.4492,3.5488,3.498,3.6348,3.6836,3.6426,3.625,3.6211,3.6309,3.6641,3.6797,3.6855,3.7598,3.7969,3.8086,3.8437,3.8633,3.875,3.918,3.9394,3.957,4.0371,4.0664,4.0703,4.1465,4.2578,4.3711,4.4726,4.6973,4.8535,4.8301,5.0098,5.1562,5.1758,5.1816,5.1836,5.1836,5.166,5.1543,5.1504,5.1113,5.0683,5.0273,4.9824,4.9219,4.8359,4.8281,4.748,4.5781,4.4355,4.2832,4.1172,3.9394,3.8535,3.8555,0.0,0.0,3.9141,3.9141,3.9648,4.0527,4.0488,4.0742,4.1172,4.1172,4.1172,4.1172,4.1172,4.1172,4.1172,4.1172,4.1172,4.1172,4.1172,4.1172,4.1172,4.1172,4.1172,4.1172,4.1172,4.1172,4.1172,4.1172,4.1172,4.1172,4.1172,4.1172,4.1172,4.1172,4.1172,4.1172,4.1172,4.0859,4.0566,4.0469,3.9746,3.9121,3.9082,3.8359,3.7656,3.7246,3.6816,3.6074,3.4785,3.4609,3.4101,3.291,3.2734,3.2344,3.1523,3.1113,3.0898,3.0898,3.1699,3.2229,3.2229,3.3887,3.5176,3.5879,3.6055,3.668,3.7734,3.6973,3.6816,3.7187,3.7226,3.7246,3.7266,3.7734,3.8144,3.8516,3.8555,3.8789,3.9199,3.9648,4.0059,4.0449,4.0937,4.1113,4.1113,4.3672,4.3945,4.4629,4.6269,4.7187,4.8164,4.9551,5.0293,5.082,5.125,5.1543,5.1601,5.1348,5.1152,5.0957,5.0703,5.0293,4.9961,4.9805,4.9375,4.8848,4.8242,4.7969,4.7148,4.5703,4.4141,4.2617,4.1172,3.9434,3.8574,3.8555,3.8125,3.8379,3.9219,3.9492,3.9961,4.0527,4.0527,4.0781,4.1172,4.1172,4.1172,4.1172,4.1172,4.1172,4.1172,4.1172,4.1172,4.1172,4.1172,4.1172,4.1172,4.1172,4.1172,4.1172,4.1172,4.1172,4.1172,4.1172,4.1172,4.1172,4.1172,4.1172,4.1172,4.1172,4.1172,4.1172,4.1172,4.1035,4.084,4.0566,4.0019,3.9531,3.9258,3.8476,3.7871,3.7695,3.709,3.6387,3.5586,3.5019,3.4394,3.3633,3.3105,3.2754,3.2676,3.1797,3.1269,3.1269,3.1836,3.2402,3.291,3.4082,3.5,3.5644,3.6152,3.666,3.7168,3.709,3.7129,3.7305,3.7559,3.7812,3.8066,3.8242,3.8418,3.8594,3.8848,3.9043,3.9277,3.998,4.0371,4.0586,4.1016,4.1172,4.1172,4.5508,4.5449,4.5937,4.7832,4.8008,4.8457,5.0176,5.0293,5.0234,5.041,5.0801,5.0957,5.0644,5.0625,5.0508,5.0215,4.9785,4.9531,4.9531,4.8984,4.8476,4.8047,4.7617,4.6797,4.5508,4.4023,4.2637,4.1348,3.9883,3.9082,3.8965,3.8652,3.8887,3.9609,3.9941,4.0312,4.0723,4.0723,4.0898,4.1172,4.1172,4.1172,4.1172,4.1172,4.1172,4.1172,4.1172,4.1172,4.1172,4.1172,4.1172,4.1172,4.1172,4.1172,4.1172,4.1172,4.1172,4.1172,4.1172,4.1172,4.1172,4.1172,4.1172,4.1172,4.1172,4.1172,4.1172,4.1172,4.1172,4.1074,4.0781,4.0254,3.9785,3.9453,3.8672,3.8066,3.7949,3.7402,3.6777,3.6094,3.5469,3.4863,3.4316,3.3594,3.3242,3.3418,3.248,3.1894,3.1894,3.2305,3.2812,3.3398,3.4394,3.5059,3.5391,3.625,3.6738,3.6855,3.7285,3.7559,3.7676,3.7988,3.8281,3.8574,3.8574,3.8652,3.8789,3.9082,3.9355,3.9648,4.0273,4.0605,4.0762,4.1055,4.1172,4.1172,4.666,4.7246,4.7949,4.9277,4.9863,5.0,4.9609,4.9902,5.0019,4.959,4.9922,5.0195,5.0195,5.0195,5.0195,5.0176,4.9785,4.9531,4.9531,4.8711,4.8027,4.7598,4.7168,4.6348,4.5058,4.416,4.3066,4.1797,4.0918,4.0293,3.9883,3.9883,4.0098,4.0508,4.0508,4.0762,4.1172,4.1172,4.1172,4.1172,4.1172,4.1172,4.1172,4.1172,4.1172,4.1172,4.1172,4.1172,4.1172,4.1172,4.1172,4.1172,4.1172,4.1172,4.1172,4.1172,4.1172,4.1172,4.1172,4.1172,4.1172,4.1172,4.1172,4.1172,4.1172,4.1172,4.1172,4.1172,4.1172,4.1172,4.1172,4.0469,3.9902,3.9883,3.9141,3.8418,3.7988,3.791,3.7441,3.6172,3.6016,3.5664,3.4785,3.4297,3.3887,3.3457,3.3027,3.2773,3.2773,3.3184,3.3418,3.3418,3.4707,3.5391,3.5391,3.625,3.6875,3.7305,3.7715,3.8144,3.8555,3.8555,3.8574,3.8574,3.8574,3.8809,3.9199,3.9199,3.9726,4.0508,4.0527,4.0781,4.1172,4.1172,4.1172,4.1172,4.8164,4.8359,4.8574,4.9004,4.918,4.9336,4.9492,4.9375,4.9336,4.9512,4.9375,4.9277,4.9277,4.9551,4.9609,4.9297,4.916,4.9062,4.9062,4.8535,4.8027,4.7598,4.6894,4.6035,4.5039,4.416,4.3086,4.1797,4.125,4.0605,3.9902,4.0195,4.0391,4.0527,4.084,4.1035,4.1172,4.1172,4.1172,4.1172,4.1172,4.1172,4.1172,4.1172,4.1172,4.1172,4.1172,4.1172,4.1172,4.1172,4.1172,4.1172,4.1172,4.1172,4.1172,4.1172,4.1172,4.1172,4.1172,4.1172,4.1172,4.1172,4.1172,4.1172,4.1172,4.1172,4.1172,4.1172,4.1172,4.1074,4.0781,4.0273,3.988,3.9865,3.9406,3.8971,3.8833,3.8485,3.8078,3.7363,3.6543,3.5918,3.5625,3.4922,3.457,3.4746,3.4355,3.3848,3.3242,3.334,3.3828,3.4746,3.5449,3.5957,3.625,3.7109,3.7598,3.7734,3.8164,3.8594,3.9004,3.9336,3.9473,3.9473,3.9473,3.9551,3.9707,3.998,4.0273,4.0547,4.084,4.1287,4.1618,4.1618,4.1773,4.2005,4.8867,4.8867,4.8867,4.8867,4.8867,4.8945,4.9238,4.9043,4.8965,4.9238,4.9023,4.8867,4.8867,4.9101,4.916,4.8887,4.8867,4.8789,4.8613,4.8203,4.7773,4.7363,4.6523,4.5742,4.5039,4.4004,4.2988,4.2031,4.1465,4.0898,4.0391,4.0644,4.0762,4.0781,4.1055,4.1172,4.1172,4.1172,4.1172,4.1172,4.1172,4.1172,4.1172,4.1172,4.1172,4.1172,4.1172,4.1172,4.1172,4.1172,4.1172,4.1172,4.1172,4.1172,4.1172,4.1172,4.1172,4.1172,4.1172,4.1172,4.1172,4.1172,4.1172,4.1172,4.1172,4.1172,4.1172,4.1172,4.1172,4.1094,4.082,4.0293,3.988,3.983,3.9352,3.903,3.9176,3.8793,3.8413,3.8164,3.7297,3.6749,3.673,3.577,3.5379,3.5807,3.5105,3.4609,3.4414,3.4258,3.4609,3.5605,3.6035,3.6465,3.6894,3.7578,3.8008,3.8184,3.8789,3.9219,3.9473,3.9766,3.9902,3.9902,3.9902,3.998,4.0156,4.041,4.0625,4.0801,4.1074,4.1483,4.1773,4.1773,4.2082,4.237,4.8867,4.8867,4.8867,4.8867,4.8867,4.8867,4.8867,4.8867,4.8867,4.8867,4.8867,4.8867,4.8867,4.8867,4.8867,4.8867,4.8867,4.8672,4.8242,4.7812,4.7383,4.6953,4.6094,4.5449,4.5039,4.375,4.2851,4.2383,4.1562,4.1172,4.1172,4.1172,4.1172,4.1172,4.1172,4.1172,4.1172,4.1172,4.1172,4.1172,4.1172,4.1172,4.1172,4.1172,4.1172,4.1172,4.1172,4.1172,4.1172,4.1172,4.1172,4.1172,4.1172,4.1172,4.1172,4.1172,4.1172,4.1172,4.1172,4.1172,4.1172,4.1172,4.1172,4.1172,4.1172,4.1172,4.1172,4.1172,4.1172,4.1172,4.1133,4.0469,3.9997,3.9938,3.9308,3.8905,3.9248,3.8938,3.8635,3.8601,3.8236,3.7987,3.7966,3.6878,3.6318,3.6638,3.5599,3.5234,3.6074,3.5762,3.5742,3.6094,3.6523,3.6953,3.7383,3.7793,3.8242,3.8672,3.9531,3.9941,3.9941,3.998,3.998,3.998,3.998,4.0195,4.0566,4.0566,4.0801,4.1172,4.1172,4.1463,4.185,4.185,4.2139,4.2447,4.8867,4.8867,4.8867,4.8867,4.8867,4.8867,4.8867,4.8867,4.8867,4.8867,4.8867,4.8867,4.8867,4.8867,4.8867,4.8867,4.8867,4.8672,4.8242,4.7812,4.7383,4.6953,4.5801,4.5137,4.5019,4.375,4.2715,4.1953,4.1426,4.1172,4.1172,4.1172,4.1172,4.1172,4.1172,4.1172,4.1172,4.1172,4.1172,4.1172,4.1172,4.1172,4.1172,4.1172,4.1172,4.1172,4.1172,4.1172,4.1172,4.1172,4.1172,4.1172,4.1172,4.1172,4.1172,4.1172,4.1172,4.1172,4.1172,4.1172,4.1172,4.1172,4.1172,4.1172,4.1172,4.1172,4.1172,4.1172,4.1172,4.1074,4.0742,4.0737,4.0666,4.0364,4.0378,4.0355,4.0083,3.995,3.9766,3.943,3.9057,3.8817,3.8788,3.8287,3.7828,3.7639,3.7302,3.7124,3.6992,3.7207,3.7226,3.6992,3.7402,3.7832,3.8262,3.8691,3.9141,3.959,4.0117,4.0371,4.0391,4.0723,4.0879,4.0879,4.0879,4.0937,4.1016,4.1016,4.1074,4.1172,4.1172,4.1618,4.2293,4.2293,4.2677,4.331,4.8867,4.8867,4.8867,4.8867,4.8867,4.8867,4.8867,4.8867,4.8867,4.8867,4.8867,4.8867,4.8867,4.8672,4.8555,4.8555,4.8555,4.8379,4.7949,4.7344,4.6816,4.6367,4.5117,4.4414,4.4414,4.3164,4.2168,4.1523,4.1289,4.1172,4.1172,4.1172,4.1172,4.1172,4.1172,4.1172,4.1172,4.1172,4.1172,4.1172,4.1172,4.1172,4.1172,4.1172,4.1172,4.1172,4.1172,4.1172,4.1172,4.1172,4.1172,4.1172,4.1172,4.1172,4.1172,4.1172,4.1172,4.1172,4.1172,4.1172,4.1172,4.1172,4.1172,4.1172,4.1172,4.1172,4.1172,4.1172,4.1172,4.1171,4.1091,4.0927,4.0813,4.0706,4.0578,4.0379,4.0279,4.0349,4.0326,4.0326,3.9959,3.9746,3.9962,3.9232,3.8638,3.8447,3.8127,3.7825,3.7578,3.7988,3.8125,3.7891,3.8281,3.873,3.918,3.959,3.9922,4.0195,4.0605,4.0897,4.1128,4.1132,4.1327,4.1463,4.125,4.1327,4.1483,4.125,4.1327,4.1483,4.1483,4.185,4.2447,4.2621,4.3081,4.3539,4.8867,4.8867,4.8867,4.8867,4.8867,4.8867,4.8867,4.8867,4.8867,4.8867,4.8867,4.8867,4.8867,4.8476,4.8203,4.8203,4.8086,4.7871,4.75,4.6738,4.6094,4.5605,4.4375,4.3672,4.3613,4.2422,4.1601,4.1172,4.1172,4.1172,4.1172,4.1172,4.1172,4.1172,4.1172,4.1172,4.1172,4.1172,4.1172,4.1172,4.1172,4.1172,4.1172,4.1172,4.1172,4.1172,4.1172,4.1172,4.1172,4.1172,4.1172,4.1172,4.1172,4.1172,4.1172,4.1172,4.1172,4.1172,4.1172,4.1172,4.1172,4.1172,4.1172,4.1172,4.1172,4.1172,4.1172,4.1172,4.1172,4.1327,4.1618,4.1158,4.0753,4.1008,4.0565,4.0164,4.033,4.048,4.0691,4.1056,4.0825,4.0793,4.1159,4.0248,3.9515,3.9444,3.8686,3.8292,3.8203,3.8574,3.8809,3.8867,3.916,3.9531,3.998,4.041,4.0625,4.0625,4.0996,4.1405,4.1773,4.1405,4.1483,4.185,4.1483,4.156,4.185,4.1483,4.154,4.185,4.185,4.2082,4.2524,4.2851,4.3233,4.3615,4.8867,4.8867,4.8867,4.8867,4.8867,4.8867,4.8867,4.8867,4.8867,4.8867,4.8867,4.8867,4.8867,4.8476,4.8203,4.8203,4.7539,4.709,4.7031,4.6562,4.5957,4.5156,4.4219,4.3535,4.3183,4.2266,4.1601,4.1172,4.1172,4.1172,4.1172,4.1172,4.1172,4.1172,4.1172,4.1172,4.1172,4.1172,4.1172,4.1172,4.1172,4.1172,4.1172,4.1172,4.1172,4.1172,4.1172,4.1172,4.1172,4.1172,4.1172,4.1172,4.1172,4.1172,4.1172,4.1172,4.1172,4.1172,4.1172,4.1172,4.1172,4.1172,4.1172,4.1172,4.1172,4.1172,4.1172,4.1172,4.1172,4.125,4.125,4.1731,4.1851,4.1108,4.1534,4.1626,4.0914,4.1131,4.142,4.1493,4.1771,4.1998,4.2071,4.1947,4.1498,4.0814,4.0338,3.9911,3.957,3.9648,3.9844,4.0215,3.9941,4.0,4.041,4.0859,4.1074,4.1074,4.1152,4.1405,4.1773,4.1405,4.1618,4.2293,4.185,4.1927,4.2293,4.185,4.1927,4.2293,4.1927,4.2236,4.2927,4.3004,4.3233,4.3615,4.8867,4.8867,4.8867,4.8867,4.8867,4.8867,4.8867,4.8867,4.8867,4.8867,4.8867,4.8867,4.8867,4.8262,4.7871,4.7871,4.709,4.6601,4.6601,4.5976,4.5332,4.4707,4.3613,4.2715,4.207,4.166,4.1367,4.1172,4.1172,4.1172,4.1172,4.1172,4.1172,4.1172,4.1172,4.1172,4.1172,4.1172,4.1172,4.1172,4.1172,4.1172,4.1172,4.1172,4.1172,4.1172,4.1172,4.1172,4.1172,4.1172,4.1172,4.1172,4.1172,4.1172,4.1172,4.1172,4.1172,4.1172,4.1172,4.1172,4.1172,4.1172,4.1172,4.1172,4.1172,4.1172,4.1172,4.1172,4.1172,4.125,4.1463,4.1825,4.1983,4.171,4.1838,4.1731,4.1317,4.1648,4.1865,4.1645,4.2035,4.2248,4.2024,4.1725,4.136,4.0744,4.0489,4.0246,3.9883,4.0117,4.0332,4.0508,4.0566,4.0684,4.0879,4.1074,4.1172,4.1172,4.1405,4.1695,4.2159,4.1927,4.2159,4.2697,4.2293,4.237,4.2697,4.2313,4.239,4.2697,4.2544,4.2697,4.3004,4.3233,4.3462,4.3615,4.8867,4.8867,4.8867,4.8867,4.8867,4.8867,4.8867,4.8867,4.8867,4.8867,4.8769,4.8711,4.8711,4.7949,4.7422,4.7422,4.6738,4.6308,4.6308,4.5508,4.4844,4.4414,4.3047,4.1933,4.1191,4.1172,4.1172,4.1172,4.1172,4.1172,4.1172,4.1172,4.1172,4.1172,4.1172,4.1172,4.1172,4.1172,4.1172,4.1172,4.1172,4.1172,4.1172,4.1172,4.1172,4.1172,4.1172,4.1172,4.1172,4.1172,4.1172,4.1172,4.1172,4.1172,4.1172,4.1172,4.1172,4.1172,4.1172,4.1172,4.1172,4.1172,4.1172,4.1172,4.1172,4.1172,4.1172,4.1172,4.1172,4.1327,4.1618,4.1725,4.1923,4.2124,4.2056,4.1835,4.1825,4.2124,4.2266,4.18,4.2208,4.2342,4.1887,4.151,4.1138,4.0762,4.0587,4.0436,4.0195,4.041,4.0566,4.0664,4.0996,4.1172,4.1172,4.1327,4.1327,4.1327,4.1773,4.2159,4.2524,4.2447,4.2697,4.3081,4.2697,4.2774,4.3081,4.2697,4.2774,4.3157,4.3024,4.3081,4.3157,4.3462,4.3615,4.3615,4.8867,4.8867,4.8867,4.8867,4.8867,4.8867,4.8867,4.8867,4.8867,4.8867,4.8516,4.8262,4.8262,4.748,4.6973,4.6973,4.6562,4.6308,4.6308,4.5508,4.4844,4.4414,4.2754,4.1641,4.1191,4.1172,4.1172,4.1172,4.1172,4.1172,4.1172,4.1172,4.1172,4.1172,4.1172,4.1172,4.1172,4.1172,4.1172,4.1172,4.1172,4.1172,4.1172,4.1172,4.1172,4.1172,4.1172,4.1172,4.1172,4.1172,4.1172,4.1172,4.1172,4.1172,4.1172,4.1172,4.1172,4.1172,4.1172,4.1172,4.1172,4.1172,4.1172,4.1172,4.1172,4.1172,4.1172,4.1172,4.1172,4.1172,4.125,4.183,4.2209,4.1807,4.2344,4.2683,4.2269,4.258,4.272,4.229,4.2677,4.281,4.2406,4.2289,4.2116,4.1751,4.1297,4.1085,4.1132,4.0723,4.0703,4.1113,4.1152,4.1172,4.1172,4.154,4.1773,4.1773,4.2139,4.2544,4.2927,4.2544,4.283,4.3539,4.3157,4.3157,4.3539,4.3081,4.3157,4.3539,4.3157,4.3233,4.3539,4.3615,4.3615,4.3615,4.8867,4.8867,4.8867,4.8867,4.8867,4.8867,4.8867,4.8867,4.8867,4.8867,4.8476,4.8203,4.8203,4.7441,4.6933,4.6933,4.6543,4.6191,4.5937,4.5351,4.4473,4.3223,4.2051,4.1348,4.1172,4.1172,4.1172,4.1172,4.1172,4.1172,4.1172,4.1172,4.1172,4.1172,4.1172,4.1172,4.1172,4.1172,4.1172,4.1172,4.1172,4.1172,4.1172,4.1172,4.1172,4.1172,4.1172,4.1172,4.1172,4.1172,4.1172,4.1172,4.1172,4.1172,4.1172,4.1172,4.1172,4.1172,4.1172,4.1172,4.1172,4.1172,4.1172,4.1172,4.1172,4.1172,4.1172,4.1172,4.1172,4.1172,4.1172,4.1618,4.2022,4.2092,4.2363,4.257,4.2683,4.2807,4.2631,4.2049,4.2337,4.239,4.1695,4.1618,4.1618,4.1483,4.1248,4.1151,4.1172,4.1016,4.0996,4.1172,4.1172,4.1172,4.1172,4.1327,4.154,4.1773,4.2216,4.26,4.3004,4.3081,4.331,4.3615,4.3462,4.3462,4.3615,4.3462,4.3462,4.3615,4.3462,4.3462,4.3615,4.3615,4.3615,4.3615,4.8867,4.8867,4.8867,4.8867,4.8867,4.8867,4.8867,4.8867,4.8867,4.8867,4.8476,4.8164,4.8027,4.7363,4.6875,4.6738,4.6348,4.5976,4.5703,4.4883,4.3828,4.248,4.1758,4.1308,4.1172,4.1172,4.1172,4.1172,4.1172,4.1172,4.1172,4.1172,4.1172,4.1172,4.1172,4.1172,4.1172,4.1172,4.1172,4.1172,4.1172,4.1172,4.1172,4.1172,4.1172,4.1172,4.1172,4.1172,4.1172,4.1172,4.1172,4.1172,4.1172,4.1172,4.1172,4.1172,4.1172,4.1172,4.1172,4.1269,4.1348,4.1211,4.1172,4.1172,4.1172,4.1172,4.1172,4.1172,4.1172,4.1172,4.1172,4.154,4.1927,4.2159,4.2358,4.261,4.2912,4.2912,4.2686,4.2023,4.2112,4.1927,4.125,4.1172,4.1172,4.1172,4.1172,4.1172,4.1172,4.1172,4.1172,4.1172,4.1327,4.1405,4.1405,4.1463,4.1695,4.2005,4.2524,4.2927,4.3157,4.3462,4.3615,4.3615,4.3615,4.3615,4.3615,4.3615,4.3615,4.3615,4.3615,4.3615,4.3615,4.3615,4.3615,4.3615,4.8867,4.8867,4.8867,4.8867,4.8867,4.8867,4.8867,4.8867,4.8867,4.8867,4.8476,4.8047,4.7617,4.7187,4.6758,4.6348,4.5918,4.5683,4.5664,4.4043,4.2891,4.2441,4.2031,4.1601,4.1191,4.1172,4.1172,4.1172,4.1172,4.1172,4.1172,4.1172,4.1172,4.1172,4.1172,4.1172,4.1172,4.1172,4.1172,4.1172,4.1172,4.1172,4.1172,4.1172,4.1172,4.1172,4.1172,4.1172,4.1172,4.1172,4.1172,4.1172,4.1172,4.1172,4.1172,4.1191,4.1191,4.1191,4.1191,4.1484,4.1699,4.1289,4.1172,4.1172,4.1172,4.1172,4.1172,4.1172,4.1172,4.1191,4.1172,4.156,4.1773,4.1773,4.2467,4.3024,4.3004,4.3004,4.2851,4.2447,4.2082,4.1618,4.125,4.1172,4.1172,4.1172,4.1172,4.1191,4.1191,4.1191,4.1172,4.1172,4.156,4.1773,4.1773,4.2216,4.237,4.2447,4.3233,4.3615,4.3615,4.3615,4.3615,4.3615,4.3615,4.3615,4.3615,4.3615,4.3615,4.3615,4.3615,4.3615,4.3615,4.3615,4.3615,4.3615,4.8867,4.8867,4.8867,4.8867,4.8867,4.8867,4.8867,4.8867,4.8867,4.8867,4.8476,4.8047,4.7617,4.7187,4.6758,4.6348,4.5918,4.543,4.4824,4.3711,4.2891,4.2441,4.1738,4.1308,4.1172,4.1172,4.1172,4.1172,4.1172,4.1172,4.1172,4.1172,4.1172,4.1172,4.1172,4.1172,4.1172,4.1172,4.1172,4.1172,4.1172,4.1172,4.1172,4.1172,4.1172,4.1172,4.1172,4.1172,4.1172,4.1172,4.1172,4.123,4.1523,4.1621,4.168,4.1973,4.2051,4.2051,4.2051,4.2148,4.207,4.1348,4.1387,4.1543,4.125,4.1406,4.1621,4.1621,4.1855,4.213,4.2447,4.2606,4.2822,4.3069,4.3339,4.3449,4.3427,4.3157,4.2851,4.2447,4.2082,4.1618,4.125,4.1172,4.1289,4.1582,4.1894,4.2051,4.2051,4.2051,4.1914,4.1621,4.1994,4.207,4.1773,4.2216,4.2685,4.3319,4.3244,4.3474,4.4091,4.376,4.3615,4.3615,4.3615,4.3615,4.3615,4.3615,4.3615,4.3615,4.3615,4.3615,4.3615,4.3615,4.3615,4.3615,4.8867,4.8867,4.8867,4.8867,4.8867,4.8867,4.8867,4.8867,4.8867,4.8867,4.8633,4.8242,4.7637,4.7344,4.6953,4.6348,4.5762,4.5117,4.4433,4.3574,4.2949,4.2695,4.2031,4.1523,4.1172,4.1172,4.1172,4.1172,4.1172,4.1172,4.1172,4.1172,4.1172,4.1172,4.1172,4.1172,4.1172,4.1172,4.1172,4.1172,4.1172,4.1172,4.1172,4.1172,4.1172,4.1172,4.1172,4.1172,4.1172,4.1172,4.1289,4.1484,4.1914,4.2051,4.209,4.2344,4.2422,4.2422,4.2422,4.2558,4.2519,4.1836,4.1855,4.1973,4.1719,4.1875,4.2051,4.2051,4.2246,4.2463,4.2526,4.2744,4.2823,4.2951,4.3343,4.3596,4.3387,4.3433,4.3302,4.2737,4.2441,4.2108,4.1504,4.1582,4.1739,4.2012,4.2285,4.2422,4.2422,4.2266,4.2228,4.2289,4.2585,4.2759,4.2855,4.3224,4.3416,4.3412,4.33,4.353,4.4029,4.3739,4.3615,4.3615,4.3615,4.3615,4.3615,4.3615,4.3615,4.3615,4.3615,4.3615,4.3615,4.3615,4.3615,4.3615,4.8867,4.8867,4.8867,4.8867,4.8867,4.8867,4.8867,4.8867,4.8867,4.8867,4.8867,4.8535,4.7715,4.7598,4.7246,4.6426,4.5547,4.4844,4.4433,4.3613,4.3125,4.3086,4.2695,4.2109,4.1308,4.125,4.1211,4.1172,4.1172,4.1172,4.1172,4.1172,4.1172,4.1172,4.1172,4.1172,4.1172,4.1172,4.1172,4.1172,4.1172,4.1172,4.1172,4.1172,4.1172,4.1172,4.1172,4.1191,4.123,4.123,4.1504,4.1933,4.2305,4.248,4.2539,4.2598,4.2637,4.2656,4.2656,4.2949,4.3164,4.2754,4.2656,4.2617,4.2461,4.2461,4.248,4.248,4.2519,4.2422,4.213,4.2349,4.2447,4.2166,4.3069,4.3644,4.3213,4.387,4.4134,4.332,4.3119,4.2801,4.2013,4.227,4.2447,4.2461,4.2519,4.2539,4.2539,4.2267,4.2447,4.3201,4.3218,4.367,4.4371,4.4844,4.4432,4.3265,4.3607,4.376,4.3801,4.376,4.3739,4.3739,4.3698,4.3677,4.3677,4.3635,4.3615,4.3615,4.3615,4.3615,4.3615,4.3615,4.3615,4.3615,4.8867,4.8867,4.8867,4.8867,4.8867,4.8867,4.8867,4.8867,4.8867,4.8867,4.8867,4.8652,4.8125,4.7773,4.7363,4.6836,4.5703,4.4844,4.4433,4.3887,4.3418,4.3086,4.2988,4.2695,4.2168,4.1836,4.1504,4.1172,4.1172,4.1172,4.1172,4.1172,4.1172,4.1172,4.1172,4.1172,4.1172,4.1172,4.1172,4.1172,4.1172,4.1172,4.1172,4.1172,4.1172,4.1172,4.1172,4.1387,4.166,4.166,4.1953,4.2305,4.2402,4.2891,4.3496,4.3867,4.4199,4.4453,4.4453,4.4531,4.457,4.4492,4.4453,4.4101,4.2734,4.2695,4.293,4.293,4.3203,4.348,4.3791,4.3934,4.4038,4.4259,4.4518,4.4696,4.4584,4.4468,4.4292,4.4134,4.3558,4.3002,4.2863,4.2919,4.2913,4.293,4.3568,4.4011,4.4011,4.4176,4.424,4.414,4.446,4.4537,4.4371,4.4844,4.5084,4.5071,4.4877,4.4877,4.5229,4.4857,4.4691,4.467,4.4319,4.4153,4.4132,4.376,4.3615,4.3615,4.3615,4.3615,4.3615,4.3615,4.3615,4.3615,4.8867,4.8867,4.8867,4.8867,4.8867,4.8867,4.8867,4.8867,4.8867,4.8867,4.8867,4.8613,4.7969,4.7715,4.7246,4.6406,4.5527,4.4844,4.4433,4.3965,4.3613,4.3379,4.3379,4.3183,4.2754,4.2324,4.1894,4.1465,4.1465,4.1367,4.1172,4.1172,4.1172,4.1172,4.1172,4.1172,4.1172,4.1172,4.1172,4.1191,4.1387,4.1465,4.1465,4.1465,4.1465,4.1465,4.1465,4.1738,4.2129,4.2344,4.2558,4.2773,4.2969,4.3496,4.4082,4.4336,4.4687,4.498,4.4785,4.4863,4.498,4.4766,4.4883,4.4785,4.3867,4.3691,4.3769,4.3965,4.3848,4.3935,4.4647,4.4673,4.4802,4.5291,4.5512,4.5591,4.5365,4.5164,4.4844,4.4442,4.4,4.3639,4.3398,4.3192,4.3324,4.3982,4.4466,4.4852,4.4998,4.5064,4.5006,4.5028,4.5046,4.5084,4.5324,4.5484,4.5768,4.5995,4.5312,4.5126,4.5354,4.5105,4.5002,4.496,4.4505,4.4298,4.4256,4.3801,4.3615,4.3615,4.3615,4.3615,4.3615,4.3615,4.3615,4.3635,4.8867,4.8867,4.8867,4.8867,4.8867,4.8867,4.8867,4.8867,4.8867,4.8867,4.8789,4.8476,4.7773,4.75,4.6933,4.5879,4.5254,4.4766,4.4414,4.3965,4.3711,4.3711,4.3711,4.3535,4.3183,4.2832,4.2363,4.1797,4.1719,4.1523,4.1172,4.1172,4.1172,4.1172,4.1172,4.1172,4.1172,4.1172,4.1172,4.1211,4.1621,4.1758,4.1699,4.1855,4.1855,4.1816,4.1875,4.2187,4.2598,4.2949,4.3125,4.3242,4.3594,4.4082,4.4512,4.459,4.4922,4.5176,4.4824,4.498,4.5156,4.4805,4.498,4.5254,4.5254,4.4805,4.4512,4.4941,4.4459,4.4194,4.5064,4.5177,4.5431,4.582,4.6249,4.6331,4.6106,4.6004,4.5739,4.49,4.4601,4.426,4.3773,4.3507,4.3758,4.4901,4.5187,4.5437,4.5689,4.5512,4.5535,4.58,4.5391,4.5532,4.6266,4.6266,4.6266,4.6266,4.5581,4.5229,4.5229,4.5229,4.5229,4.5188,4.465,4.4422,4.4381,4.3842,4.3615,4.3615,4.3615,4.3615,4.3615,4.3698,4.3739,4.3801,4.8867,4.8867,4.8867,4.8867,4.8867,4.8867,4.8867,4.8867,4.8867,4.8867,4.8535,4.8242,4.8125,4.7129,4.6406,4.623,4.5156,4.4453,4.4394,4.3965,4.3711,4.3711,4.3711,4.3672,4.3613,4.3555,4.2969,4.1797,4.1426,4.123,4.1172,4.1172,4.1172,4.1172,4.1172,4.1172,4.1172,4.1172,4.1172,4.1211,4.1621,4.1582,4.1348,4.207,4.2109,4.1855,4.2207,4.2617,4.3008,4.3066,4.332,4.3633,4.3691,4.4277,4.5019,4.5391,4.5801,4.6113,4.6055,4.6094,4.6113,4.6055,4.6094,4.6133,4.6133,4.5234,4.4512,4.4941,4.4966,4.5084,4.554,4.5981,4.634,4.6841,4.6924,4.7091,4.7423,4.7423,4.7196,4.6742,4.5637,4.4618,4.3797,4.3984,4.4277,4.4459,4.5569,4.6048,4.573,4.6393,4.6598,4.6206,4.6123,4.6204,4.6266,4.6266,4.6266,4.6266,4.6142,4.608,4.608,4.608,4.608,4.6119,4.5271,4.4898,4.4836,4.3967,4.3615,4.3615,4.3615,4.3615,4.3656,4.407,4.4215,4.4277,4.8867,4.8867,4.8867,4.8867,4.8867,4.8867,4.8867,4.8867,4.8867,4.8867,4.8691,4.8476,4.8223,4.7266,4.6465,4.5996,4.5215,4.4648,4.4414,4.4199,4.4199,4.4433,4.4219,4.4082,4.4082,4.3613,4.3086,4.2519,4.209,4.1758,4.1523,4.1289,4.1172,4.1172,4.1172,4.1172,4.1191,4.1426,4.1523,4.1582,4.2246,4.2402,4.2285,4.2656,4.2676,4.2539,4.2734,4.3066,4.3418,4.3418,4.373,4.4082,4.4082,4.4687,4.543,4.5625,4.5976,4.625,4.6016,4.6133,4.625,4.6016,4.6133,4.6308,4.6308,4.5683,4.5234,4.5644,4.5536,4.5683,4.6655,4.6982,4.7389,4.8079,4.7999,4.7897,4.8065,4.7485,4.6577,4.5614,4.4818,4.4123,4.3711,4.4121,4.4576,4.5064,4.5936,4.6377,4.6426,4.6763,4.6741,4.6287,4.6266,4.6266,4.6266,4.6266,4.6266,4.6266,4.6535,4.6514,4.6266,4.6266,4.6266,4.6225,4.5664,4.5229,4.494,4.4277,4.3987,4.3987,4.3987,4.4153,4.4401,4.4608,4.4691,4.4753]}]]